[[{"header":{"parameterUnit":"m.s-1","parameterCategory":1,"la1":30.6,"la2":28.766,"lo1":-90.7593,"lo2":-88.6598,"dy":0.0162,"dx":0.0183,"nx":116,"ny":114,"refTime":"2023-08-18T06:00:00:Z","depth":0,"parameterNumber":2,"parameterNumberName":"U-component_of_WINDS"},"data":[0.0,0.0,0.0,0.0,0.0,0.0,0.0,0.0,0.0,0.0,0.0,0.0,0.0,0.0,0.0,0.0,0.0,0.0,0.0,0.0,0.0,0.0,0.0,0.0,0.0,0.0,0.0,0.0,0.0,0.0,0.0,0.0,0.0,0.0,0.0,0.0,0.0,0.0,0.0,0.0,0.0,0.0,0.0,0.0,0.0,0.0,0.0,0.0,0.0,0.0,0.0,0.0,0.0,0.0,0.0,0.0,0.0,0.0,0.0,0.0,0.0,0.0,0.0,0.0,0.0,0.0,0.0,0.0,0.0,0.0,0.0,0.0,0.0,0.0,0.0,0.0,0.0,0.0,0.0,0.0,0.0,0.0,0.0,0.0,0.0,0.0,0.0,0.0,0.0,0.0,0.0,0.0,0.0,0.0,0.0,0.0,0.0,0.0,0.0,0.0,0.0,0.0,0.0,0.0,0.0,0.0,0.0,0.0,0.0,0.0,0.0,0.0,0.0,0.0,0.0,0.0,0.0,0.0,0.0,0.0,0.0,0.0,0.0,0.0,0.0,0.0,0.0,0.0,0.0,0.0,0.0,0.0,0.0,0.0,0.0,0.0,0.0,0.0,0.0,0.0,0.0,0.0,0.0,0.0,0.0,0.0,0.0,0.0,0.0,0.0,0.0,0.0,0.0,0.0,0.0,0.0,0.0,0.0,0.0,0.0,0.0,0.0,0.0,0.0,0.0,0.0,0.0,0.0,0.0,0.0,0.0,0.0,0.0,0.0,0.0,0.0,0.0,0.0,0.0,0.0,0.0,0.0,0.0,0.0,0.0,0.0,0.0,0.0,0.0,0.0,0.0,0.0,0.0,0.0,0.0,0.0,0.0,0.0,0.0,0.0,0.0,0.0,0.0,0.0,0.0,0.0,0.0,0.0,0.0,0.0,0.0,0.0,0.0,0.0,0.0,0.0,0.0,0.0,0.0,0.0,0.0,0.0,0.0,0.0,0.0,0.0,0.0,0.0,0.0,0.0,0.0,0.0,0.0,0.0,0.0,0.0,0.0,0.0,0.0,0.0,0.0,0.0,0.0,0.0,0.0,0.0,0.0,0.0,0.0,0.0,0.0,0.0,0.0,0.0,0.0,0.0,0.0,0.0,0.0,0.0,0.0,0.0,0.0,0.0,0.0,0.0,0.0,0.0,0.0,0.0,0.0,0.0,0.0,0.0,0.0,0.0,0.0,0.0,0.0,0.0,0.0,0.0,0.0,0.0,0.0,0.0,0.0,0.0,0.0,0.0,0.0,0.0,0.0,0.0,0.0,0.0,0.0,0.0,0.0,0.0,0.0,0.0,0.0,0.0,0.0,0.0,0.0,0.0,0.0,0.0,0.0,0.0,0.0,0.0,0.0,0.0,0.0,0.0,0.0,0.0,0.0,0.0,0.0,0.0,0.0,0.0,0.0,0.0,0.0,0.0,0.0,0.0,0.0,0.0,0.0,0.0,0.0,0.0,0.0,0.0,0.0,0.0,0.0,0.0,0.0,0.0,0.0,0.0,0.0,0.0,0.0,0.0,0.0,0.0,0.0,0.0,0.0,0.0,0.0,0.0,0.0,0.0,0.0,0.0,0.0,0.0,0.0,0.0,0.0,0.0,0.0,0.0,0.0,0.0,0.0,0.0,0.0,0.0,0.0,0.0,0.0,0.0,0.0,0.0,0.0,0.0,0.0,0.0,0.0,0.0,0.0,0.0,0.0,0.0,0.0,0.0,0.0,0.0,0.0,0.0,0.0,0.0,0.0,0.0,0.0,0.0,0.0,0.0,0.0,0.0,0.0,0.0,0.0,0.0,0.0,0.0,0.0,0.0,0.0,0.0,0.0,0.0,0.0,0.0,0.0,0.0,0.0,0.0,0.0,0.0,0.0,0.0,0.0,0.0,0.0,0.0,0.0,0.0,0.0,0.0,0.0,0.0,0.0,0.0,0.0,0.0,0.0,0.0,0.0,0.0,0.0,0.0,0.0,0.0,0.0,0.0,0.0,0.0,0.0,0.0,0.0,0.0,0.0,0.0,0.0,0.0,0.0,0.0,0.0,0.0,0.0,0.0,0.0,0.0,0.0,0.0,0.0,0.0,0.0,0.0,0.0,0.0,0.0,0.0,0.0,0.0,0.0,0.0,0.0,0.0,0.0,0.0,0.0,0.0,0.0,0.0,0.0,0.0,0.0,0.0,0.0,0.0,0.0,0.0,0.0,0.0,0.0,0.0,0.0,0.0,0.0,0.0,0.0,0.0,0.0,0.0,0.0,0.0,0.0,0.0,0.0,0.0,0.0,0.0,0.0,0.0,0.0,0.0,0.0,0.0,0.0,0.0,0.0,0.0,0.0,0.0,0.0,0.0,0.0,0.0,0.0,0.0,0.0,0.0,0.0,0.0,0.0,0.0,0.0,0.0,0.0,0.0,0.0,0.0,0.0,0.0,0.0,0.0,0.0,0.0,0.0,0.0,0.0,0.0,0.0,0.0,0.0,0.0,0.0,0.0,0.0,0.0,0.0,0.0,0.0,0.0,0.0,0.0,0.0,0.0,0.0,0.0,0.0,0.0,0.0,0.0,0.0,0.0,0.0,0.0,0.0,0.0,0.0,0.0,0.0,0.0,0.0,0.0,0.0,0.0,0.0,0.0,0.0,0.0,0.0,0.0,0.0,0.0,0.0,0.0,0.0,0.0,0.0,0.0,0.0,0.0,0.0,0.0,0.0,0.0,0.0,0.0,0.0,0.0,0.0,0.0,0.0,0.0,0.0,0.0,0.0,0.0,0.0,0.0,0.0,0.0,0.0,0.0,0.0,0.0,0.0,0.0,0.0,0.0,0.0,0.0,0.0,0.0,0.0,0.0,0.0,0.0,0.0,0.0,0.0,0.0,0.0,0.0,0.0,0.0,0.0,0.0,0.0,0.0,0.0,0.0,0.0,0.0,0.0,0.0,0.0,0.0,0.0,0.0,0.0,0.0,0.0,0.0,0.0,0.0,0.0,0.0,0.0,0.0,0.0,0.0,0.0,0.0,0.0,0.0,0.0,0.0,0.0,0.0,0.0,0.0,0.0,0.0,0.0,0.0,0.0,0.0,0.0,0.0,0.0,0.0,0.0,0.0,0.0,0.0,0.0,0.0,0.0,0.0,0.0,0.0,0.0,0.0,0.0,0.0,0.0,0.0,0.0,0.0,0.0,0.0,0.0,0.0,0.0,0.0,0.0,0.0,0.0,0.0,0.0,0.0,0.0,0.0,0.0,0.0,0.0,0.0,0.0,0.0,0.0,0.0,0.0,0.0,0.0,0.0,0.0,0.0,0.0,0.0,0.0,0.0,0.0,0.0,0.0,0.0,0.0,0.0,0.0,0.0,0.0,0.0,0.0,0.0,0.0,0.0,0.0,0.0,0.0,0.0,0.0,0.0,0.0,0.0,0.0,0.0,0.0,0.0,0.0,0.0,0.0,0.0,0.0,0.0,0.0,0.0,0.0,0.0,0.0,0.0,0.0,0.0,0.0,0.0,0.0,0.0,0.0,0.0,0.0,0.0,0.0,0.0,0.0,0.0,0.0,0.0,0.0,0.0,0.0,0.0,0.0,0.0,0.0,0.0,0.0,0.0,0.0,0.0,0.0,0.0,0.0,0.0,0.0,0.0,0.0,0.0,0.0,0.0,0.0,0.0,0.0,0.0,0.0,0.0,0.0,0.0,0.0,0.0,0.0,0.0,0.0,0.0,0.0,0.0,0.0,0.0,0.0,0.0,0.0,0.0,0.0,0.0,0.0,0.0,0.0,0.0,0.0,0.0,0.0,0.0,0.0,0.0,0.0,0.0,0.0,0.0,0.0,0.0,0.0,0.0,0.0,0.0,0.0,0.0,0.0,0.0,0.0,0.0,0.0,0.0,0.0,0.0,0.0,0.0,0.0,0.0,0.0,0.0,0.0,0.0,0.0,0.0,0.0,0.0,0.0,0.0,0.0,0.0,0.0,0.0,0.0,0.0,0.0,0.0,0.0,0.0,0.0,0.0,0.0,0.0,0.0,0.0,0.0,0.0,0.0,0.0,0.0,0.0,0.0,0.0,0.0,0.0,0.0,0.0,0.0,0.0,0.0,0.0,0.0,0.0,0.0,0.0,0.0,0.0,0.0,0.0,0.0,0.0,0.0,0.0,0.0,0.0,0.0,0.0,0.0,0.0,0.0,0.0,0.0,0.0,0.0,0.0,0.0,0.0,0.0,0.0,0.0,0.0,0.0,0.0,0.0,0.0,0.0,0.0,0.0,0.0,0.0,0.0,0.0,0.0,0.0,0.0,0.0,0.0,0.0,0.0,0.0,0.0,0.0,0.0,0.0,0.0,0.0,0.0,0.0,0.0,0.0,0.0,0.0,0.0,0.0,0.0,0.0,0.0,0.0,0.0,0.0,0.0,0.0,0.0,0.0,0.0,0.0,0.0,0.0,0.0,0.0,0.0,0.0,0.0,0.0,0.0,0.0,0.0,0.0,0.0,0.0,0.0,0.0,0.0,0.0,0.0,0.0,0.0,0.0,0.0,0.0,0.0,0.0,0.0,0.0,0.0,0.0,0.0,0.0,0.0,0.0,0.0,0.0,0.0,0.0,0.0,0.0,0.0,0.0,0.0,0.0,0.0,0.0,0.0,0.0,0.0,0.0,0.0,0.0,0.0,0.0,0.0,0.0,0.0,0.0,0.0,0.0,0.0,0.0,0.0,0.0,0.0,0.0,0.0,0.0,0.0,0.0,0.0,0.0,0.0,0.0,0.0,0.0,0.0,0.0,0.0,0.0,0.0,0.0,0.0,0.0,0.0,0.0,0.0,0.0,0.0,0.0,0.0,0.0,0.0,0.0,0.0,0.0,0.0,0.0,0.0,0.0,0.0,0.0,0.0,0.0,0.0,0.0,0.0,0.0,0.0,0.0,0.0,0.0,0.0,0.0,0.0,0.0,0.0,0.0,0.0,0.0,0.0,0.0,0.0,0.0,0.0,0.0,0.0,0.0,0.0,0.0,0.0,0.0,0.0,0.0,0.0,0.0,0.0,0.0,0.0,0.0,0.0,0.0,0.0,0.0,0.0,0.0,0.0,0.0,0.0,0.0,0.0,0.0,0.0,0.0,0.0,0.0,0.0,0.0,0.0,0.0,0.0,0.0,0.0,0.0,0.0,0.0,0.0,0.0,0.0,0.0,0.0,0.0,0.0,0.0,0.0,0.0,0.0,0.0,0.0,0.0,0.0,0.0,0.0,0.0,0.0,0.0,0.0,0.0,0.0,0.0,0.0,0.0,0.0,0.0,0.0,0.0,0.0,0.0,0.0,0.0,0.0,0.0,0.0,0.0,0.0,0.0,0.0,0.0,0.0,0.0,0.0,0.0,0.0,0.0,0.0,0.0,0.0,0.0,0.0,0.0,0.0,0.0,0.0,0.0,0.0,0.0,0.0,0.0,0.0,0.0,0.0,0.0,0.0,0.0,0.0,0.0,0.0,0.0,0.0,0.0,0.0,0.0,0.0,0.0,0.0,0.0,0.0,0.0,0.0,0.0,0.0,0.0,0.0,0.0,0.0,0.0,0.0,0.0,0.0,0.0,0.0,0.0,0.0,0.0,0.0,0.0,0.0,0.0,0.0,0.0,0.0,0.0,0.0,0.0,0.0,0.0,0.0,0.0,0.0,0.0,0.0,0.0,0.0,0.0,0.0,0.0,0.0,0.0,0.0,0.0,0.0,0.0,0.0,0.0,0.0,0.0,0.0,0.0,0.0,0.0,0.0,0.0,0.0,0.0,0.0,0.0,0.0,0.0,0.0,0.0,0.0,0.0,0.0,0.0,0.0,0.0,0.0,0.0,0.0,0.0,0.0,0.0,0.0,0.0,0.0,0.0,0.0,0.0,0.0,0.0,0.0,0.0,0.0,0.0,0.0,0.0,0.0,0.0,0.0,0.0,0.0,0.0,0.0,0.0,0.0,0.0,0.0,0.0,0.0,0.0,0.0,0.0,0.0,0.0,0.0,0.0,0.0,0.0,0.0,0.0,0.0,0.0,0.0,0.0,0.0,0.0,0.0,0.0,0.0,0.0,0.0,0.0,0.0,-4.6009,0.0,0.0,0.0,0.0,0.0,0.0,0.0,0.0,0.0,0.0,0.0,0.0,0.0,0.0,0.0,0.0,0.0,0.0,0.0,0.0,0.0,0.0,0.0,0.0,0.0,0.0,0.0,0.0,0.0,0.0,0.0,0.0,0.0,0.0,0.0,0.0,0.0,0.0,0.0,0.0,0.0,0.0,0.0,0.0,0.0,0.0,0.0,0.0,0.0,0.0,0.0,0.0,0.0,0.0,0.0,0.0,0.0,0.0,0.0,0.0,0.0,0.0,0.0,0.0,0.0,0.0,0.0,0.0,0.0,0.0,0.0,0.0,0.0,0.0,0.0,0.0,0.0,0.0,0.0,0.0,0.0,0.0,0.0,0.0,0.0,0.0,0.0,0.0,0.0,0.0,0.0,0.0,0.0,0.0,0.0,0.0,0.0,0.0,0.0,0.0,0.0,0.0,0.0,0.0,0.0,0.0,0.0,0.0,0.0,0.0,0.0,0.0,0.0,0.0,0.0,0.0,-4.6196,0.0,0.0,0.0,0.0,0.0,0.0,0.0,0.0,0.0,0.0,0.0,0.0,0.0,0.0,0.0,0.0,0.0,0.0,0.0,0.0,0.0,0.0,0.0,0.0,0.0,0.0,0.0,0.0,0.0,0.0,0.0,0.0,0.0,0.0,0.0,0.0,0.0,0.0,0.0,0.0,0.0,0.0,0.0,0.0,0.0,0.0,0.0,0.0,0.0,0.0,0.0,0.0,0.0,0.0,0.0,0.0,0.0,0.0,0.0,0.0,0.0,0.0,0.0,0.0,0.0,0.0,0.0,0.0,0.0,0.0,0.0,0.0,0.0,0.0,0.0,0.0,0.0,0.0,0.0,0.0,0.0,0.0,0.0,0.0,0.0,0.0,0.0,0.0,0.0,0.0,0.0,0.0,0.0,0.0,0.0,0.0,0.0,0.0,0.0,0.0,0.0,0.0,0.0,0.0,0.0,0.0,0.0,0.0,-5.0876,-5.1744,-5.2004,-5.1607,-5.1887,-5.2513,-4.952,-4.829,-4.825,-4.6326,0.0,0.0,0.0,0.0,0.0,0.0,0.0,0.0,0.0,0.0,0.0,0.0,0.0,0.0,0.0,0.0,0.0,0.0,0.0,0.0,0.0,0.0,0.0,0.0,0.0,0.0,0.0,0.0,0.0,0.0,0.0,0.0,0.0,0.0,0.0,0.0,0.0,0.0,-3.406,-3.5073,-3.5479,-3.5368,0.0,0.0,0.0,0.0,0.0,0.0,0.0,0.0,0.0,0.0,0.0,0.0,0.0,0.0,0.0,0.0,0.0,0.0,0.0,0.0,0.0,0.0,0.0,0.0,0.0,0.0,0.0,0.0,0.0,0.0,0.0,0.0,0.0,0.0,0.0,0.0,0.0,0.0,0.0,0.0,0.0,0.0,0.0,0.0,-3.9096,-4.0196,0.0,0.0,0.0,0.0,0.0,0.0,0.0,0.0,0.0,0.0,0.0,0.0,0.0,-4.6801,-4.8213,-5.0556,-5.1777,-5.2036,-5.4451,-5.5666,-5.5701,-5.5004,-5.5096,-5.5698,-5.3817,0.0,-4.914,-4.7744,0.0,0.0,0.0,0.0,0.0,0.0,0.0,0.0,0.0,0.0,0.0,0.0,0.0,0.0,0.0,0.0,0.0,0.0,0.0,0.0,0.0,0.0,0.0,0.0,0.0,0.0,0.0,0.0,0.0,0.0,0.0,0.0,0.0,0.0,0.0,0.0,-3.3111,-3.4224,-3.4749,-3.5258,-3.5463,-3.5338,-3.5289,-3.5386,-3.553,-3.4764,0.0,0.0,0.0,0.0,0.0,0.0,0.0,0.0,0.0,0.0,0.0,0.0,0.0,0.0,0.0,0.0,0.0,0.0,0.0,0.0,0.0,0.0,0.0,0.0,0.0,0.0,0.0,0.0,0.0,0.0,0.0,0.0,0.0,0.0,0.0,0.0,0.0,0.0,0.0,-3.8172,-4.0369,-4.0075,-4.0216,-3.9801,0.0,0.0,0.0,0.0,0.0,0.0,0.0,0.0,0.0,-4.7347,-4.8375,-4.9193,-4.9774,-5.1619,-5.2736,-5.3074,-5.4607,-5.5837,-5.6683,-5.5406,-5.5553,-5.6587,-5.4211,-5.2393,-5.1051,-4.9553,-4.7722,-4.5634,0.0,0.0,0.0,0.0,-4.1561,-4.1601,0.0,0.0,0.0,0.0,0.0,0.0,0.0,0.0,0.0,0.0,0.0,0.0,0.0,0.0,0.0,-2.4428,0.0,0.0,0.0,0.0,0.0,0.0,0.0,0.0,0.0,0.0,0.0,0.0,-3.3396,-3.4568,-3.4703,-3.4975,-3.5069,-3.4931,-3.5057,-3.5219,-3.5398,-3.5172,-3.4358,0.0,0.0,0.0,0.0,0.0,0.0,0.0,0.0,0.0,0.0,0.0,0.0,0.0,0.0,0.0,0.0,0.0,0.0,0.0,0.0,0.0,0.0,0.0,0.0,0.0,0.0,0.0,0.0,0.0,0.0,0.0,0.0,0.0,0.0,0.0,0.0,0.0,0.0,-3.9924,-4.208,-4.0639,-4.2238,-4.238,0.0,0.0,0.0,0.0,0.0,0.0,-4.6077,-4.7148,-4.8313,-4.9722,-5.0744,-5.1292,-5.1396,-5.2514,-5.3312,-5.3776,-5.4429,-5.5382,-5.6562,-5.5299,-5.5308,-5.6265,-5.4028,-5.2876,-5.25,-5.0917,-4.9206,-4.7459,-4.6082,-4.4863,-4.3899,-4.3313,-4.2936,-4.2945,0.0,0.0,0.0,0.0,0.0,0.0,0.0,0.0,0.0,0.0,0.0,0.0,0.0,0.0,-2.4439,-2.483,-2.5858,-2.6115,0.0,0.0,0.0,0.0,0.0,0.0,0.0,0.0,0.0,-3.0092,-3.175,-3.2795,-3.3313,0.0,0.0,0.0,0.0,0.0,0.0,0.0,0.0,0.0,0.0,0.0,0.0,0.0,0.0,0.0,0.0,0.0,0.0,0.0,0.0,0.0,0.0,0.0,0.0,0.0,0.0,0.0,0.0,0.0,0.0,0.0,0.0,0.0,0.0,0.0,0.0,0.0,0.0,0.0,0.0,0.0,0.0,0.0,0.0,0.0,0.0,0.0,0.0,-4.3323,-4.6248,0.0,0.0,0.0,0.0,-4.456,-4.5286,-4.6797,-4.934,-4.9514,-5.045,-5.2369,-5.2486,-5.2768,-5.3355,-5.4067,-5.4429,-5.4473,-5.5068,-5.5373,-5.5456,-5.5373,-5.5068,-5.4599,-5.4458,-5.3718,-5.2521,-5.122,-4.9989,-4.8925,-4.8295,-4.6869,-4.5214,-4.5173,-4.4638,-4.4022,0.0,0.0,0.0,0.0,0.0,0.0,0.0,0.0,0.0,0.0,0.0,0.0,0.0,-2.0911,-2.202,-2.1905,-2.3036,-2.388,0.0,0.0,0.0,0.0,0.0,0.0,0.0,0.0,-2.8888,-2.979,-3.0807,0.0,0.0,0.0,0.0,0.0,0.0,0.0,0.0,0.0,0.0,0.0,0.0,0.0,0.0,0.0,0.0,0.0,0.0,0.0,0.0,0.0,0.0,0.0,0.0,0.0,0.0,0.0,0.0,0.0,0.0,0.0,0.0,0.0,0.0,0.0,0.0,0.0,0.0,0.0,0.0,0.0,0.0,0.0,0.0,0.0,0.0,0.0,0.0,0.0,0.0,-4.4986,-4.8063,0.0,-4.5834,-4.6249,-4.7023,-4.7629,-4.8485,-4.9901,-5.2049,-5.2165,-5.2673,-5.3791,-5.382,-5.3718,-5.3515,-5.3747,-5.366,-5.3268,-5.3486,-5.3588,-5.3573,-5.3152,-5.2975,-5.2948,-5.1677,-5.1012,-5.0744,-4.9465,-4.9431,-5.0011,-4.894,-4.7854,-4.6858,-4.6402,-4.6048,-4.5851,0.0,0.0,0.0,0.0,0.0,0.0,0.0,0.0,0.0,0.0,0.0,-1.8139,-1.8237,-1.9609,-2.044,-2.0323,0.0,0.0,0.0,0.0,0.0,0.0,0.0,0.0,0.0,-2.6486,-2.7262,0.0,0.0,0.0,0.0,0.0,0.0,0.0,0.0,0.0,0.0,0.0,0.0,0.0,0.0,0.0,-3.0791,0.0,0.0,0.0,0.0,0.0,0.0,0.0,0.0,0.0,0.0,0.0,0.0,0.0,0.0,0.0,0.0,0.0,0.0,0.0,0.0,0.0,0.0,0.0,0.0,0.0,0.0,0.0,0.0,0.0,0.0,0.0,0.0,0.0,0.0,0.0,-4.8137,-4.6429,-4.9907,-5.1258,-4.8162,-4.9374,-5.0556,-5.0958,-5.1914,-5.3097,-5.4558,-5.4332,-5.4255,-5.4502,-5.4299,-5.3762,-5.2876,-5.3094,-5.2876,-5.2252,-5.2186,-5.2149,-5.2121,-5.1598,-5.1257,-5.1032,-4.9738,-4.9208,-4.9202,-4.8144,-4.8511,-4.9684,-4.8817,-4.811,-4.7474,-4.6792,-4.6273,-4.5869,0.0,0.0,0.0,0.0,0.0,0.0,0.0,0.0,0.0,0.0,0.0,-1.754,-1.7863,-1.9048,-1.9926,0.0,0.0,0.0,0.0,0.0,0.0,0.0,0.0,0.0,-2.2391,-2.3616,0.0,0.0,0.0,0.0,0.0,0.0,0.0,0.0,0.0,0.0,0.0,0.0,0.0,0.0,0.0,0.0,-3.0981,0.0,0.0,0.0,0.0,0.0,0.0,0.0,0.0,0.0,0.0,0.0,0.0,0.0,0.0,0.0,0.0,0.0,0.0,0.0,0.0,0.0,0.0,0.0,0.0,0.0,0.0,0.0,0.0,0.0,0.0,0.0,0.0,0.0,-4.4063,-4.7648,-4.9408,-4.79,-5.2054,-5.3638,-5.0241,-5.2673,-5.451,-5.4482,-5.5318,-5.6075,-5.6736,-5.5861,-5.5028,-5.4419,-5.3767,-5.2824,-5.1577,-5.2223,-5.2223,-5.1534,-5.1251,-5.112,-5.1105,-5.082,-4.998,-4.8838,-4.8823,-4.8481,-4.7895,-4.7286,-4.7352,-4.7909,-4.7987,-4.7601,-4.6986,-4.6309,-4.5267,-4.4067,0.0,0.0,0.0,0.0,0.0,0.0,0.0,0.0,0.0,0.0,-1.5666,-1.6138,-1.5926,-1.6708,0.0,0.0,0.0,0.0,0.0,0.0,0.0,0.0,0.0,0.0,0.0,0.0,0.0,0.0,0.0,0.0,0.0,0.0,0.0,0.0,0.0,0.0,0.0,0.0,0.0,0.0,0.0,0.0,-3.0549,0.0,0.0,0.0,0.0,0.0,0.0,0.0,0.0,0.0,0.0,0.0,0.0,0.0,0.0,0.0,0.0,0.0,0.0,0.0,0.0,0.0,0.0,0.0,0.0,0.0,0.0,0.0,0.0,0.0,0.0,0.0,0.0,-4.307,-4.6,-4.8448,-5.0602,-5.2433,-5.4261,-5.4965,-5.398,-5.4488,-5.4658,-5.426,-5.4239,-5.4104,-5.3887,-5.3597,-5.3163,-5.2464,-5.2263,-5.1842,-5.1038,-5.1196,-5.098,-5.0378,-4.9803,-4.928,-4.8872,-4.8364,-4.7818,-4.7267,-4.6764,-4.6653,-4.6692,-4.5604,-4.552,-4.6127,-4.7013,-4.6957,-4.6281,-4.5667,-4.4655,-4.3424,0.0,0.0,0.0,0.0,0.0,0.0,0.0,0.0,0.0,0.0,-1.4415,-1.4877,-1.4433,-1.5138,0.0,0.0,0.0,0.0,0.0,0.0,0.0,0.0,0.0,-1.9889,0.0,0.0,0.0,0.0,0.0,0.0,0.0,0.0,0.0,0.0,0.0,0.0,0.0,0.0,0.0,0.0,0.0,0.0,-3.0409,-3.0472,-3.0711,-3.0998,-3.0998,-3.1131,-3.1261,-3.0893,0.0,0.0,0.0,0.0,0.0,0.0,0.0,0.0,0.0,0.0,0.0,0.0,0.0,0.0,0.0,0.0,0.0,0.0,0.0,0.0,0.0,0.0,0.0,0.0,-4.0908,-4.356,-4.6726,-4.8696,-5.0708,-5.3056,-5.4098,-5.4689,-5.4689,-5.476,-5.4671,-5.4318,-5.3977,-5.3673,-5.3317,-5.2912,-5.2366,-5.1709,-5.1437,-5.0803,-4.966,-4.9903,-4.9552,-4.873,-4.7926,-4.7506,-4.7455,-4.6684,-4.6257,-4.6085,-4.5717,-4.5425,-4.5128,-4.4158,-4.3698,0.0,0.0,0.0,0.0,0.0,-4.2377,-4.128,0.0,0.0,0.0,0.0,0.0,0.0,0.0,0.0,0.0,0.0,0.0,-1.3688,-1.3271,0.0,0.0,0.0,0.0,0.0,0.0,0.0,0.0,-1.6805,-1.7212,0.0,0.0,0.0,0.0,0.0,0.0,0.0,0.0,0.0,0.0,0.0,0.0,0.0,0.0,0.0,0.0,0.0,0.0,0.0,-2.9935,-2.9222,-2.9666,-3.0639,-3.0697,-3.1026,-3.1467,-3.1862,0.0,0.0,0.0,0.0,0.0,0.0,0.0,0.0,0.0,0.0,0.0,0.0,0.0,0.0,0.0,0.0,0.0,0.0,0.0,0.0,0.0,0.0,0.0,0.0,-4.0913,-4.3117,-4.6313,-4.8166,-4.9728,-5.1178,-5.237,-5.3112,-5.3112,-5.3689,-5.4083,-5.42,-5.3895,-5.3768,-5.3823,0.0,0.0,0.0,0.0,-4.9601,-4.7946,-4.8282,-4.7975,-4.6876,-4.5803,-4.5604,-4.6155,-4.5124,-4.4654,-4.4654,-4.4654,-4.4146,-4.3174,-4.2647,-4.1932,-4.1281,-4.3142,-4.3482,-4.2707,-4.0754,-3.9427,-3.8482,0.0,0.0,0.0,0.0,0.0,0.0,0.0,0.0,0.0,-1.1674,-1.2116,-1.2301,-1.2063,0.0,0.0,0.0,0.0,0.0,0.0,0.0,-1.5333,-1.5867,-1.6168,0.0,0.0,0.0,0.0,0.0,0.0,0.0,0.0,0.0,0.0,0.0,0.0,0.0,0.0,0.0,0.0,0.0,0.0,0.0,-2.7318,-2.9161,-3.0029,-3.028,-3.0582,-3.0769,-3.0772,-3.0169,-3.0348,-3.0752,-3.0036,0.0,0.0,0.0,0.0,0.0,0.0,0.0,0.0,0.0,0.0,0.0,0.0,0.0,0.0,0.0,0.0,0.0,0.0,0.0,0.0,-3.911,-4.081,-4.2526,-4.4412,-4.4975,-4.6425,-4.9785,-5.0422,-5.0603,-5.0603,-5.0751,-5.1033,-5.1577,-5.1555,-5.1735,-5.2221,-5.1147,-5.0467,-5.034,-4.8723,-4.7708,-4.7355,-4.6453,-4.589,-4.5636,0.0,0.0,-4.2841,-4.1395,-4.0686,-4.0686,-4.0686,-4.059,-4.0385,-4.028,-4.0083,-3.9987,-4.037,-4.0167,-3.9588,-3.9164,-3.8576,-3.7874,0.0,0.0,0.0,0.0,0.0,0.0,0.0,0.0,0.0,0.0,-1.1553,-1.1587,0.0,0.0,0.0,0.0,0.0,0.0,0.0,-1.3355,-1.3812,-1.4193,0.0,0.0,0.0,0.0,0.0,0.0,0.0,0.0,0.0,0.0,0.0,0.0,0.0,0.0,0.0,0.0,0.0,0.0,0.0,0.0,-2.3652,-2.6278,-2.7794,-2.8675,-2.9414,-3.0026,-3.0471,-3.0147,-3.0419,-3.082,-3.0389,-3.0611,-3.0878,0.0,0.0,0.0,0.0,0.0,0.0,0.0,0.0,0.0,0.0,0.0,0.0,0.0,0.0,-3.4916,0.0,0.0,-3.8701,-4.0669,-4.1608,-4.2538,-4.3561,-4.3702,-4.4657,-4.7321,-4.8068,-4.8487,-4.8623,-4.8842,-4.9085,-4.9448,-4.9157,-4.9227,-4.9646,-4.8147,-4.7473,-4.7947,-4.5946,-4.4878,-4.4827,-4.3837,-4.3139,-4.2854,-4.1146,-4.0434,-4.0532,-3.9428,-3.9025,-3.919,-3.919,-3.8914,-3.8331,-3.7515,-3.7207,-3.7182,-3.692,-3.7195,-3.7683,-3.7248,-3.6616,-3.5866,0.0,0.0,0.0,0.0,0.0,0.0,0.0,0.0,0.0,0.0,0.0,-1.1204,0.0,0.0,0.0,0.0,0.0,0.0,0.0,-1.2087,-1.2271,-1.2711,0.0,0.0,0.0,0.0,0.0,0.0,0.0,0.0,0.0,0.0,0.0,0.0,0.0,0.0,0.0,0.0,0.0,0.0,0.0,0.0,-2.0089,-2.2593,-2.4793,-2.6608,-2.7563,-2.8489,-2.9329,-2.963,-3.0013,-3.0386,-3.0572,-3.0686,-3.0522,-2.9297,-2.9069,0.0,0.0,0.0,0.0,0.0,0.0,0.0,0.0,0.0,-3.3342,-3.5371,-3.611,-3.7059,-3.9239,-3.9731,-4.0317,-4.2023,-4.2385,-4.2595,-4.3016,-4.3137,-4.3533,-4.4605,-4.5604,-4.6322,-4.6598,-4.6895,-4.7202,-4.7431,-4.6921,-4.6793,-4.7302,-4.5492,-4.481,-4.5615,-4.3497,-4.2358,-4.241,-4.1318,-4.0569,-4.0028,-3.8713,-3.8252,-3.8624,-3.7833,-3.768,-3.8043,-3.7942,-3.738,-3.6514,-3.5218,-3.4663,-3.4628,-3.4179,-3.4929,-3.6137,-3.5465,-3.4763,-3.403,0.0,0.0,0.0,0.0,0.0,0.0,0.0,0.0,0.0,0.0,0.0,0.0,0.0,0.0,0.0,0.0,0.0,0.0,0.0,-1.1739,-1.1744,-1.2408,0.0,0.0,0.0,0.0,0.0,0.0,0.0,0.0,0.0,0.0,0.0,0.0,0.0,0.0,0.0,0.0,0.0,0.0,0.0,0.0,-1.7565,-1.9716,-2.2157,-2.447,-2.5209,-2.5595,-2.5747,-2.6146,-2.6673,-2.7266,-2.7949,-2.8776,-2.9304,-2.8483,0.0,-2.8117,-2.7389,-2.8626,-3.0743,-3.3141,-3.3742,-3.4695,0.0,0.0,-3.7575,-3.9273,-3.9648,-3.9802,-4.0291,-4.0755,-4.1228,-4.1653,-4.2074,-4.2333,-4.2391,-4.2391,-4.2454,-4.2483,-4.3208,-4.373,-4.373,-4.3796,-4.4285,-4.5403,-4.5018,-4.5219,-4.6379,-4.4776,-4.4066,-4.4742,-4.2477,-4.1529,-4.2043,-4.0027,-3.8948,-3.8871,-3.6849,-3.6144,-3.6591,-3.5185,-3.4802,-3.5241,-3.4802,-3.4574,-3.4426,-3.4231,-3.4158,-3.4146,-3.3852,-3.3852,-3.4035,-3.4186,-3.4162,-3.3983,0.0,0.0,0.0,0.0,0.0,0.0,0.0,0.0,0.0,0.0,0.0,0.0,0.0,0.0,0.0,0.0,0.0,0.0,-0.9852,-0.9883,-1.0201,-1.0854,0.0,0.0,0.0,0.0,0.0,0.0,0.0,0.0,0.0,0.0,0.0,0.0,0.0,0.0,0.0,0.0,0.0,0.0,0.0,0.0,-1.6676,-1.8014,-1.997,-2.2115,-2.351,-2.3866,0.0,0.0,-2.5371,-2.591,-2.6704,-2.708,-2.7188,-2.6742,-2.662,0.0,-2.7551,-2.91,-3.0713,0.0,-3.2696,-3.391,-3.5566,-3.6496,-3.7419,-3.8983,-4.0216,-4.1095,-4.148,-4.1757,-4.1913,0.0,-4.2201,-4.2275,-4.2275,-4.2075,-4.1873,-4.1842,-4.2129,-4.2381,-4.2557,-4.2164,-4.2168,-4.3044,-4.2583,-4.2639,-4.3335,-4.1936,-4.1344,-4.1792,-3.9989,-3.9098,-3.9358,-3.7706,-3.7065,-3.7319,-3.5799,-3.5284,-3.5646,-3.4683,-3.4163,-3.392,-3.3723,-3.363,-3.363,-3.363,-3.363,-3.363,-3.353,-3.3481,-3.3481,-3.358,-3.3433,-3.305,0.0,0.0,0.0,0.0,0.0,0.0,0.0,0.0,0.0,0.0,0.0,0.0,0.0,0.0,0.0,0.0,0.0,0.0,0.0,-0.8472,-0.8853,-0.9524,0.0,0.0,0.0,0.0,0.0,0.0,0.0,0.0,0.0,0.0,0.0,0.0,0.0,0.0,0.0,0.0,0.0,0.0,0.0,0.0,-1.5379,-1.6505,-1.7746,-1.9146,-2.1412,-2.246,0.0,0.0,-2.4245,-2.4827,-2.5376,-2.5501,-2.5415,-2.5165,-2.502,-2.5292,-2.6786,0.0,0.0,-3.0213,-3.1572,-3.2952,-3.326,-3.4682,-3.6328,-3.7879,-3.9623,-4.1085,-4.1735,-4.212,-4.2321,-4.2522,-4.2545,-4.2545,-4.2545,-4.2109,-4.1684,-4.1397,-4.1237,-4.1268,-4.1515,-4.1261,-4.1122,-4.1352,-4.0892,-4.0727,-4.097,-3.9898,-3.9357,-3.9453,-3.8248,-3.753,-3.7336,-3.6191,-3.5712,-3.5958,-3.5046,-3.466,-3.4877,-3.4484,-3.383,-3.3069,-3.3069,-3.2969,-3.2818,-3.2818,-3.2818,-3.2818,-3.2818,-3.2818,-3.2807,-3.271,-3.2563,-3.2408,0.0,0.0,0.0,0.0,0.0,0.0,0.0,0.0,0.0,0.0,0.0,0.0,0.0,0.0,0.0,0.0,0.0,0.0,0.0,-0.8086,-0.808,-0.8878,-0.8589,0.0,0.0,0.0,0.0,0.0,0.0,0.0,0.0,0.0,0.0,0.0,0.0,0.0,0.0,0.0,0.0,0.0,0.0,0.0,-1.2954,-1.5004,-1.5328,-1.5143,-1.8565,0.0,0.0,0.0,-2.269,-2.3634,-2.3677,-2.4095,0.0,-2.4177,-2.3794,0.0,0.0,0.0,-2.7827,-2.9574,-3.1123,-3.2623,-3.4083,-3.4531,-3.5004,-3.6519,-3.8101,-3.946,-4.0438,-4.1552,-4.25,-4.2982,-4.3074,-4.3074,-4.3074,-4.2637,-4.1948,-4.0961,-4.0399,-4.016,0.0,-4.1046,-4.1352,-4.0881,-4.0364,-4.0137,-4.0137,-3.9584,-3.909,-3.8619,-3.8068,-3.7529,-3.7046,-3.6013,-3.5267,-3.4819,-3.432,-3.4016,-3.4027,-3.4004,-3.3413,-3.2409,-3.2409,-3.2117,-3.1629,-3.1629,-3.1629,-3.1629,-3.1629,-3.1629,-3.1615,-3.1144,-3.1605,-3.2408,0.0,0.0,0.0,0.0,0.0,0.0,0.0,0.0,0.0,0.0,0.0,0.0,0.0,0.0,0.0,0.0,0.0,0.0,0.0,-0.5954,-0.6307,-0.7136,-0.705,-0.7182,0.0,0.0,0.0,0.0,0.0,0.0,0.0,0.0,0.0,0.0,0.0,0.0,0.0,0.0,0.0,0.0,0.0,0.0,-1.2636,-1.3458,-1.431,-1.5176,0.0,0.0,0.0,0.0,-2.1254,-2.1785,-2.2519,0.0,0.0,-2.2906,-2.3335,-2.3852,-2.4366,0.0,-2.6581,-2.7973,-2.9108,-3.0148,-3.1158,-3.2327,-3.3457,-3.4216,-3.5133,-3.5945,-3.6592,-3.7541,-3.8554,-3.9287,-4.0438,-4.1372,-4.2038,-4.1705,-4.1028,-4.004,-4.0063,0.0,0.0,0.0,0.0,-4.0295,-3.9848,-3.9561,-3.9561,-3.8973,-3.8261,-3.7494,-3.6889,-3.6169,-3.5357,-3.4636,-3.4236,-3.4146,-3.3646,-3.3223,-3.2964,-3.2964,-3.2542,-3.1874,-3.1874,-3.1772,-3.1618,-3.1618,-3.1618,-3.1618,-3.1618,-3.1422,-3.1116,-3.0952,-3.074,-3.0515,0.0,0.0,0.0,0.0,0.0,0.0,0.0,0.0,0.0,0.0,0.0,0.0,0.0,0.0,0.0,0.0,0.0,0.0,0.0,0.0,-0.4877,-0.552,-0.5347,-0.5468,0.0,0.0,0.0,0.0,0.0,0.0,0.0,0.0,0.0,0.0,0.0,0.0,0.0,0.0,0.0,0.0,0.0,0.0,-1.2078,-1.245,-1.3179,0.0,0.0,0.0,0.0,0.0,-1.988,-2.0679,-2.107,-2.1312,-2.1461,-2.1744,-2.2367,-2.3194,-2.4057,-2.4844,-2.5778,-2.7038,-2.7825,-2.8421,-2.8921,-2.9951,-3.1006,-3.16,-3.2247,-3.2943,-3.3769,-3.4655,-3.5577,-3.6509,-3.7699,-3.899,-4.0468,-4.022,-3.9888,-3.9767,-3.9843,-3.9374,0.0,0.0,0.0,-3.9108,-3.8983,-3.8777,-3.8656,-3.8227,-3.7532,-3.6602,-3.6107,-3.5386,-3.424,-3.3934,-3.3606,-3.3268,-3.2787,-3.2383,-3.2129,-3.2129,-3.181,-3.1311,-3.1311,-3.1054,-3.0578,-3.0578,-3.0317,-2.9901,-2.9901,-2.962,-2.9243,-2.9076,-2.8637,-2.8195,0.0,0.0,0.0,0.0,0.0,0.0,0.0,0.0,0.0,0.0,0.0,0.0,0.0,0.0,0.0,0.0,0.0,0.0,0.0,0.0,0.0,-0.4192,-0.3743,-0.3514,-0.3517,0.0,0.0,0.0,0.0,0.0,0.0,0.0,0.0,0.0,0.0,0.0,0.0,0.0,0.0,0.0,0.0,0.0,-1.1265,-1.1888,0.0,0.0,0.0,0.0,0.0,0.0,0.0,0.0,-1.9565,-1.9859,-2.0403,-2.0759,-2.1122,-2.1796,-2.3411,-2.4392,-2.5285,-2.6618,-2.7234,-2.7491,-2.7508,-2.7508,-2.7824,-2.8866,-2.9642,-3.0471,0.0,0.0,-3.3638,-3.4533,-3.5123,-3.6267,-3.8503,-3.839,-3.8536,0.0,0.0,0.0,0.0,0.0,0.0,-3.7197,0.0,-3.7866,-3.7407,-3.7352,-3.6845,-3.5907,-3.5773,-3.5087,-3.3693,-3.3639,-3.3149,-3.2224,-3.1641,-3.1414,-3.1414,-3.1414,-3.1094,-3.063,-3.063,-2.988,-2.8605,-2.8605,-2.7873,-2.675,-2.675,-2.6546,-2.6222,-2.5771,-2.5559,-2.5781,0.0,0.0,0.0,0.0,0.0,0.0,0.0,0.0,0.0,0.0,0.0,0.0,0.0,0.0,0.0,0.0,0.0,0.0,0.0,0.0,0.0,0.0,0.0,0.0,0.0,0.0,0.0,0.0,0.0,0.0,0.0,0.0,0.0,0.0,0.0,0.0,0.0,0.0,0.0,0.0,0.0,0.0,-1.1073,0.0,0.0,0.0,0.0,0.0,0.0,0.0,0.0,0.0,0.0,-2.0917,-2.113,-2.1494,-2.2024,-2.2609,-2.3039,-2.3679,-2.4386,-2.5016,-2.5254,-2.5505,-2.6333,-2.6452,-2.6697,-2.7453,-2.7335,-2.7126,0.0,0.0,0.0,-3.1508,-3.3554,0.0,-3.7107,-3.7002,0.0,-3.6661,0.0,-3.611,-3.4953,-3.5097,0.0,0.0,-3.6246,-3.7516,-3.7385,-3.6615,-3.5853,-3.5253,-3.4107,-3.3193,-3.249,-3.1175,-3.0377,-3.0143,-2.9036,-2.8445,-2.8445,-2.8445,-2.8392,-2.8295,-2.8295,-2.7897,-2.7309,-2.7309,-2.6955,-2.6418,-2.6418,-2.6151,-2.5771,-2.5657,-2.537,-2.5055,0.0,0.0,0.0,0.0,0.0,0.0,0.0,0.0,0.0,0.0,0.0,0.0,0.0,0.0,0.0,0.0,0.0,0.0,0.0,0.0,0.0,0.0,0.0,0.0,0.0,0.0,0.0,0.0,0.0,0.0,0.0,0.0,0.0,0.0,0.0,0.0,0.0,0.0,0.0,0.0,0.0,0.0,0.0,0.0,0.0,0.0,0.0,0.0,0.0,0.0,0.0,-1.8917,-2.0047,-2.0805,-2.133,-2.1673,0.0,-2.2475,-2.2852,-2.3395,-2.3959,-2.4395,-2.4622,-2.483,-2.5141,-2.554,-2.5824,-2.5763,-2.5564,0.0,-2.5446,-2.6693,0.0,0.0,0.0,0.0,-3.4984,-3.5082,-3.5065,0.0,-3.566,0.0,-3.4201,-3.4041,-3.3776,0.0,-3.4672,-3.5407,-3.5201,-3.4411,-3.3781,-3.3325,-3.2303,-3.1379,-3.0551,-2.9217,-2.8505,-2.8505,-2.7768,-2.7384,-2.7384,-2.7384,-2.7384,-2.7384,0.0,-2.7037,-2.6491,-2.6324,-2.5798,-2.5151,-2.4978,-2.4659,-2.4254,-2.4254,-2.3958,-2.3411,0.0,0.0,0.0,0.0,0.0,0.0,0.0,0.0,0.0,0.0,0.0,0.0,0.0,0.0,0.0,0.0,0.0,0.0,0.0,0.0,0.0,0.0,0.0,0.0,0.0,0.0,0.0,0.0,0.0,0.0,0.0,0.0,0.0,0.0,0.0,0.0,0.0,0.0,0.0,0.0,0.0,0.0,0.0,0.0,0.0,0.0,0.0,0.0,0.0,0.0,-1.7523,-1.8684,-1.9155,-2.0122,-2.1155,-2.1496,-2.17,-2.2053,-2.2826,-2.3338,-2.3719,-2.4219,-2.4568,-2.4676,-2.4095,-2.4582,-2.4915,-2.4109,0.0,-2.4676,-2.4684,-2.5369,-2.6243,-2.7424,0.0,-2.9891,-3.2758,-3.313,-3.3587,-3.4962,-3.535,-3.5257,-3.4527,-3.3655,-3.3169,-3.3169,-3.2805,-3.255,-3.2317,-3.191,-3.1437,-3.0846,-3.0597,-2.9829,-2.8521,-2.7729,-2.7279,-2.7222,-2.7124,-2.707,-2.707,-2.707,-2.707,-2.707,-2.6896,-2.6435,-2.5701,-2.5156,-2.435,-2.3343,-2.2978,-2.263,-2.2392,-2.2392,-2.203,-2.1573,0.0,0.0,0.0,0.0,0.0,0.0,0.0,0.0,0.0,0.0,-0.4216,0.0,0.0,0.0,0.0,0.0,0.0,0.0,0.0,0.0,0.0,0.0,0.0,0.0,0.0,0.0,0.0,0.0,0.0,0.0,0.0,0.0,0.0,0.0,0.0,0.0,0.0,0.0,0.0,0.0,0.0,0.0,0.0,0.0,0.0,0.0,0.0,0.0,0.0,0.0,-1.6191,-1.7833,-1.881,-1.9833,-2.0734,-2.0789,-2.1772,-2.282,-2.2723,-2.316,-2.3551,-2.3402,-2.338,-2.3432,-2.3305,-2.3376,0.0,0.0,-2.3864,-2.411,-2.3928,-2.5001,-2.6243,-2.7424,-2.8511,-2.9948,-3.2049,-3.204,-3.213,0.0,0.0,0.0,0.0,0.0,0.0,0.0,-3.0319,-3.0522,-3.1838,-3.1475,-3.0676,-2.956,-2.9447,-2.8984,-2.8096,-2.728,-2.6645,-2.63,-2.5624,-2.5247,-2.5247,-2.5247,-2.5247,-2.5229,-2.4407,0.0,-2.3712,-2.2618,-2.2051,-2.176,-2.1406,-2.1229,-2.1173,-2.1173,-2.1121,-2.1019,0.0,0.0,0.0,0.0,0.0,0.0,0.0,0.0,0.0,-0.4222,-0.4279,-0.4324,0.0,0.0,0.0,0.0,0.0,0.0,0.0,0.0,0.0,0.0,0.0,0.0,0.0,0.0,0.0,0.0,0.0,0.0,0.0,0.0,0.0,0.0,0.0,0.0,0.0,0.0,0.0,0.0,0.0,0.0,0.0,0.0,0.0,0.0,0.0,0.0,0.0,0.0,-1.5584,-1.6763,-1.8179,-1.9468,-2.0638,-2.1215,-2.1929,-2.2673,-2.325,-2.361,-2.3808,-2.3654,-2.3486,-2.3168,-2.2543,0.0,0.0,0.0,-2.2624,-2.3332,-2.3011,-2.4242,0.0,-2.6585,-2.7535,-2.8802,-3.0703,0.0,0.0,0.0,0.0,0.0,0.0,0.0,-3.0155,-3.0155,-2.8928,-2.8781,-3.0148,-2.9438,-2.8628,-2.7836,-2.7413,-2.7125,-2.6906,-2.5821,-2.5134,-2.4953,-2.4184,-2.3865,-2.3865,-2.3865,-2.3865,-2.384,-2.3194,0.0,-2.281,-2.1879,-2.1486,-2.1401,-2.106,-2.0925,-2.0925,-2.0925,-2.0712,-2.0498,0.0,0.0,0.0,0.0,0.0,0.0,0.0,-0.3994,-0.4063,-0.4302,-0.4344,-0.441,-0.4467,-0.4659,-0.4774,0.0,0.0,0.0,0.0,0.0,0.0,0.0,0.0,0.0,0.0,0.0,0.0,0.0,0.0,0.0,0.0,0.0,0.0,0.0,0.0,0.0,0.0,0.0,0.0,0.0,0.0,0.0,0.0,0.0,0.0,0.0,0.0,0.0,0.0,0.0,-1.5045,-1.5866,-1.7138,-1.8679,-2.0215,-2.107,-2.1818,-2.2569,-2.3464,-2.405,-2.4254,-2.4123,-2.3837,-2.3259,-2.1986,-2.1985,0.0,0.0,-2.1357,-2.2327,-2.2029,-2.326,-2.4531,0.0,-2.626,-2.7458,0.0,0.0,0.0,0.0,0.0,0.0,0.0,0.0,0.0,-2.937,-2.7723,-2.7154,-2.8064,-2.7157,-2.6447,-2.6075,-2.5484,-2.519,-2.5401,-2.4374,-2.3762,-2.3689,-2.3239,-2.3014,-2.3014,-2.3014,-2.3014,-2.299,-2.2451,0.0,0.0,-2.1382,-2.1055,-2.1086,-2.069,-2.0565,-2.0565,-2.0565,-2.03,-1.9931,0.0,0.0,0.0,0.0,0.0,0.0,0.0,-0.3994,-0.4087,-0.4344,-0.4384,-0.4481,-0.4722,-0.477,-0.4847,0.0,0.0,0.0,0.0,0.0,0.0,0.0,0.0,0.0,0.0,0.0,0.0,0.0,0.0,0.0,0.0,0.0,0.0,0.0,0.0,0.0,0.0,0.0,0.0,0.0,0.0,0.0,0.0,0.0,0.0,0.0,0.0,0.0,0.0,0.0,0.0,-1.5359,-1.5284,-1.7009,-1.9025,-1.8899,0.0,0.0,-2.2706,-2.3774,-2.4892,-2.4232,-2.3837,-2.3259,-2.1986,0.0,0.0,-2.0264,-2.0541,-2.0913,-2.1036,-2.1835,-2.3004,0.0,0.0,-2.6551,0.0,0.0,0.0,0.0,0.0,0.0,0.0,0.0,0.0,-2.759,-2.6215,-2.559,-2.5951,-2.5269,-2.4791,-2.4759,-2.4383,-2.4098,-2.3801,-2.3679,-2.3438,-2.307,-2.3014,-2.3014,-2.3014,-2.3014,-2.3014,-2.2918,-2.1751,0.0,0.0,-2.0128,-1.9702,-1.9938,-1.956,-1.9435,-1.9435,-1.9435,-1.9435,-1.9376,0.0,0.0,0.0,0.0,0.0,0.0,0.0,-0.3994,-0.4107,-0.4475,-0.4518,-0.462,-0.4888,-0.4965,-0.5028,0.0,0.0,0.0,0.0,0.0,0.0,0.0,0.0,0.0,0.0,0.0,0.0,0.0,0.0,0.0,0.0,0.0,0.0,0.0,0.0,0.0,0.0,0.0,0.0,0.0,0.0,0.0,0.0,0.0,0.0,0.0,0.0,0.0,0.0,0.0,0.0,0.0,-1.4365,-1.5775,0.0,0.0,-1.9776,-2.1123,-2.1777,-2.2587,-2.322,-2.2795,-2.2459,-2.2125,-2.1201,0.0,-2.0424,-1.9769,-1.9993,-2.0358,-2.0418,-2.0984,-2.1699,0.0,0.0,0.0,0.0,0.0,0.0,0.0,0.0,0.0,0.0,0.0,-2.7104,-2.5194,-2.4533,-2.4024,-2.3604,-2.3857,-2.4002,-2.4002,-2.361,-2.3516,-2.358,-2.298,-2.2637,-2.2449,-2.2108,-2.1945,-2.1945,-2.1945,-2.1832,-2.1556,-2.0868,0.0,0.0,-1.8858,-1.8282,-1.7902,-1.7787,-1.774,-1.774,-1.774,-1.774,-1.774,0.0,0.0,0.0,0.0,0.0,-0.3866,-0.3966,-0.4017,-0.4206,-0.4565,-0.4589,-0.4734,-0.4979,-0.5045,-0.509,-0.5143,0.0,0.0,0.0,0.0,0.0,0.0,0.0,0.0,0.0,0.0,0.0,-0.4457,0.0,0.0,0.0,0.0,0.0,0.0,0.0,0.0,0.0,0.0,0.0,0.0,0.0,0.0,0.0,0.0,0.0,0.0,0.0,0.0,0.0,0.0,0.0,0.0,0.0,0.0,0.0,0.0,-1.8652,-1.9751,-2.0718,-2.1534,-2.209,-2.1798,-2.1489,-2.1042,0.0,0.0,-1.9448,-1.8998,-1.9205,-1.9561,-1.9828,-2.03,-2.0778,0.0,0.0,-2.2497,0.0,0.0,0.0,0.0,0.0,-2.7928,0.0,-2.6913,-2.5466,-2.3467,-2.296,-2.2465,-2.168,-2.192,-2.2359,-2.3003,-2.2684,-2.2622,-2.2912,-2.1937,-2.1425,-2.1425,-2.073,-2.0385,-2.0385,-2.0294,-2.0132,-1.99,-1.9491,0.0,0.0,-1.7742,-1.7252,-1.6677,-1.6677,-1.6677,-1.6677,-1.6677,-1.6677,-1.6677,0.0,0.0,0.0,0.0,0.0,0.0,0.0,-0.4112,-0.43,-0.4661,-0.4628,-0.4708,-0.5067,-0.5026,-0.5047,-0.5172,0.0,0.0,0.0,0.0,0.0,0.0,0.0,0.0,0.0,0.0,0.0,-0.4971,-0.4831,-0.4623,0.0,0.0,0.0,0.0,0.0,0.0,0.0,0.0,0.0,0.0,0.0,0.0,0.0,0.0,0.0,0.0,0.0,0.0,0.0,0.0,0.0,0.0,0.0,0.0,0.0,0.0,-1.7848,-1.9844,-1.9515,-2.076,-2.2147,-2.1791,-2.1171,-2.0336,0.0,-1.8587,-1.8015,-1.8015,-1.8035,-1.8304,-1.9168,-1.9732,-2.0245,-2.0657,0.0,0.0,-2.4015,0.0,0.0,0.0,0.0,-2.6619,-2.5832,-2.4742,-2.3684,-2.2696,-2.1476,0.0,-2.0319,-1.9128,-1.9466,-2.1628,-2.1379,-2.1211,-2.1211,-2.0284,-1.9815,-1.9809,-1.8861,-1.8448,-1.8435,-1.8161,-1.8039,-1.8001,0.0,0.0,0.0,-1.6851,-1.673,-1.6677,-1.6677,-1.6677,-1.6677,-1.6677,-1.6677,-1.6677,0.0,0.0,0.0,0.0,0.0,0.0,0.0,-0.4073,-0.4345,-0.4727,-0.489,-0.5072,-0.541,-0.5577,-0.5721,-0.5734,0.0,0.0,0.0,0.0,0.0,0.0,0.0,0.0,0.0,0.0,-0.6621,-0.6662,-0.6654,-0.6653,-0.6703,-0.6649,-0.6572,0.0,0.0,0.0,0.0,0.0,0.0,0.0,0.0,0.0,0.0,0.0,0.0,0.0,0.0,0.0,0.0,0.0,0.0,0.0,0.0,0.0,0.0,0.0,0.0,0.0,-1.7723,-1.8305,-1.8827,-1.8564,-1.8384,-1.8135,-1.7709,-1.7584,-1.7556,-1.7423,-1.7482,-1.7666,-1.7945,-1.8156,-1.8426,-1.8944,-1.9149,0.0,0.0,0.0,0.0,-2.2323,-2.3176,-2.3516,0.0,0.0,-2.1525,-2.0646,-2.0007,-1.9513,-1.9018,-1.8609,-1.8726,-1.9407,-1.9321,-1.9274,-1.9274,-1.8978,-1.8861,-1.8861,-1.8372,-1.811,-1.8097,-1.7886,-1.765,0.0,0.0,0.0,0.0,-1.5916,-1.5512,-1.4987,-1.4987,-1.4987,-1.4987,-1.4987,-1.4987,-1.4987,0.0,0.0,0.0,0.0,0.0,0.0,0.0,-0.4295,-0.4641,-0.4928,-0.5172,-0.5397,-0.5739,-0.6287,-0.6669,-0.681,0.0,0.0,0.0,0.0,0.0,0.0,0.0,0.0,0.0,-0.711,-0.7428,-0.7376,-0.7565,-0.7727,-0.7856,-0.7861,-0.7922,-0.8016,-0.8094,0.0,0.0,0.0,0.0,0.0,0.0,0.0,-1.1896,0.0,0.0,0.0,0.0,0.0,0.0,0.0,0.0,0.0,0.0,0.0,0.0,0.0,-1.5731,0.0,0.0,-1.6985,-1.72,-1.7044,-1.6915,0.0,0.0,-1.657,-1.663,-1.6753,-1.6882,-1.7049,-1.7321,-1.7377,-1.749,-1.7913,-1.7906,0.0,0.0,0.0,0.0,-2.0551,0.0,0.0,0.0,-2.0914,-2.0323,-1.9637,-1.8932,-1.834,-1.7889,-1.7519,-1.7343,-1.7343,-1.804,-1.8339,-1.8237,-1.789,-1.766,-1.7613,-1.7104,-1.6804,-1.6792,-1.659,-1.6385,0.0,0.0,0.0,0.0,-1.4761,-1.4504,-1.4196,-1.3975,-1.3975,-1.4196,-1.4196,-1.4196,-1.4196,0.0,0.0,0.0,0.0,0.0,0.0,0.0,0.0,0.0,-0.5465,-0.5686,-0.5954,-0.6223,-0.7197,-0.7987,0.0,0.0,0.0,0.0,0.0,0.0,0.0,0.0,0.0,0.0,-0.7633,-0.7699,-0.7648,-0.7887,-0.8034,-0.818,-0.8112,-0.8183,-0.8416,-0.8933,0.0,0.0,0.0,0.0,0.0,-1.1607,-1.2014,0.0,0.0,0.0,0.0,0.0,0.0,0.0,0.0,0.0,0.0,0.0,0.0,0.0,0.0,0.0,0.0,0.0,0.0,0.0,0.0,0.0,0.0,0.0,-1.5564,0.0,-1.601,-1.615,-1.6393,-1.7104,-1.7266,-1.7279,-1.7297,-1.756,-1.7823,0.0,-1.888,0.0,0.0,-2.0566,0.0,-2.0589,-2.0217,-1.984,-1.9424,-1.8167,-1.7273,-1.6891,-1.6065,-1.5591,-1.5575,-1.7255,-1.8006,-1.7812,-1.6936,-1.6405,-1.6216,-1.5254,-1.4802,-1.4791,-1.4505,-1.4343,0.0,0.0,0.0,0.0,-1.3483,-1.3591,-1.4083,-1.3478,-1.3591,-1.4083,-1.4083,-1.4083,-1.3975,0.0,0.0,0.0,0.0,0.0,0.0,0.0,0.0,0.0,0.0,-0.7821,-0.821,-0.8707,-0.92,-0.959,0.0,0.0,0.0,0.0,0.0,0.0,0.0,0.0,0.0,0.0,-0.9989,-1.019,-1.0139,-0.9819,-0.9689,-0.9838,-0.9804,-0.9927,-1.0131,-1.0077,0.0,0.0,0.0,0.0,0.0,-1.2265,-1.27,0.0,0.0,0.0,0.0,-1.4033,-1.4275,0.0,0.0,0.0,0.0,0.0,0.0,0.0,0.0,-1.5155,-1.5155,-1.5639,0.0,-1.593,-1.593,-1.5849,-1.5655,0.0,-1.5332,-1.5455,-1.5256,0.0,0.0,-1.601,-1.6004,-1.6066,-1.6315,-1.6236,-1.6304,-1.6691,0.0,0.0,-1.8619,-1.8843,-1.8804,-1.8491,-1.8182,-1.7883,-1.7444,-1.677,-1.62,-1.5963,-1.5715,-1.5515,-1.5279,-1.5322,-1.5522,-1.5877,-1.5515,-1.5274,-1.5214,-1.4361,-1.3998,-1.3938,-1.3212,-1.2895,0.0,0.0,0.0,-1.3478,-1.2876,-1.2985,-1.3428,-1.2822,-1.2713,-1.2822,-1.2822,-1.2822,-1.2822,0.0,0.0,0.0,0.0,0.0,0.0,0.0,0.0,0.0,0.0,0.0,0.0,0.0,0.0,0.0,0.0,0.0,0.0,0.0,0.0,0.0,0.0,0.0,0.0,-1.1077,-1.1379,-1.1449,-1.1211,-1.1132,-1.112,-1.1172,-1.1263,-1.1407,-1.1632,-1.1389,-1.1518,-1.1841,-1.2226,-1.2612,-1.3037,-1.2865,0.0,0.0,0.0,0.0,0.0,-1.4196,-1.4272,0.0,-1.4239,-1.4277,-1.4379,0.0,0.0,0.0,0.0,-1.5144,-1.5246,-1.5397,-1.5515,-1.5601,-1.5601,-1.5515,-1.537,-1.5112,0.0,0.0,0.0,0.0,0.0,0.0,0.0,-1.5639,-1.5768,-1.5768,0.0,0.0,0.0,-1.7426,-1.8024,-1.8008,-1.7889,0.0,-1.7217,-1.6829,-1.6736,-1.6118,-1.5568,-1.5098,-1.5023,-1.4801,-1.4227,-1.3886,-1.3945,-1.4525,-1.4107,-1.3877,-1.3775,-1.3322,-1.3102,-1.3102,-1.2602,-1.2387,0.0,0.0,0.0,-1.2822,-1.2278,-1.2387,-1.2827,-1.2278,-1.2164,-1.2387,-1.2387,-1.2387,-1.2387,0.0,0.0,0.0,0.0,0.0,0.0,0.0,0.0,0.0,0.0,0.0,0.0,0.0,0.0,0.0,0.0,0.0,0.0,0.0,0.0,0.0,0.0,0.0,-1.2166,-1.2132,-1.2317,-1.214,-1.1743,-1.203,-1.2167,-1.2167,-1.2297,-1.2476,-1.2631,-1.2605,-1.2597,-1.2593,-1.2673,-1.3024,-1.352,-1.3454,0.0,0.0,0.0,0.0,0.0,0.0,0.0,0.0,-1.4196,-1.4196,-1.4196,-1.4196,0.0,0.0,0.0,0.0,0.0,-1.5226,-1.5424,-1.5591,-1.5553,-1.5397,-1.5194,0.0,0.0,0.0,0.0,0.0,0.0,0.0,-1.5628,0.0,0.0,0.0,0.0,-1.7308,-1.7249,-1.734,-1.7959,-1.768,0.0,-1.7465,-1.6663,-1.6243,-1.6345,-1.5642,-1.4985,-1.4263,-1.4222,-1.3871,-1.3079,-1.2782,-1.2896,-1.3372,-1.2979,-1.2611,-1.2387,-1.2332,-1.2278,-1.2273,-1.2164,-1.2164,-1.2164,0.0,0.0,-1.2223,-1.1678,-1.1787,-1.2223,-1.1509,-1.1564,-1.1941,-1.1778,-1.1723,-1.1669,0.0,0.0,0.0,0.0,0.0,0.0,0.0,0.0,0.0,0.0,0.0,0.0,0.0,0.0,0.0,0.0,0.0,0.0,0.0,0.0,0.0,0.0,-1.3615,-1.3414,-1.3275,-1.3158,-1.3026,-1.2765,-1.2486,-1.2335,-1.2335,-1.2368,-1.2401,-1.2493,-1.3192,-1.3482,-1.3523,-1.3782,-1.4198,-1.4628,-1.4238,0.0,0.0,0.0,0.0,0.0,0.0,0.0,0.0,-1.4196,-1.4196,-1.4196,-1.4196,0.0,0.0,0.0,0.0,0.0,-1.5092,-1.5424,-1.5553,-1.5295,-1.522,-1.5194,-1.5194,0.0,0.0,0.0,0.0,0.0,0.0,-1.5763,-1.5958,0.0,0.0,-1.7033,0.0,0.0,-1.7653,-1.776,0.0,-1.7323,-1.6367,-1.5964,-1.5456,-1.4746,-1.4075,-1.3693,-1.3542,-1.338,-1.3188,-1.2856,-1.2311,-1.1993,-1.1941,-1.227,-1.2415,-1.2382,-1.1951,-1.1732,-1.1732,-1.1185,-1.0966,-1.0966,0.0,-1.1236,-1.1678,-1.1076,-1.1185,-1.1564,-1.0241,-0.9801,-0.9743,-0.8968,-0.8692,-0.8689,0.0,0.0,0.0,0.0,0.0,0.0,0.0,0.0,0.0,0.0,0.0,0.0,0.0,0.0,0.0,0.0,0.0,0.0,0.0,0.0,0.0,-1.4196,-1.3954,-1.3771,-1.3663,-1.3493,-1.3378,-1.3268,-1.3063,-1.3065,-1.3186,-1.343,-1.3674,-1.3907,-1.4224,-1.4326,-1.4367,-1.4366,-1.4503,-1.4676,0.0,0.0,0.0,0.0,0.0,0.0,0.0,0.0,0.0,0.0,-1.3992,-1.3992,-1.3992,0.0,0.0,0.0,0.0,0.0,-1.4781,-1.5036,-1.5219,-1.5183,-1.544,-1.5591,-1.5467,0.0,0.0,0.0,0.0,0.0,0.0,0.0,-1.6269,-1.672,0.0,-1.7125,-1.7486,-1.7313,-1.7195,0.0,0.0,-1.6984,-1.6558,-1.5905,-1.5089,-1.4168,0.0,0.0,-1.1267,-1.1102,-1.0815,-1.0243,-0.9957,-0.9758,-0.9633,-0.9904,-1.0511,-1.1459,-1.124,-1.0852,-1.041,-1.0135,-0.975,-0.9251,0.0,-0.9412,-0.9633,-0.9357,-0.9412,-0.9578,-0.8916,-0.864,-0.8585,-0.814,-0.7987,-0.7938,0.0,0.0,0.0,0.0,0.0,0.0,0.0,0.0,0.0,0.0,0.0,0.0,0.0,0.0,0.0,0.0,0.0,0.0,0.0,0.0,-1.4132,-1.4191,-1.39,-1.3739,-1.3739,-1.3572,-1.3448,-1.3394,-1.3448,-1.3593,-1.383,-1.4369,-1.4756,-1.4941,-1.4918,-1.4853,-1.4789,-1.4552,-1.4487,-1.448,0.0,0.0,0.0,0.0,0.0,0.0,0.0,0.0,0.0,0.0,0.0,0.0,0.0,0.0,0.0,-1.4455,-1.4541,-1.4616,-1.4552,-1.4441,-1.4447,-1.463,0.0,-1.572,-1.5811,0.0,0.0,0.0,0.0,0.0,0.0,-1.5207,0.0,-1.6252,-1.6247,-1.6176,-1.6476,-1.6165,-1.5912,-1.5939,-1.5787,-1.5563,-1.553,-1.4643,-1.3768,0.0,0.0,0.0,-0.9242,-0.9071,-0.8696,-0.8033,-0.7974,-0.7974,-0.7974,-0.7974,-0.8696,-1.008,-1.008,-0.9695,-0.9085,-0.9085,-0.8696,-0.7974,-0.7974,-0.7974,-0.7974,-0.7974,-0.7974,-0.7974,-0.7756,-0.759,-0.7368,-0.7368,-0.7367,-0.7305,0.0,0.0,0.0,0.0,0.0,0.0,0.0,0.0,0.0,0.0,0.0,0.0,0.0,0.0,0.0,0.0,0.0,0.0,0.0,0.0,-1.3949,-1.4186,-1.375,-1.3502,-1.3502,-1.3486,-1.3362,-1.313,-1.3362,-1.3593,-1.3836,-1.453,-1.4649,-1.4288,-1.4697,-1.4762,-1.4546,-1.4315,-1.4342,-1.448,-1.448,0.0,0.0,0.0,0.0,0.0,0.0,0.0,0.0,0.0,0.0,0.0,0.0,0.0,-1.4218,-1.4218,-1.4062,-1.3986,-1.4362,-1.376,-1.299,-1.3112,-1.3877,0.0,-1.6291,-1.5028,0.0,0.0,0.0,0.0,0.0,-1.2399,-1.2771,-1.3221,-1.3419,-1.352,-1.3772,0.0,-1.3307,-1.2964,-1.26,-1.2081,-1.1135,-1.0784,-1.0287,0.0,0.0,0.0,-0.8497,-0.8245,-0.8039,-0.8029,-0.7974,-0.7974,-0.7974,-0.7974,-0.8085,-0.8195,-0.8195,-0.814,-0.8085,-0.8085,-0.8085,-0.7974,-0.7974,-0.7974,-0.7974,-0.7974,-0.7974,-0.7919,-0.7099,-0.6325,-0.5603,-0.5603,-0.5599,-0.5594,0.0,0.0,0.0,0.0,0.0,0.0,0.0,0.0,0.0,0.0,0.0,0.0,0.0,0.0,0.0,0.0,0.0,0.0,0.0,0.0,-1.3647,-1.3744,-1.3427,-1.3243,-1.3243,-1.3104,-1.3055,-1.3104,-1.3357,-1.375,-1.4217,-1.4541,-1.4735,-1.4802,-1.5036,-1.4977,-1.4745,-1.4659,-1.4676,-1.4751,-1.4751,-1.4611,0.0,0.0,0.0,0.0,0.0,0.0,0.0,0.0,-1.183,-1.226,0.0,-1.1674,-1.178,-1.178,-1.1725,-1.1645,-1.185,-1.1728,-1.1612,-1.1836,0.0,0.0,0.0,0.0,0.0,0.0,0.0,0.0,0.0,0.0,-1.2947,-1.3141,-1.3116,-1.3014,-1.2962,-1.27,-1.2378,-1.203,-1.1892,-1.1645,-1.1228,-1.0488,-0.97,0.0,0.0,0.0,-0.6652,-0.6456,-0.6376,-0.6376,-0.6376,-0.6376,-0.6376,-0.6376,-0.6376,-0.6376,-0.7479,-0.77,-0.7207,-0.7207,-0.6874,-0.6376,-0.6376,-0.6376,-0.6376,-0.6376,-0.6376,-0.6376,-0.6047,-0.5717,-0.5382,-0.5382,-0.5345,-0.5304,0.0,0.0,0.0,0.0,0.0,0.0,0.0,0.0,0.0,0.0,0.0,0.0,0.0,0.0,0.0,0.0,0.0,0.0,0.0,-1.3769,-1.3801,-1.3828,-1.3389,-1.3141,-1.3217,-1.297,-1.2889,-1.2996,-1.3238,-1.3647,-1.4207,-1.4373,-1.4652,-1.4968,-1.5043,-1.4999,-1.4767,-1.4697,-1.4665,-1.4681,-1.4826,-1.4468,0.0,0.0,0.0,0.0,0.0,0.0,0.0,0.0,-1.0479,0.0,0.0,0.0,0.0,0.0,-1.0248,-1.026,-1.0314,-1.0224,-1.0172,0.0,0.0,0.0,0.0,0.0,0.0,0.0,0.0,0.0,0.0,0.0,0.0,0.0,-1.1407,-1.1215,-1.0989,-1.0768,-1.0478,-1.01,-1.0031,-0.9965,-0.98,-0.9103,0.0,0.0,0.0,0.0,0.0,-0.5429,-0.5382,-0.5382,-0.5382,-0.5382,-0.5382,-0.5382,-0.5382,-0.5437,-0.6599,-0.6874,-0.627,-0.627,-0.5938,-0.5382,-0.5382,-0.5382,-0.5382,-0.5382,-0.5365,-0.5339,-0.5339,-0.532,-0.5298,-0.5328,-0.5298,-0.5202,0.0,0.0,0.0,0.0,0.0,0.0,0.0,0.0,0.0,0.0,0.0,0.0,0.0,0.0,0.0,0.0,0.0,0.0,-1.536,-1.4734,-1.4401,-1.4615,-1.3629,-1.3217,-1.347,-1.3056,-1.2813,-1.2813,-1.299,-1.3233,-1.3491,-1.4202,-1.4475,-1.4486,-1.4778,-1.4751,-1.4453,-1.4288,-1.4196,-1.4234,-1.4692,-1.3917,-1.2465,0.0,0.0,0.0,0.0,0.0,0.0,0.0,-0.9969,-1.0002,0.0,0.0,0.0,0.0,-1.0192,-1.012,-1.04,-0.954,-0.8622,0.0,0.0,0.0,0.0,0.0,0.0,0.0,0.0,0.0,0.0,0.0,0.0,-0.7727,-0.7585,-0.7486,-0.7381,-0.7367,-0.7196,-0.6772,-0.6611,-0.6426,-0.6051,-0.5886,0.0,0.0,0.0,0.0,0.0,-0.5426,-0.5382,-0.5382,-0.5382,-0.5382,-0.5382,-0.538,-0.538,-0.538,-0.538,-0.538,-0.538,-0.538,-0.538,-0.538,-0.538,-0.538,-0.5382,-0.538,-0.5326,-0.5188,-0.5188,-0.5134,-0.512,-0.5156,-0.519,-0.5202,0.0,0.0,0.0,0.0,0.0,0.0,0.0,0.0,0.0,0.0,0.0,0.0,0.0,0.0,0.0,0.0,0.0,0.0,0.0,-1.5966,-1.5575,-1.4905,-1.4431,-1.3854,-1.3215,-1.3089,-1.2926,-1.2813,-1.2878,-1.3126,-1.3491,-1.404,-1.4202,-1.4003,-1.4627,-1.4476,-1.3809,-1.4078,-1.4196,-1.4218,-1.4519,-1.3825,-1.2603,0.0,0.0,0.0,0.0,0.0,0.0,0.0,0.0,0.0,0.0,0.0,0.0,-0.761,-0.7572,-0.7634,-0.7626,-0.7631,0.0,-0.7697,0.0,0.0,0.0,0.0,0.0,0.0,0.0,0.0,0.0,0.0,0.0,-0.7311,-0.7086,-0.6904,-0.6939,-0.6675,-0.6447,-0.6229,-0.6137,-0.6054,-0.5867,0.0,0.0,0.0,0.0,0.0,0.0,-0.5396,-0.5382,-0.5382,-0.5382,-0.5382,-0.5382,-0.5316,-0.5286,-0.5284,-0.522,-0.5222,-0.5286,-0.5286,-0.5286,-0.5282,-0.5218,-0.5263,-0.5375,-0.5312,-0.523,-0.5149,-0.5149,-0.5132,-0.512,-0.5156,-0.519,-0.5202,0.0,0.0,0.0,0.0,0.0,0.0,0.0,0.0,0.0,0.0,0.0,0.0,0.0,0.0,0.0,0.0,0.0,0.0,0.0,0.0,-1.6687,-1.6082,-1.5332,-1.4485,-1.3584,-1.3674,-1.3634,-1.3386,-1.3287,-1.339,-1.3645,-1.423,-1.4377,-1.4162,-1.4696,-1.4559,-1.3942,-1.4135,-1.4219,-1.4233,-1.4516,-1.3583,-1.191,0.0,0.0,0.0,0.0,0.0,0.0,0.0,0.0,0.0,0.0,0.0,0.0,-0.6597,-0.66,-0.6624,-0.6646,-0.6899,0.0,-0.7107,-0.7413,0.0,0.0,0.0,0.0,0.0,0.0,0.0,0.0,-0.7305,0.0,-0.6883,-0.6631,-0.6492,-0.6457,-0.6258,-0.6096,-0.5948,-0.5919,-0.5841,-0.5786,0.0,0.0,0.0,0.0,0.0,0.0,-0.5382,-0.5382,-0.5382,-0.5382,-0.5382,-0.5382,-0.529,-0.519,-0.5188,-0.5153,-0.5118,-0.5137,-0.5173,-0.5136,-0.5132,-0.5132,-0.5171,-0.5269,-0.5212,-0.5137,-0.5053,-0.5053,-0.4769,-0.4335,-0.4445,-0.416,-0.3849,0.0,0.0,0.0,0.0,0.0,0.0,0.0,0.0,0.0,0.0,0.0,0.0,0.0,0.0,0.0,0.0,0.0,0.0,0.0,0.0,-1.7885,-1.7876,-1.6354,-1.5134,-1.4361,-1.4602,-1.4567,-1.435,-1.4095,-1.3913,-1.3919,-1.4615,-1.4794,-1.4527,-1.4817,-1.4788,-1.4504,-1.4282,-1.4168,-1.4217,-1.4581,-1.3088,-1.0714,-1.1061,0.0,0.0,0.0,0.0,0.0,0.0,0.0,0.0,-0.6703,-0.663,-0.646,-0.6659,-0.6654,-0.6632,-0.6853,0.0,0.0,-0.7013,-0.7178,0.0,0.0,0.0,0.0,0.0,0.0,0.0,-0.705,-0.6737,-0.6419,-0.6464,-0.6288,-0.6123,-0.5966,-0.5968,-0.5942,-0.5904,-0.5818,-0.5765,-0.5757,0.0,0.0,0.0,0.0,0.0,0.0,-0.5373,-0.5369,-0.5369,-0.5361,-0.5301,-0.5244,-0.5101,-0.5002,-0.4891,-0.4805,-0.4725,-0.4703,-0.4948,-0.5037,-0.4925,-0.4941,-0.4886,-0.4767,-0.4773,-0.4727,-0.4702,-0.4702,-0.4043,-0.3043,-0.3151,-0.2554,-0.1713,0.0,0.0,0.0,0.0,0.0,0.0,0.0,0.0,0.0,0.0,0.0,0.0,0.0,0.0,0.0,0.0,0.0,0.0,0.0,0.0,-1.954,-1.9067,-1.7197,-1.567,-1.4636,-1.4647,-1.4744,-1.4876,-1.4424,-1.4134,-1.3908,-1.4458,-1.435,-1.3764,0.0,-1.4339,-1.3741,-1.3878,-1.3969,-1.3898,-1.3412,-1.213,-1.0485,-0.9958,-0.8455,0.0,0.0,0.0,0.0,0.0,0.0,0.0,-0.6478,-0.6611,-0.6646,-0.6253,-0.6429,-0.6669,-0.6242,-0.6516,0.0,0.0,-0.6984,0.0,0.0,0.0,0.0,0.0,0.0,-0.6771,-0.669,-0.6365,-0.6069,-0.5983,-0.5976,-0.5916,-0.5695,-0.5794,-0.5886,-0.5661,-0.5625,-0.5645,0.0,0.0,0.0,0.0,0.0,0.0,-0.5382,-0.5312,-0.5219,-0.5219,-0.5204,-0.4736,-0.3929,-0.3806,-0.3352,0.0,-0.2366,-0.2341,-0.2384,-0.4185,-0.4497,-0.3625,-0.3783,-0.3299,-0.2349,-0.2432,-0.237,-0.2332,-0.2332,-0.2193,-0.1959,-0.2004,-0.1876,-0.1687,0.0,0.0,0.0,0.0,0.0,0.0,0.0,0.0,0.0,0.0,0.0,0.0,0.0,0.0,0.0,0.0,0.0,0.0,0.0,0.0,0.0,-1.8829,-1.7974,-1.6757,-1.5134,-1.5206,-1.5276,-1.5229,-1.5129,0.0,0.0,0.0,0.0,-1.4263,0.0,-1.4556,-1.4064,-1.407,-1.4161,-1.425,-1.3812,-1.2425,-1.0638,-1.0207,-0.8611,-0.6619,-0.6619,0.0,0.0,0.0,0.0,0.0,0.0,0.0,-0.6573,-0.6254,-0.6313,-0.6357,-0.6095,0.0,0.0,-0.6631,0.0,0.0,0.0,0.0,0.0,0.0,-0.5988,-0.6294,-0.6245,-0.6075,-0.5892,-0.5796,-0.5784,-0.5693,-0.5598,-0.5667,-0.5691,-0.5596,-0.5546,-0.5559,0.0,0.0,0.0,0.0,0.0,-0.3684,-0.3653,-0.3619,-0.3588,-0.3613,-0.3578,-0.3296,-0.2765,-0.2612,-0.2277,-0.1707,-0.1626,-0.1613,-0.1664,-0.285,-0.305,-0.2422,-0.2521,-0.2207,-0.1614,-0.1629,-0.1626,-0.1613,-0.1613,-0.1268,-0.0819,-0.0887,-0.0531,-0.0054,0.0,0.0,0.0,0.0,0.0,0.0,0.0,0.0,0.0,0.0,0.0,0.0,0.0,0.0,0.0,0.0,0.0,0.0,0.0,0.0,0.0,0.0,-1.8318,-1.7524,-1.5551,-1.571,-1.5716,0.0,0.0,0.0,0.0,0.0,0.0,-1.5107,0.0,-1.4944,-1.4769,-1.4485,-1.4506,-1.474,-1.4484,-1.2926,-1.0883,-1.0638,-0.8886,-0.6589,-0.6589,-0.647,-0.64,-0.6554,0.0,0.0,0.0,0.0,-0.6324,-0.6261,-0.5992,-0.5676,-0.5634,0.0,-0.5633,-0.5733,0.0,0.0,0.0,0.0,0.0,-0.3815,-0.4618,-0.5483,-0.5237,-0.517,-0.5112,-0.5159,-0.504,-0.4986,-0.4959,-0.4978,-0.4986,-0.4959,-0.4908,-0.487,0.0,0.0,0.0,0.0,0.0,-0.1778,-0.1802,-0.1795,-0.1832,-0.1853,-0.1847,-0.1738,-0.158,-0.1453,-0.1339,-0.1133,-0.1066,-0.1059,-0.1059,-0.1059,-0.116,-0.131,-0.131,-0.121,-0.1059,-0.1059,-0.1059,-0.1059,-0.1059,-0.0506,0.0306,0.0362,0.1003,0.1777,0.0,0.0,0.0,0.0,0.0,0.0,0.0,0.0,0.0,0.0,0.0,0.0,0.0,0.0,0.0,0.0,0.0,0.0,-2.0223,0.0,0.0,-1.8163,-1.767,-1.6813,-1.5551,-1.5535,-1.5535,0.0,0.0,0.0,0.0,0.0,0.0,-1.5101,0.0,0.0,-1.504,-1.4775,-1.4785,-1.4931,-1.3774,-1.2289,-1.0678,-0.9511,-0.7982,-0.6411,-0.6411,-0.64,-0.6389,-0.6403,-0.64,0.0,0.0,0.0,-0.5997,-0.577,-0.511,-0.4353,0.0,0.0,-0.26,0.0,0.0,0.0,0.0,0.0,-0.2462,0.0,-0.326,-0.3815,-0.2708,-0.2491,-0.2515,-0.2424,-0.253,-0.2501,-0.2319,-0.2482,-0.2499,-0.2318,-0.2335,0.0,0.0,0.0,0.0,0.0,-0.1903,-0.1778,-0.1802,-0.1721,-0.1692,-0.1714,-0.1689,-0.1218,-0.0254,-0.0253,0.0253,0.1166,0.1163,0.1162,0.1162,0.1162,0.0656,-0.0202,-0.0202,0.0303,0.1162,0.1162,0.1162,0.1162,0.1162,0.1287,0.1534,0.1803,0.2006,0.2174,0.0,0.0,0.0,0.0,0.0,0.0,0.0,0.0,0.0,0.0,0.0,0.0,0.0,0.0,0.0,-2.0189,-1.9955,-1.979,-1.9711,-1.9614,-1.8945,-1.7618,-1.7718,-1.6951,-1.5115,-1.5203,-1.5209,0.0,0.0,0.0,0.0,-1.5759,-1.5819,0.0,0.0,0.0,0.0,0.0,-1.5137,-1.4981,-1.3635,-1.2174,-1.065,-0.9313,-0.7819,-0.6387,-0.6387,-0.6387,-0.6387,-0.6387,-0.6387,-0.6387,-0.6387,0.0,0.0,0.0,-0.3895,0.0,-0.2681,-0.2281,-0.1965,0.0,0.0,0.0,0.0,0.0,-0.1742,-0.1049,-0.1354,-0.178,-0.1947,-0.1933,-0.1909,-0.1922,-0.1914,-0.184,-0.1797,-0.187,-0.1878,-0.1795,-0.1804,0.0,0.0,0.0,0.0,0.0,-0.0168,0.0221,0.0162,0.032,0.0368,0.0153,0.0456,0.0706,0.0908,0.106,0.1262,0.1617,0.1768,0.1819,0.1819,0.1969,0.1615,0.0908,0.0908,0.1262,0.1819,0.1819,0.192,0.207,0.207,0.209,0.2121,0.2301,0.2401,0.2457,0.0,0.0,0.0,0.0,0.0,0.0,0.0,0.0,0.0,0.0,0.0,0.0,0.0,0.0,0.0,0.0,-1.9817,-1.9504,-1.9299,-1.9075,-1.8393,-1.7149,-1.7265,-1.6529,-1.4721,-1.4908,0.0,0.0,0.0,0.0,-1.5602,-1.5728,-1.6115,0.0,-1.6338,0.0,0.0,0.0,0.0,0.0,0.0,-1.2264,-1.0775,-0.938,-0.7852,-0.6389,-0.6422,-0.6414,-0.6387,-0.6387,-0.6387,-0.6337,-0.5984,-0.5181,0.0,0.0,0.0,0.0,0.0,0.0,-0.0986,-0.1054,-0.1005,0.0,0.0,0.0,-0.0628,0.0,0.0496,0.0246,-0.0725,-0.0842,-0.0894,-0.0929,-0.0863,-0.0856,-0.0898,-0.0896,-0.0896,-0.0896,-0.0896,0.0,0.0,0.0,0.0,0.0,0.129,0.1768,0.1707,0.1864,0.1887,0.1619,0.207,0.212,0.1718,0.197,0.202,0.1818,0.202,0.2121,0.2121,0.2321,0.217,0.1818,0.1818,0.1919,0.2121,0.2121,0.2222,0.2422,0.2422,0.2435,0.246,0.2598,0.2648,0.2758,0.0,0.0,0.0,0.0,0.0,0.0,0.0,0.0,0.0,0.0,0.0,0.0,0.0,-2.005,-1.997,-2.035,-2.0032,-1.9683,-1.9504,-1.7851,-1.6921,-1.7095,-1.5683,0.0,-1.4714,-1.4733,0.0,0.0,0.0,0.0,-1.5861,-1.5626,-1.594,-1.6676,-1.6145,-1.5903,-1.5873,0.0,0.0,0.0,0.0,0.0,0.0,0.0,-0.7891,-0.64,-0.6567,-0.6484,-0.6387,-0.6387,-0.6387,-0.6184,-0.488,-0.4277,-0.3773,0.0,0.0,0.0,0.0,0.1533,0.0,0.1702,0.0,0.0,0.0,0.0,0.0,0.189,0.189,0.1935,0.212,0.193,0.168,0.1711,0.1627,0.1601,0.163,0.1626,0.1626,0.1626,0.1626,0.0,0.0,0.0,0.0,0.0,0.1739,0.1768,0.1707,0.1704,0.1677,0.1619,0.187,0.2022,0.1971,0.2221,0.2371,0.2371,0.2371,0.2371,0.2371,0.2371,0.2371,0.2371,0.2371,0.2371,0.2371,0.2371,0.2371,0.2422,0.2422,0.2474,0.2604,0.2873,0.299,0.313,0.0,0.0,0.0,0.0,0.0,0.0,0.0,0.0,0.0,0.0,0.0,0.0,0.0,-2.009,-1.9868,-1.9868,-1.9413,-1.9197,-1.946,-1.8251,-1.7325,-1.6844,-1.59,-1.5107,-1.4449,0.0,0.0,0.0,0.0,-1.4588,-1.5137,-1.5215,-1.5312,-1.5451,-1.5928,-1.6241,-1.638,-1.594,0.0,0.0,0.0,0.0,0.0,0.0,0.0,0.0,0.0,0.0,-0.6554,-0.6554,-0.609,-0.5373,-0.4708,-0.3351,-0.1662,-0.0151,0.0,0.0,0.0,0.0,0.0,0.1861,0.1917,0.201,0.2204,0.2302,0.2384,0.2523,0.2594,0.2665,0.2758,0.2509,0.2367,0.2542,0.2461,0.2438,0.2454,0.2428,0.2356,0.2356,0.2356,0.0,0.0,0.0,0.0,0.0,0.0,0.21,0.2295,0.2237,0.2201,0.2123,0.2524,0.2676,0.2524,0.2422,0.2422,0.2422,0.2573,0.2674,0.2674,0.2826,0.2927,0.2927,0.2927,0.2826,0.2674,0.2674,0.2775,0.2927,0.2927,0.2951,0.2995,0.3172,0.3278,0.3322,0.0,0.0,0.0,0.0,0.0,0.0,0.0,0.0,0.0,0.0,0.0,0.0,0.0,0.0,-2.0099,-2.0092,-1.9668,-1.9594,-1.9965,-1.8663,-1.7603,-1.6928,-1.5981,-1.5101,-1.4437,0.0,0.0,0.0,0.0,0.0,0.0,-1.4896,-1.4932,-1.4871,-1.5487,-1.591,0.0,0.0,0.0,-1.5552,0.0,0.0,-1.0643,0.0,0.0,0.0,0.0,0.0,0.0,-0.66,-0.607,-0.5319,-0.4206,-0.2084,0.0,0.0,0.0,0.0,0.1665,0.0,0.0,0.0,0.0,0.2057,0.2339,0.0,0.266,0.2864,0.2952,0.3042,0.3149,0.2961,0.287,0.284,0.2824,0.2804,0.2745,0.2712,0.2693,0.2693,0.2693,0.0,0.0,0.0,0.0,0.0,0.0,0.0,0.2616,0.2558,0.2516,0.2526,0.2876,0.3027,0.2927,0.2775,0.2674,0.2674,0.2826,0.2927,0.2927,0.313,0.318,0.318,0.318,0.3079,0.2927,0.2927,0.3029,0.318,0.318,0.3205,0.3301,0.3383,0.3437,0.3482,0.0,0.0,0.0,0.0,0.0,0.0,0.0,0.0,0.0,0.0,0.0,0.0,0.0,0.0,0.0,-2.1108,-2.0971,-2.088,-2.1051,-1.8964,-1.7569,-1.7311,-1.5616,-1.4708,-1.4714,0.0,0.0,0.0,0.0,0.0,0.0,0.0,-1.4841,-1.5071,-1.4829,-1.4853,-1.5101,0.0,-1.5493,-1.5261,0.0,-1.1363,-1.0818,0.0,0.0,0.0,-0.7016,-0.698,0.0,-0.6573,0.0,0.0,0.0,0.0,0.0,0.0,0.0,0.0,0.0,0.0,0.0,0.0,0.0,0.0,0.237,0.0,0.284,0.2885,0.2991,0.3136,0.3463,0.3516,0.336,0.2901,0.2827,0.2797,0.2768,0.2755,0.2754,0.2754,0.2753,0.0,0.0,0.0,0.0,0.0,0.2692,0.2708,0.2616,0.2609,0.267,0.2828,0.2826,0.2927,0.318,0.318,0.318,0.318,0.318,0.318,0.318,0.318,0.318,0.318,0.318,0.318,0.318,0.318,0.318,0.318,0.3183,0.3305,0.341,0.3414,0.3486,0.3585,0.0,0.0,0.0,0.0,0.0,0.0,0.0,0.0,0.0,0.0,0.0,0.0,0.0,-2.1145,-2.1227,-2.1924,-2.1642,-2.159,-2.1851,-1.9384,-1.7867,-1.7735,-1.5621,-1.4509,-1.4714,0.0,0.0,0.0,0.0,0.0,0.0,0.0,0.0,0.0,-1.466,-1.4642,-1.4539,-1.4817,0.0,-1.451,-1.2438,-1.104,0.0,0.0,0.0,0.0,0.0,-0.6834,-0.697,0.0,-0.6156,-0.4862,0.0,0.0,0.0,0.0,0.0,0.0,0.1617,0.0,0.0,0.0,0.0,0.0,0.0,0.0,0.3103,0.339,0.3505,0.3611,0.3759,0.3797,0.3741,0.3606,0.3595,0.3584,0.3554,0.3514,0.3487,0.3487,0.345,0.0,0.0,0.0,0.0,0.0,0.3106,0.3056,0.3149,0.3067,0.3061,0.308,0.3079,0.313,0.318,0.318,0.318,0.318,0.318,0.318,0.318,0.318,0.318,0.318,0.318,0.318,0.318,0.318,0.318,0.3184,0.3228,0.3318,0.3357,0.3441,0.3493,0.3527,0.0,0.0,0.0,0.0,0.0,0.0,0.0,0.0,0.0,0.0,0.0,0.0,0.0,0.0,-2.2566,-2.3043,-2.2722,-2.2328,-2.2011,-1.9782,-1.8203,-1.7449,-1.5528,-1.46,-1.4871,0.0,0.0,0.0,0.0,0.0,0.0,0.0,0.0,0.0,0.0,0.0,0.0,0.0,0.0,0.0,-1.1896,0.0,0.0,-0.7867,-0.7219,0.0,0.0,0.0,-0.7163,-0.6858,-0.5459,0.0,0.0,0.0,0.0,0.0,0.0,0.0,0.0,0.0,0.0,0.0,0.0,0.0,0.2552,0.2905,0.331,0.0,0.3672,0.3743,0.3837,0.3834,0.3872,0.3921,0.392,0.3912,0.3885,0.3829,0.374,0.3824,0.0,0.0,0.0,0.3646,0.3615,0.359,0.3445,0.3336,0.3417,0.3297,0.318,0.318,0.318,0.318,0.318,0.318,0.318,0.318,0.318,0.318,0.318,0.318,0.318,0.318,0.318,0.318,0.318,0.318,0.318,0.3184,0.3219,0.3315,0.3368,0.3436,0.3492,0.354,0.0,0.0,0.0,0.0,0.0,0.0,0.0,0.0,0.0,0.0,0.0,0.0,0.0,0.0,0.0,0.0,-2.3914,-2.3117,-2.1827,-2.0231,-1.8575,-1.6934,-1.5482,-1.4883,-1.5149,0.0,0.0,0.0,0.0,0.0,0.0,0.0,0.0,0.0,0.0,0.0,0.0,0.0,0.0,-1.2193,-1.1072,-1.0026,0.0,0.0,-0.7357,-0.7396,-0.7065,-0.7157,-0.7339,-0.6643,-0.4643,0.0,0.0,0.0,0.0,0.0,0.1617,0.0,0.0,0.0,0.0,0.0,0.0,0.0,0.2583,0.3009,0.3418,0.0,0.3739,0.3876,0.3997,0.4116,0.4187,0.4248,0.4143,0.4016,0.3863,0.3747,0.373,0.3792,0.3788,0.0,0.3695,0.3683,0.3653,0.3593,0.3575,0.3519,0.3409,0.3293,0.318,0.318,0.318,0.318,0.318,0.318,0.318,0.318,0.318,0.318,0.318,0.3331,0.3381,0.3381,0.3481,0.353,0.353,0.353,0.343,0.3181,0.3195,0.3318,0.3414,0.3427,0.3606,0.3811,-2.2267,0.0,0.0,0.0,0.0,0.0,0.0,0.0,0.0,0.0,0.0,0.0,0.0,0.0,0.0,0.0,-2.4776,-2.388,-2.2268,-2.0826,-1.9153,-1.7194,-1.5764,-1.5155,-1.5421,0.0,0.0,0.0,0.0,0.0,0.0,0.0,0.0,0.0,0.0,0.0,0.0,0.0,0.0,-0.985,-0.9608,0.0,-0.8072,-0.7225,-0.692,-0.6921,-0.6752,-0.6798,-0.6867,-0.6519,-0.4694,-0.2529,0.0,0.0,0.0,0.1619,0.0,0.0,0.0,0.0,0.0,0.0,0.0,0.0,0.2772,0.3086,0.3564,0.0,0.4725,0.5036,0.5927,0.6315,0.6448,0.647,0.5729,0.4899,0.4087,0.3933,0.3857,0.3976,0.3899,0.0,0.3816,0.3707,0.3653,0.3593,0.35,0.3416,0.3343,0.3219,0.318,0.318,0.318,0.318,0.318,0.318,0.318,0.318,0.318,0.318,0.323,0.4083,0.4483,0.4533,0.5379,0.5777,0.5777,0.5777,0.478,0.3189,0.3338,0.3391,0.3424,0.3518,0.4177,0.5046,-2.2637,0.0,0.0,0.0,0.0,0.0,0.0,0.0,0.0,0.0,0.0,0.0,0.0,0.0,0.0,0.0,0.0,0.0,0.0,0.0,-1.8466,-1.6625,-1.562,-1.5234,-1.5493,-1.5366,0.0,0.0,0.0,0.0,0.0,0.0,0.0,0.0,0.0,0.0,0.0,0.0,-0.8718,-0.8226,-0.8764,0.0,-0.7413,-0.6907,-0.6746,-0.6787,-0.6662,-0.6619,-0.6586,-0.6605,-0.4775,0.0,0.0,-0.046,0.1637,0.0,0.1617,0.1617,0.0,0.0,0.0,0.1992,0.0,0.0,0.0,0.3501,0.4201,0.4803,0.5361,0.5929,0.6511,0.6716,0.689,0.712,0.6635,0.613,0.5863,0.4735,0.3927,0.3923,0.3942,0.0,0.388,0.3818,0.3685,0.3594,0.3478,0.3399,0.3368,0.3281,0.343,0.3982,0.3982,0.4232,0.4778,0.4778,0.4778,0.4778,0.4778,0.4778,0.483,0.5329,0.5579,0.5629,0.6174,0.6423,0.6426,0.6488,0.5908,0.4959,0.5,0.514,0.5231,0.532,0.5799,0.64,-2.308,0.0,0.0,0.0,0.0,0.0,0.0,0.0,0.0,0.0,0.0,0.0,0.0,0.0,0.0,0.0,0.0,0.0,0.0,0.0,0.0,-1.6077,-1.5559,-1.5409,-1.5572,-1.5572,-1.5572,0.0,0.0,0.0,0.0,0.0,0.0,0.0,0.0,0.0,0.0,0.0,0.0,-0.7225,0.0,-0.7848,-0.695,-0.6688,-0.6646,-0.6719,-0.6619,-0.647,-0.6416,-0.6613,-0.4734,-0.2409,-0.2326,-0.0458,0.0,0.0,0.0,0.0,0.0,0.0,0.0,0.0,0.0,0.2504,0.0,0.0,0.0,0.5037,0.5848,0.0,0.0,0.0,0.0,0.0,0.0,0.0,0.0,0.5947,0.0,0.4613,0.46,0.0,0.4642,0.456,0.4454,0.4265,0.4126,0.4047,0.4047,0.3909,0.4232,0.5083,0.5133,0.5529,0.6373,0.6423,0.6423,0.6423,0.6423,0.6423,0.6423,0.6623,0.6722,0.6722,0.6921,0.7036,0.7065,0.7226,0.7355,0.7352,0.6935,0.6898,0.7123,0.7094,0.7354,0.7723,-2.2582,-2.2676,0.0,0.0,0.0,0.0,0.0,0.0,0.0,0.0,0.0,0.0,0.0,0.0,0.0,0.0,0.0,0.0,-2.2642,0.0,0.0,0.0,-1.6187,-1.6054,-1.5849,-1.5843,-1.5843,0.0,0.0,0.0,0.0,0.0,0.0,0.0,-0.7683,0.0,0.0,0.0,-0.6908,0.0,-0.7039,-0.6951,0.0,-0.6509,-0.6416,-0.6425,-0.6411,-0.6398,-0.6392,0.0,-0.445,-0.2372,0.0,-0.0353,0.1626,0.165,0.0,0.0,0.0,0.0,0.0,0.0,0.2359,0.0,0.0,0.0,0.4012,0.5847,0.0,0.0,0.0,0.0,0.0,0.0,0.0,0.0,0.8559,0.7626,0.7015,0.722,0.7075,0.7049,0.0,0.7127,0.6891,0.6705,0.6544,0.6421,0.6421,0.6149,0.6074,0.6224,0.6224,0.6274,0.6423,0.6423,0.6423,0.6423,0.6423,0.6423,0.6423,0.7372,0.7822,0.7872,0.8825,0.936,0.9497,0.9517,0.9713,0.9781,0.7836,0.7098,0.708,0.7078,0.7929,0.9041,-2.312,-2.3123,0.0,0.0,0.0,0.0,0.0,0.0,0.0,0.0,0.0,0.0,0.0,0.0,0.0,0.0,0.0,-2.3126,0.0,0.0,0.0,0.0,0.0,0.0,-1.6121,-1.597,-1.5541,-1.4748,-1.3623,0.0,0.0,0.0,0.0,0.0,-0.6918,0.0,-0.6767,0.0,-0.662,0.0,0.0,0.0,0.0,-0.6437,-0.6387,-0.6387,-0.6387,-0.6387,-0.6337,0.0,-0.4377,0.0,0.0,0.0,0.0,0.0,0.0,0.0,0.0,0.0,0.0,0.0,0.0,0.0,0.2772,0.0,0.4422,0.0,0.0,0.0,0.0,0.0,0.0,0.0,0.9671,0.0,0.0,0.0,0.8627,0.0,0.0,0.0,0.0,0.0,0.0,0.0,0.6883,0.6757,0.6632,0.6465,0.6672,0.7322,0.7322,0.7624,0.8273,0.8273,0.8273,0.8273,0.8273,0.8273,0.8273,0.8722,0.8924,0.8973,0.9426,0.9726,0.9892,1.0053,1.0197,1.0337,0.9501,0.9203,0.921,0.9168,0.9682,1.0368,-2.3892,0.0,0.0,0.0,0.0,0.0,-2.561,-2.6206,-2.6591,0.0,0.0,0.0,-2.7254,-2.708,0.0,0.0,-2.4255,-2.2472,0.0,0.0,-1.7821,0.0,0.0,0.0,0.0,-1.6097,-1.5328,0.0,0.0,0.0,0.0,0.0,0.0,0.0,0.0,-0.6487,-0.6613,0.0,-0.6435,-0.6433,-0.64,-0.6387,-0.6387,-0.6387,-0.6387,-0.6387,-0.6387,-0.6368,-0.6341,-0.5996,-0.4495,0.0,-0.2048,0.0,0.0,0.0,0.0,0.0,0.17,0.0,0.0,0.0,0.0,0.0,0.0,0.0,0.0,0.0,0.0,0.0,0.0,0.0,0.0,0.0,0.0,1.0034,0.0,1.0213,0.0,0.0,0.0,0.0,0.0,0.0,0.0,0.7962,0.7833,0.762,0.7431,0.7343,0.7624,0.8425,0.8425,0.8825,0.9579,0.9579,0.9579,0.9579,0.9579,0.9579,0.9579,0.9579,0.9579,0.9579,0.9677,0.9799,0.9973,1.016,1.0343,1.0517,1.0643,1.0692,1.07,1.0749,1.096,1.1228,-2.4707,-2.4097,0.0,0.0,0.0,0.0,-2.6371,-2.6573,-2.6591,0.0,0.0,0.0,0.0,0.0,0.0,0.0,0.0,-2.2082,-2.2242,0.0,-1.7991,0.0,0.0,-1.6839,0.0,0.0,0.0,0.0,0.0,0.0,0.0,0.0,0.0,0.0,0.0,-0.6616,-0.6619,-0.6616,-0.6613,-0.6603,-0.6433,-0.6387,-0.6387,0.0,-0.6387,-0.6387,-0.6387,0.0,0.0,-0.5689,-0.4751,0.0,0.0,0.0,0.0,0.0,0.0,0.0,0.0,0.0,0.0,0.1715,0.0,0.0,0.0,0.0,0.3263,0.0,0.0,0.0,0.0,0.0,0.0,0.0,0.0,0.0,0.0,0.0,0.0,0.0,0.0,0.0,0.0,1.1097,1.0952,1.0598,1.0306,0.9975,0.979,0.9618,0.9525,0.9529,0.9529,0.9575,0.9579,0.9579,0.9579,0.9579,0.9579,0.9579,0.9579,0.9579,0.9579,0.9587,0.9803,0.9981,1.022,1.0351,1.0526,1.0684,1.0688,1.0692,1.0712,1.0895,1.1074,1.1248,0.0,0.0,0.0,0.0,0.0,-2.5938,-2.683,-2.6976,-2.6915,0.0,-2.6783,0.0,0.0,-2.5664,-2.5055,0.0,0.0,-2.1341,-1.9828,-1.8879,0.0,0.0,0.0,-1.7189,0.0,0.0,0.0,0.0,0.0,0.0,0.0,0.0,0.0,0.0,0.0,-0.6492,0.0,0.0,0.0,0.0,0.0,-0.6387,-0.6387,0.0,0.0,-0.6387,-0.6387,-0.6363,0.0,-0.5684,-0.4711,-0.3465,-0.1951,-0.0787,0.0299,0.139,0.1707,0.0,0.0,0.0,0.1719,0.1685,0.0,0.0,0.0,0.0,0.0,0.0,0.0,0.0,0.0,0.0,0.0,0.0,0.0,0.0,0.0,0.0,0.0,0.0,0.0,0.0,0.0,0.0,0.0,1.0367,1.0115,0.99,0.9726,0.9661,0.9579,0.9579,0.9579,0.9579,0.9579,0.9579,0.9579,0.9579,0.9579,0.9579,0.9579,0.9579,0.9579,0.9587,0.9811,0.9989,1.0228,1.0359,1.0538,1.0692,1.0692,1.0692,1.07,1.0761,1.0968,1.1269,-2.5203,0.0,0.0,0.0,0.0,0.0,-2.7077,-2.6834,0.0,0.0,-2.6064,0.0,-2.4705,0.0,-2.3548,0.0,-2.154,-2.0526,-1.8825,-1.8507,0.0,-1.7562,-1.7485,0.0,0.0,0.0,0.0,0.0,0.0,-0.8769,0.0,0.0,0.0,0.0,0.0,-0.647,-0.65,0.0,-0.6425,0.0,0.0,-0.6387,0.0,0.0,-0.6387,-0.6381,0.0,-0.6252,-0.6002,-0.5532,-0.4614,-0.3349,-0.1912,-0.0771,0.0244,0.1301,0.1613,0.162,0.1649,0.1643,0.0,0.1666,0.1645,0.0,0.1912,0.0,0.0,0.0,0.0,0.0,0.0,0.0,0.0,0.0,0.0,0.0,0.0,0.9774,0.0,0.0,0.0,0.0,0.0,0.0,1.0542,1.0241,0.9989,0.9811,0.0,0.0,0.9657,0.9717,0.9721,0.9721,0.9721,0.9721,0.9689,0.9579,0.9579,0.9579,0.9579,0.9579,0.9579,0.9591,0.988,1.0102,1.0233,1.0424,1.059,1.0692,1.0692,1.0733,1.0798,1.0858,1.111,1.1455,0.0,0.0,0.0,0.0,-2.6334,0.0,0.0,0.0,-2.5613,0.0,-2.4813,-2.351,-2.2387,-2.2259,-2.1737,-2.0566,-2.0163,-1.9732,-1.9193,-1.86,0.0,0.0,-1.7485,-1.7364,-1.7059,0.0,0.0,0.0,0.0,0.0,0.0,0.0,0.0,0.0,-0.6611,0.0,-0.6392,-0.6559,-0.6492,-0.6387,-0.6387,-0.6387,-0.6387,-0.6287,-0.6282,-0.6263,-0.6257,-0.6043,-0.5635,-0.5249,-0.4334,-0.3134,-0.1753,-0.0748,0.0095,0.1191,0.1477,0.153,0.1561,0.162,0.1579,0.1609,0.0,0.0,0.0,0.0,0.2554,0.0,0.0,0.0,0.0,0.0,0.0,0.0,0.0,0.0,0.0,0.0,0.0,0.0,0.0,0.0,0.0,1.0785,1.053,1.0228,0.9985,0.0,0.0,0.0,0.9726,0.988,0.9892,0.9896,0.9896,0.9896,0.9815,0.9652,0.9652,0.9652,0.9652,0.9652,0.9652,0.9673,1.0022,1.0228,1.0253,1.055,1.0692,1.0692,1.0704,1.0826,1.1017,1.1175,1.1459,1.1764,-2.6012,-2.6536,-2.693,0.0,-2.6537,-2.6516,0.0,0.0,0.0,0.0,-2.3599,-2.288,-2.1792,-2.1398,-2.0876,-1.9931,-1.949,0.0,0.0,0.0,0.0,-1.7497,-1.7485,-1.7032,-1.6018,-1.4425,0.0,-1.1306,0.0,0.0,-0.7263,0.0,0.0,0.0,0.0,0.0,-0.6387,-0.6419,-0.6414,-0.6387,-0.6189,-0.6089,0.0,0.0,-0.4636,-0.4824,-0.5686,-0.5752,-0.5263,-0.4227,-0.3607,-0.2892,-0.0965,-0.0184,0.0183,0.1181,0.151,0.1499,0.153,0.1554,0.1579,0.1609,0.1617,0.1625,0.0,0.0,0.0,0.0,0.0,0.0,0.0,0.0,0.0,0.0,0.0,0.0,0.0,0.0,0.0,1.0327,0.0,0.0,1.0554,1.053,1.0351,0.9981,0.9912,0.0,0.0,0.0,0.0,0.9888,1.0069,1.0143,1.0143,1.0143,1.0118,1.0026,1.0026,1.0026,1.0026,1.0026,1.0026,1.0038,1.0266,1.0367,1.0383,1.0603,1.0692,1.0704,1.0842,1.109,1.1366,1.1411,1.1488,1.1589,-2.6508,0.0,0.0,-2.6364,0.0,0.0,-2.5768,-2.4601,0.0,-2.2908,-2.2191,0.0,-2.0664,-2.0391,-1.9975,-1.9275,-1.903,0.0,-1.8143,0.0,0.0,-1.7497,-1.6944,-1.6284,-1.5391,-1.3359,0.0,-1.0451,0.0,0.0,-0.7006,0.0,0.0,0.0,0.0,-0.6387,-0.6387,-0.6287,-0.6239,-0.6139,-0.5434,0.0,0.0,-0.3773,-0.3282,-0.332,-0.3923,-0.4007,-0.3743,-0.298,-0.2303,-0.1569,-0.0364,0.0272,0.0721,0.1292,0.1474,0.1468,0.1498,0.1519,0.1542,0.1586,0.1597,0.1609,0.1704,0.1921,0.2178,0.0,0.0,0.0,0.0,0.0,0.0,0.0,0.0,0.0,0.0,0.0,0.0,0.0,1.0343,0.0,1.037,1.029,1.014,1.0014,0.9933,0.0,0.0,0.0,0.0,1.001,1.0257,1.0355,1.0282,1.0355,1.0371,1.0212,1.0212,1.0212,1.0212,1.0212,1.0212,1.0224,1.0355,1.0383,1.0399,1.0708,1.0814,1.0838,1.1102,1.1321,1.1508,1.1589,1.1622,1.1634,-2.7066,0.0,0.0,0.0,0.0,0.0,0.0,-2.3072,0.0,-2.1876,0.0,-1.9778,-1.9501,-1.9469,-1.9181,-1.8722,0.0,-1.8378,-1.7907,-1.7841,-1.7583,-1.7202,-1.6057,-1.5161,-1.4504,-1.2269,-1.0621,0.0,0.0,0.0,0.0,0.0,0.0,0.0,0.0,0.0,0.0,-0.5939,-0.5789,-0.5639,-0.4277,-0.3721,-0.3621,-0.2516,-0.1987,-0.1798,-0.1529,-0.1689,-0.1887,-0.1668,-0.0851,0.0,0.0134,0.0762,0.1391,0.1391,0.1391,0.1396,0.1468,0.1478,0.1494,0.1551,0.1566,0.1581,0.1693,0.1859,0.2112,0.2377,0.2669,0.3301,0.0,0.0,0.0,0.0,0.0,0.0,0.0,0.0,0.0,0.0,0.0,0.0,1.04,1.0132,1.0014,1.0204,0.0,0.0,0.0,0.0,0.0,1.0212,1.0485,1.0607,1.0505,0.0,1.055,1.0322,1.0294,1.0286,1.0286,1.0286,1.0286,1.0294,1.04,1.0427,1.053,1.0842,1.1053,1.107,1.1378,1.1516,1.1553,1.1715,1.1776,1.1776,0.0,0.0,0.0,0.0,0.0,-2.2193,-2.2242,-2.2076,-2.147,-2.0192,-1.9935,-1.9778,-1.9501,-1.9084,-1.8782,-1.8692,-1.8275,0.0,0.0,0.0,0.0,-1.5395,-1.4855,-1.362,-1.1445,-1.0544,-0.9521,0.0,0.0,0.0,0.0,0.0,0.0,0.0,0.0,0.0,-0.5992,-0.5083,0.0,-0.4227,-0.2868,-0.2364,-0.2214,-0.0907,-0.0444,-0.0335,0.0572,-0.0188,-0.1519,-0.0632,-0.0179,0.0134,0.0897,0.1256,0.1391,0.1391,0.1391,0.1391,0.1397,0.1461,0.1489,0.1525,0.1534,0.155,0.1611,0.1655,0.1744,0.2024,0.2289,0.2896,0.4234,0.0,0.0,0.0,0.0,0.0,0.0,0.0,0.0,0.0,0.0,1.0375,0.0,1.0286,1.029,0.0,0.0,0.0,0.0,0.0,0.0,0.0,1.0367,0.0,0.0,0.0,1.0737,1.0882,1.0672,1.0599,1.0599,1.0599,1.0599,1.0599,1.0631,1.0733,1.0879,1.0944,1.1143,1.1411,1.1476,1.1593,1.1732,1.1764,1.1776,1.1776,0.0,0.0,0.0,0.0,0.0,0.0,0.0,-2.0234,-2.0073,-1.9388,-1.9145,-1.9012,-1.8873,-1.85,-1.8173,-1.8036,-1.7598,-1.7028,-1.6155,-1.5798,-1.5041,-1.3586,-1.277,-1.1712,-1.034,-0.9451,-0.8626,-0.7749,0.0,0.0,0.0,0.0,0.0,0.0,0.0,-0.5737,0.0,0.0,0.0,-0.2868,-0.151,-0.0956,-0.0856,0.0353,0.0788,0.081,0.1335,0.0841,0.0045,0.054,0.0718,0.0807,0.1256,0.1391,0.1391,0.1391,0.1391,0.1391,0.1391,0.1446,0.1464,0.1495,0.1515,0.1538,0.1583,0.1594,0.1695,0.1942,0.2107,0.2681,0.428,0.606,0.0,0.0,0.0,0.0,0.0,0.0,0.0,0.0,0.0,0.0,0.0,0.0,0.0,0.0,0.0,0.0,0.0,0.0,0.0,0.0,0.0,0.0,0.0,0.0,0.0,1.0826,1.0834,1.0834,1.0838,1.0928,1.0968,1.0968,1.0968,1.1017,1.111,1.1204,1.1403,1.1642,1.1642,1.1699,1.1788,1.1874,1.1906,1.1906,0.0,-2.2968,0.0,0.0,-2.0011,0.0,-1.8575,-1.8524,-1.8545,-1.8822,-1.8485,-1.8165,-1.8109,-1.7804,-1.7497,-1.7299,-1.6746,-1.579,-1.4465,-1.4046,-1.3226,-1.1828,-1.0724,-0.9997,-0.953,-0.8542,-0.7836,0.0,0.0,0.0,0.0,0.0,0.0,0.0,0.0,0.0,0.0,0.0,-0.2417,-0.146,-0.0202,0.0353,0.0454,0.1262,0.1579,0.1478,0.1478,0.144,0.1391,0.1391,0.1391,0.1391,0.1391,0.1391,0.1391,0.1391,0.1391,0.1391,0.1391,0.1391,0.1397,0.1473,0.1494,0.1516,0.1553,0.1575,0.1632,0.1859,0.1982,0.2623,0.4303,0.57,0.0,0.0,0.0,0.0,0.0,0.0,0.0,0.0,0.0,0.0,1.0209,0.0,0.0,0.0,0.0,0.0,0.9953,0.0,0.0,0.0,0.0,1.0692,1.0806,0.0,1.0932,1.0863,1.0972,1.1025,1.1029,1.1159,1.1224,1.1224,1.1224,1.1244,1.1293,1.1484,1.1646,1.1776,1.1776,1.1797,1.1845,1.1979,1.2056,1.2093,0.0,0.0,0.0,0.0,0.0,0.0,-1.7922,-1.7838,-1.785,-1.7884,-1.7875,-1.7728,-1.7426,-1.7146,-1.6992,-1.6969,-1.5521,-1.4544,-1.4381,-1.2982,-1.1481,-1.0009,-0.9634,-0.8968,-0.7766,-0.7652,-0.7475,0.0,0.0,-0.7039,0.0,0.0,0.0,0.0,0.0,0.0,0.0,-0.1511,-0.0504,-0.0101,0.1009,0.1465,0.1465,0.1566,0.1579,0.1478,0.1478,0.144,0.1391,0.1391,0.1391,0.1391,0.1391,0.1391,0.1391,0.1391,0.1391,0.1391,0.1391,0.1391,0.1397,0.1473,0.1462,0.1413,0.1517,0.1511,0.15,0.1525,0.199,0.2767,0.4175,0.5343,0.6533,0.0,0.0,0.0,0.0,0.0,1.0274,0.9973,0.0,0.0,0.0,0.9998,0.0,0.0,1.0221,0.0,0.0,0.0,0.0,1.0212,0.0,1.0633,1.1167,1.1037,1.1122,1.1423,1.1273,1.12,1.12,1.1216,1.1224,1.1224,1.1224,1.1317,1.1488,1.1675,1.176,1.1776,1.1776,1.187,1.2008,1.2024,1.2138,1.2304,0.0,0.0,0.0,0.0,0.0,0.0,0.0,-1.7083,-1.6646,-1.5689,-1.6536,-1.7184,-1.7063,-1.5981,-1.5178,-1.5161,-1.3668,-1.2356,-1.1384,-1.0732,-0.972,-0.8286,-0.8111,-0.7878,-0.7516,-0.7448,-0.7421,0.0,0.0,0.0,0.0,0.0,0.0,0.0,0.0,-0.2315,-0.136,-0.0504,0.0252,0.1009,0.1414,0.1617,0.1617,0.1617,0.1579,0.1478,0.1478,0.144,0.1391,0.1391,0.1391,0.1391,0.1391,0.1391,0.1391,0.1391,0.1391,0.1391,0.1391,0.1391,0.1393,0.1451,0.1458,0.1474,0.1516,0.1517,0.1517,0.1547,0.1856,0.232,0.2865,0.4477,0.6062,0.0,0.0,0.0,0.0,0.0,0.0,0.0,0.0,1.0018,0.0,0.0,0.0,0.0,0.0,0.0,0.0,0.0,0.0,1.0322,0.0,1.0639,1.1066,1.1106,1.1191,1.1334,1.137,1.1386,1.139,1.1504,1.1553,1.1553,1.1553,1.1598,1.1671,1.1748,1.1776,1.1788,1.189,1.1971,1.2056,1.2272,1.2398,1.2487,-1.9,0.0,-1.746,0.0,-1.6865,-1.656,-1.6128,-1.5867,-1.5159,-1.36,-1.451,-1.5377,-1.5385,-1.4172,-1.3331,-1.3304,-1.1832,-1.0455,-0.938,-0.8931,-0.8248,-0.7268,-0.7245,0.0,-0.7513,-0.7284,-0.7208,-0.7351,-0.7117,0.0,0.0,0.0,0.0,0.0,-0.1913,-0.0907,0.0,0.0353,0.0908,0.1617,0.1617,0.1617,0.1617,0.1617,0.1579,0.1478,0.1478,0.144,0.1391,0.1391,0.1391,0.1391,0.1391,0.1391,0.1391,0.1391,0.1391,0.1391,0.1391,0.1391,0.1391,0.1391,0.1458,0.1486,0.1508,0.1568,0.1631,0.1712,0.1915,0.2074,0.2015,0.3945,0.5756,0.6274,0.0,0.0,0.0,0.0,0.0,0.0,1.0079,0.9945,0.9888,1.0106,0.0,0.0,0.0,0.0,0.0,0.0,0.0,0.0,0.0,0.0,0.0,1.1244,1.133,1.1386,1.152,1.1581,1.1585,1.1715,1.1805,1.1849,1.1849,1.1882,1.1935,1.1935,1.1935,1.1943,1.2065,1.2142,1.2219,1.2471,1.2596,1.2661,-1.6949,-1.6808,-1.6834,-1.6589,-1.6318,-1.5661,-1.4331,-1.3909,-1.3241,-1.1912,-1.1696,-1.1714,-1.1775,-1.1692,-1.1644,-1.164,-1.023,-0.9313,-0.931,-0.8,-0.7213,0.0,0.0,-0.7333,-0.7516,-0.7114,-0.6886,-0.6888,0.0,0.0,-0.5796,0.0,-0.3074,-0.1962,-0.0604,0.0,0.005,0.1111,0.1566,0.1617,0.1617,0.1617,0.1617,0.1617,0.1579,0.1478,0.1478,0.144,0.1391,0.1391,0.1391,0.1391,0.1391,0.1391,0.1391,0.1391,0.1391,0.1391,0.1391,0.1391,0.1391,0.1391,0.1458,0.148,0.1481,0.1692,0.1919,0.1957,0.2208,0.2319,0.2064,0.3939,0.5719,0.65,0.0,0.0,0.0,0.0,0.0,1.0375,1.027,1.0139,0.99,1.0106,0.0,0.0,0.0,0.0,0.0,0.0,0.0,1.0383,1.0777,0.0,1.1488,1.1496,1.1589,1.1768,1.1772,1.1772,1.1772,1.1776,1.1866,1.2028,1.2028,1.213,1.23,1.23,1.23,1.23,1.2304,1.2406,1.262,1.2624,1.2678,1.277,-1.6089,-1.6057,-1.5777,-1.4787,-1.4505,-1.3975,-1.2636,-1.2318,-1.1744,-1.0336,-1.0102,-0.9799,-0.8915,-0.9576,-1.0084,0.0,-0.8739,-0.7918,0.0,-0.7452,-0.7099,-0.6879,-0.686,-0.6819,-0.6757,-0.6601,-0.6527,-0.6538,0.0,0.0,0.0,-0.1887,-0.1032,-0.0604,0.0555,0.1111,0.1111,0.1465,0.1617,0.1617,0.1617,0.1617,0.1617,0.1617,0.1592,0.1557,0.1557,0.1518,0.1466,0.1466,0.1453,0.1391,0.1391,0.1391,0.1391,0.1391,0.1391,0.1391,0.1391,0.1391,0.1391,0.1391,0.1595,0.1765,0.179,0.2035,0.2178,0.2016,0.2084,0.2056,0.1766,0.3631,0.5458,0.6183,0.7955,0.0,0.0,0.0,0.0,0.0,0.9981,0.9774,0.9713,0.9985,0.0,0.0,0.0,0.0,0.0,0.0,0.0,0.0,1.0956,0.0,1.1496,1.1626,1.1719,1.1776,1.1776,1.1837,1.1955,1.2081,1.2166,1.2219,1.2219,1.2251,1.2308,1.2308,1.2308,1.2316,1.2434,1.2515,1.258,1.2706,1.2787,1.277,-1.5285,-1.4979,-1.4441,-1.3644,-1.3135,-1.2384,-1.0973,-1.0661,-1.0102,-0.8736,-0.8393,-0.7959,-0.7159,-0.7749,0.0,-0.8411,-0.7519,-0.6901,-0.6884,-0.6882,-0.6771,-0.655,-0.655,-0.6486,-0.642,-0.5758,0.0,-0.5559,-0.4174,-0.2713,-0.1329,-0.0472,0.0155,0.0605,0.1313,0.1617,0.1617,0.1617,0.1617,0.1617,0.1617,0.1617,0.1617,0.1617,0.1598,0.162,0.162,0.154,0.1498,0.1639,0.1624,0.1607,0.1699,0.1745,0.1694,0.1487,0.148,0.1525,0.1436,0.1525,0.1663,0.1586,0.1798,0.2075,0.2229,0.2332,0.2363,0.2188,0.2054,0.2076,0.2241,0.3925,0.5616,0.6563,0.8145,0.9566,1.0311,0.0,0.0,0.0,0.0,0.0,0.0,1.0091,1.031,0.0,0.0,0.0,0.0,0.0,0.0,1.0798,1.1139,0.0,1.1602,1.1719,1.1809,1.187,1.1943,1.2032,1.2138,1.2251,1.2341,1.2402,1.2402,1.2442,1.2507,1.2507,1.2507,1.2515,1.2625,1.2666,1.2678,1.2795,1.277,1.277,-1.4364,-1.3627,-1.2908,0.0,-1.1954,0.0,-0.9405,-0.8993,-0.8411,-0.7195,-0.6644,-0.6412,-0.6412,-0.6329,-0.6425,-0.6808,0.0,0.0,0.0,-0.6274,-0.6274,-0.6274,-0.6161,-0.6149,-0.618,-0.4681,-0.3888,-0.3882,-0.2344,-0.1011,0.0,0.0103,0.0657,0.1617,0.1617,0.1617,0.1617,0.1617,0.1617,0.1617,0.1617,0.1617,0.1617,0.1617,0.1599,0.1624,0.1624,0.1603,0.1577,0.1864,0.191,0.1956,0.2242,0.2291,0.2179,0.1641,0.1622,0.1802,0.1532,0.1848,0.2174,0.1985,0.2119,0.2414,0.2753,0.2623,0.2472,0.2422,0.2325,0.2441,0.3305,0.4779,0.6247,0.7379,0.861,0.9596,0.9961,0.0,0.0,0.0,0.0,0.0,0.0,1.0327,1.0387,0.0,0.0,0.0,0.0,0.0,1.1013,1.0988,1.1334,1.161,1.1792,1.1792,1.1878,1.2052,1.2235,1.2324,1.2324,1.2337,1.243,1.2584,1.2584,1.2678,1.277,1.277,1.277,1.277,1.277,1.277,1.277,1.277,1.277,1.277,0.0,0.0,-1.115,-1.0137,-0.9755,-0.9028,-0.7383,-0.7028,-0.6883,-0.6525,-0.6381,-0.631,-0.631,-0.6061,-0.5944,-0.6079,-0.623,-0.6274,-0.6274,-0.6274,-0.6161,-0.5935,-0.5039,-0.443,-0.4276,-0.2971,-0.1895,-0.0994,-0.0601,0.0161,0.1254,0.1295,0.1382,0.1617,0.1617,0.1617,0.1617,0.1617,0.1617,0.1617,0.1617,0.1617,0.1617,0.1617,0.1612,0.1606,0.1807,0.1884,0.1902,0.2193,0.2268,0.2194,0.229,0.2291,0.2286,0.2123,0.2116,0.2163,0.2116,0.2164,0.226,0.2224,0.2451,0.2746,0.3062,0.3079,0.2977,0.2725,0.3413,0.4065,0.4085,0.5934,0.7627,0.8091,0.9043,0.987,1.0242,0.9961,0.0,0.0,1.016,1.0112,1.0212,1.0327,1.0435,0.0,0.0,0.0,0.0,1.1407,1.1455,1.1171,1.152,1.1797,1.1967,1.1971,1.206,1.2243,1.2418,1.2503,1.2507,1.2645,1.2735,1.2771,1.2771,1.2795,1.277,1.277,1.277,1.277,1.277,1.277,1.277,1.277,1.277,1.277,-1.1576,-1.0532,-0.9388,-0.8684,-0.8136,-0.7437,-0.6475,-0.624,-0.6106,-0.6056,-0.594,-0.5884,-0.5884,-0.5714,-0.5603,-0.5603,-0.5772,-0.5884,-0.5884,-0.5375,-0.4981,-0.4812,-0.3638,-0.291,-0.2798,-0.1567,-0.039,0.083,0.0816,0.107,0.1681,0.1654,0.1633,0.1617,0.1617,0.1617,0.1617,0.1617,0.1617,0.1617,0.1718,0.1768,0.1819,0.1919,0.1969,0.1969,0.2121,0.2207,0.2237,0.2485,0.2567,0.2547,0.2693,0.2693,0.2693,0.2693,0.2611,0.2479,0.2337,0.248,0.267,0.267,0.2806,0.2951,0.3132,0.3435,0.3699,0.3659,0.4515,0.5395,0.5908,0.7194,0.8386,0.8947,0.9585,1.0062,1.0081,0.9945,0.0,1.0184,1.0253,1.0329,1.0521,1.0692,1.0834,1.0928,1.1106,0.0,1.1342,1.1695,1.1764,1.1484,1.1829,1.206,1.2154,1.2235,1.2324,1.2426,1.2605,1.2686,1.269,1.2791,1.277,1.277,1.277,1.277,1.277,1.277,1.277,1.277,1.277,1.277,1.277,1.277,1.277,1.277,-0.9845,-0.8748,-0.77,-0.7697,-0.6877,-0.6219,-0.6163,-0.5938,-0.5768,-0.5768,-0.5547,-0.5382,-0.5382,-0.5212,-0.5156,-0.5156,-0.4987,-0.4931,-0.5098,-0.3974,-0.3301,-0.3301,-0.2183,-0.1512,-0.1512,-0.0335,0.0781,0.1781,0.1725,0.1695,0.169,0.164,0.1617,0.1617,0.1617,0.1617,0.1617,0.1667,0.1667,0.1667,0.197,0.2071,0.2071,0.2321,0.2422,0.2422,0.2422,0.2472,0.2522,0.2775,0.2876,0.2876,0.313,0.318,0.318,0.318,0.3015,0.275,0.2505,0.279,0.3126,0.3137,0.3267,0.3354,0.3423,0.4058,0.4732,0.4996,0.5712,0.6711,0.7892,0.8437,0.8984,0.979,1.0143,1.0256,0.9881,0.0,0.9904,1.0262,1.0395,1.0612,1.0992,1.1139,1.1232,1.1261,1.1411,1.1524,1.1577,1.189,1.2016,1.1898,1.2162,1.232,1.2345,1.2519,1.2605,1.2609,1.2763,1.277,1.277,1.277,1.277,1.277,1.277,1.277,1.277,1.277,1.277,1.277,1.277,1.277,1.277,1.277,1.277,1.277,-0.8361,-0.7374,-0.6492,-0.6209,-0.5989,-0.5824,-0.5549,-0.5491,-0.5435,-0.5435,-0.5437,-0.5382,-0.5382,-0.448,-0.3861,-0.3861,-0.2966,-0.2798,-0.3805,-0.2742,-0.2071,-0.2071,-0.0896,-0.028,-0.028,0.0885,0.158,0.1718,0.1685,0.1656,0.163,0.1621,0.1617,0.1617,0.1617,0.1617,0.1617,0.1819,0.1921,0.1971,0.2221,0.2321,0.2321,0.2371,0.2422,0.2422,0.2674,0.2725,0.2775,0.3029,0.313,0.313,0.318,0.318,0.318,0.318,0.3203,0.3166,0.3066,0.3102,0.3214,0.3266,0.3903,0.4601,0.4848,0.5646,0.6387,0.6576,0.7528,0.8424,0.8632,0.9562,1.0382,1.0523,1.0582,1.0568,1.0313,0.0,1.0758,1.0631,1.0867,1.1094,1.1179,1.1208,1.1289,1.1443,1.1484,1.163,1.1931,1.215,1.2316,1.2438,1.2353,1.2377,1.2523,1.2706,1.2795,1.2795,1.2758,1.277,1.277,1.277,1.277,1.277,1.277,1.277,1.277,1.277,1.277,1.277,1.277,1.277,1.277,1.277,1.277,1.277,-0.6816,-0.6267,-0.577,-0.5603,-0.5601,-0.5547,-0.5437,-0.5382,-0.5382,-0.5382,-0.5382,-0.5156,-0.448,-0.3917,-0.3357,-0.2686,-0.1512,-0.1064,-0.1623,-0.112,-0.084,-0.084,0.0336,0.0953,0.0953,0.1489,0.1797,0.1729,0.1736,0.1707,0.1641,0.1624,0.1667,0.1819,0.1819,0.192,0.2019,0.2171,0.2222,0.2221,0.2522,0.2623,0.2623,0.2775,0.2826,0.2826,0.2977,0.3027,0.3128,0.3831,0.4109,0.4345,0.4904,0.5141,0.5236,0.5236,0.4767,0.4247,0.4254,0.4773,0.5233,0.5227,0.56,0.5945,0.6098,0.6904,0.7743,0.7908,0.8866,0.97,0.9787,1.0304,1.0692,1.0692,1.0692,0.0,0.0,1.0802,1.0972,1.0976,1.1212,1.1411,1.1508,1.152,1.1557,1.1642,1.165,1.176,1.2016,1.2207,1.2385,1.262,1.2584,1.2629,1.271,1.2795,1.277,1.277,1.277,1.277,1.277,1.277,1.277,1.277,1.277,1.277,1.277,1.277,1.277,1.277,1.277,1.277,1.277,1.277,1.277,1.277,-0.5712,-0.5547,-0.5382,-0.5382,-0.5382,-0.5382,-0.5382,-0.5382,-0.5382,-0.5382,-0.5156,-0.4648,-0.3692,-0.3078,-0.2407,-0.1456,-0.028,0.0393,0.0393,0.0393,0.0393,0.0393,0.129,0.1795,0.1795,0.1821,0.1804,0.1804,0.1796,0.1818,0.1817,0.1783,0.192,0.2071,0.2071,0.2222,0.2422,0.2472,0.2472,0.2522,0.2775,0.2876,0.2927,0.338,0.3581,0.3581,0.3831,0.3992,0.4159,0.4966,0.5382,0.5667,0.6494,0.6873,0.7004,0.7004,0.6482,0.5922,0.5666,0.6315,0.6987,0.6969,0.7064,0.7244,0.7303,0.8117,0.8943,0.9126,0.9865,1.055,1.0724,1.072,1.0708,1.0749,0.0,0.0,0.0,1.0948,1.1139,1.1273,1.1451,1.1634,1.1817,1.1801,1.1792,1.1833,1.1837,1.191,1.2085,1.2268,1.2446,1.2621,1.2763,1.277,1.277,1.277,1.277,1.277,1.277,1.277,1.277,1.277,1.277,1.277,1.277,1.277,1.277,1.277,1.277,1.277,1.277,1.277,1.277,1.277,1.277,1.2778,-0.5437,-0.5437,-0.5382,-0.5382,-0.5382,-0.5382,-0.5382,-0.5382,-0.5382,-0.5382,-0.4423,-0.3692,-0.3636,-0.1623,-0.0224,-0.0168,0.0953,0.1683,0.1683,0.1683,0.1683,0.1683,0.1739,0.1795,0.1795,0.1821,0.1804,0.1804,0.2006,0.2074,0.2074,0.224,0.2371,0.2371,0.2371,0.2371,0.2422,0.2674,0.2775,0.2775,0.3079,0.318,0.3281,0.4284,0.4684,0.4834,0.5827,0.6295,0.6441,0.6543,0.6676,0.6884,0.6937,0.6995,0.7004,0.7004,0.7715,0.8257,0.719,0.6951,0.7026,0.7071,0.7666,0.8271,0.8491,0.9353,1.0092,1.0231,1.0508,1.0729,1.0915,1.0806,1.0749,1.0975,0.0,0.0,1.1004,1.1244,1.1464,1.148,1.1642,1.1821,1.1996,1.187,1.1841,1.2,1.2012,1.2093,1.2276,1.245,1.2629,1.2812,1.2766,1.277,1.277,1.277,1.277,1.277,1.277,1.277,1.277,1.277,1.277,1.277,1.277,1.277,1.277,1.277,1.277,1.277,1.277,1.277,1.277,1.277,1.277,1.286,-0.5382,-0.5382,-0.5382,-0.5382,-0.5382,-0.5382,-0.5382,-0.4761,-0.4311,-0.4311,-0.3246,-0.2183,-0.1456,-0.056,0.028,0.1065,0.1556,0.1775,0.1793,0.1777,0.1776,0.1794,0.1795,0.1795,0.1795,0.1986,0.2023,0.2023,0.2269,0.2347,0.2426,0.2433,0.2566,0.2722,0.2754,0.2835,0.2929,0.3066,0.3112,0.3128,0.3882,0.4261,0.4508,0.5574,0.6077,0.6243,0.66,0.6837,0.6983,0.7654,0.7957,0.8238,0.8884,0.9219,0.9295,0.9295,0.9609,0.986,0.9417,0.9295,0.9284,0.919,0.9363,0.9625,0.9751,1.0056,1.0379,1.0558,1.0741,1.0887,1.1012,1.0967,1.0923,1.1098,0.0,1.1045,1.1265,1.1415,1.1581,1.1805,1.189,1.2004,1.2182,1.2142,1.2134,1.2194,1.2203,1.228,1.2458,1.2637,1.2767,1.277,1.277,1.277,1.277,1.277,1.277,1.277,1.277,1.277,1.277,1.277,1.277,1.277,1.277,1.277,1.277,1.277,1.277,1.277,1.277,1.277,1.277,1.277,1.277,1.2778,-0.5382,-0.5382,-0.5268,-0.4873,-0.4817,-0.4706,-0.4313,-0.3582,-0.3022,-0.3022,-0.1959,-0.0896,-0.0112,0.0393,0.1009,0.1851,0.1933,0.1923,0.1947,0.1926,0.1929,0.1905,0.1908,0.1964,0.2076,0.2274,0.2371,0.2371,0.257,0.2707,0.2739,0.2797,0.2877,0.3037,0.3128,0.3353,0.3716,0.3838,0.4033,0.4373,0.516,0.5569,0.5836,0.6869,0.7394,0.7527,0.7898,0.8032,0.8176,0.8913,0.9286,0.9529,1.0243,1.0599,1.0692,1.0692,1.0692,1.0692,1.0692,1.0692,1.0664,1.0546,1.0477,1.0383,1.0383,1.0383,1.0485,1.0655,1.0838,1.1005,1.1114,1.109,1.1106,1.1281,1.1212,1.124,1.1545,1.1634,1.1776,1.2081,1.2117,1.2186,1.2369,1.2341,1.2328,1.2385,1.2389,1.2467,1.2637,1.2771,1.277,1.277,1.277,1.277,1.277,1.277,1.277,1.277,1.277,1.277,1.277,1.277,1.277,1.277,1.277,1.277,1.277,1.277,1.277,1.277,1.277,1.277,1.2778,1.2897,1.2917,1.2934,-0.5382,-0.538,-0.4985,-0.3805,-0.358,-0.3189,-0.1959,-0.1791,-0.1791,-0.1791,-0.0728,0.0,0.0,0.1346,0.2188,0.2188,0.2209,0.2188,0.2188,0.2188,0.2205,0.2186,0.2188,0.2356,0.2693,0.2693,0.2693,0.2693,0.298,0.3119,0.3119,0.3334,0.3413,0.3413,0.3413,0.3954,0.4916,0.5114,0.5779,0.6722,0.6953,0.7004,0.7109,0.821,0.8626,0.8734,0.9847,1.0282,1.0383,1.0383,1.055,1.0692,1.0692,1.0692,1.0696,1.0696,1.0696,1.0696,1.0696,1.0696,1.0692,1.0692,1.0562,1.0383,1.0387,1.0387,1.0435,1.066,1.0842,1.1082,1.1435,1.135,1.1285,1.1472,1.15,1.1565,1.1752,1.1922,1.2101,1.2288,1.2308,1.2377,1.2548,1.241,1.2381,1.2616,1.2628,1.2645,1.2762,1.277,1.277,1.277,1.277,1.277,1.277,1.277,1.277,1.277,1.277,1.277,1.277,1.277,1.277,1.277,1.277,1.277,1.277,1.277,1.277,1.277,1.277,1.277,1.279,1.3031,1.3092,1.3145,-0.43,-0.4047,-0.3642,-0.2514,-0.2351,-0.2239,-0.1847,-0.1064,-0.0448,-0.0224,0.084,0.1627,0.1851,0.23,0.2525,0.2525,0.2486,0.2461,0.2461,0.2545,0.2622,0.2802,0.2636,0.2581,0.2693,0.2859,0.2971,0.2971,0.3252,0.3409,0.3449,0.3445,0.3903,0.4714,0.4773,0.5366,0.6377,0.6485,0.6682,0.7,0.7771,0.8163,0.8361,0.9439,0.9938,1.0093,1.0425,1.057,1.0615,1.0615,1.0647,1.0716,1.0846,1.0968,1.1062,1.1062,1.1062,1.1062,1.1062,1.0976,1.0854,1.0724,1.0651,1.0647,1.0777,1.081,1.0858,1.1029,1.1212,1.1374,1.148,1.1455,1.148,1.1663,1.1585,1.1606,1.191,1.2,1.2142,1.245,1.2487,1.256,1.2739,1.271,1.2698,1.2751,1.2755,1.2779,1.277,1.277,1.277,1.277,1.277,1.277,1.277,1.277,1.277,1.277,1.277,1.277,1.277,1.277,1.277,1.277,1.277,1.277,1.277,1.277,1.277,1.277,1.277,1.277,1.279,1.3031,1.3015,1.2946,-0.2959,-0.2719,-0.2376,-0.1117,-0.0895,-0.0728,-0.0112,0.0616,0.1121,0.1345,0.1962,0.2469,0.2693,0.2806,0.2861,0.2861,0.28,0.2762,0.2762,0.2771,0.2903,0.3271,0.3108,0.3008,0.3029,0.3195,0.3306,0.3306,0.3438,0.3827,0.4311,0.4267,0.4903,0.6001,0.6063,0.6655,0.7668,0.7795,0.7993,0.8411,0.9158,0.9459,0.9602,1.0263,1.0603,1.0692,1.0692,1.0647,1.0611,1.0753,1.0846,1.0919,1.1033,1.1139,1.1224,1.1224,1.1224,1.1224,1.1224,1.1147,1.1062,1.1021,1.0903,1.083,1.0944,1.1021,1.1118,1.1293,1.1419,1.1524,1.1593,1.161,1.1667,1.1849,1.178,1.1833,1.219,1.2239,1.2349,1.2637,1.267,1.2714,1.2762,1.277,1.277,1.277,1.277,1.277,1.277,1.277,1.277,1.277,1.277,1.277,1.277,1.277,1.277,1.277,1.277,1.277,1.277,1.277,1.277,1.277,1.277,1.277,1.277,1.277,1.277,1.277,1.277,1.2877,1.2962,1.3137,1.3137,1.3076,-0.1399,-0.1342,-0.1062,0.0448,0.0672,0.1064,0.2468,0.2693,0.2693,0.275,0.275,0.275,0.275,0.2971,0.3137,0.3137,0.3107,0.3052,0.3052,0.3006,0.3127,0.35,0.3504,0.3585,0.3754,0.3643,0.3643,0.3755,0.3755,0.4369,0.5536,0.5536,0.6146,0.7249,0.7249,0.785,0.8885,0.9027,0.9614,1.0419,1.0631,1.0692,1.0692,1.0692,1.0692,1.0692,1.0692,1.059,1.0509,1.0854,1.1094,1.1248,1.1248,1.1256,1.1273,1.1273,1.1273,1.1273,1.1273,1.1261,1.1289,1.1455,1.1256,1.1077,1.1094,1.1171,1.1338,1.1492,1.1549,1.1618,1.1772,1.1813,1.1874,1.2028,1.2056,1.2174,1.258,1.2628,1.2629,1.275,1.277,1.277,1.277,1.277,1.277,1.277,1.277,1.277,1.277,1.277,1.277,1.277,1.277,1.277,1.277,1.277,1.277,1.277,1.277,1.277,1.277,1.277,1.277,1.277,1.277,1.277,1.277,1.277,1.277,1.277,1.277,1.2934,1.3092,1.3279,1.3336,1.3348,0.0167,0.0387,0.0771,0.2014,0.2187,0.2299,0.2637,0.2693,0.2748,0.2971,0.3026,0.3138,0.3363,0.3475,0.3475,0.3475,0.3453,0.3494,0.3494,0.3482,0.3486,0.3567,0.3568,0.4018,0.4981,0.4089,0.4089,0.5037,0.5037,0.559,0.6753,0.6753,0.7365,0.853,0.853,0.9175,1.0249,1.0288,1.0449,1.0639,1.0676,1.0692,1.0692,1.0692,1.0692,1.0692,1.0692,1.0668,1.0672,1.0895,1.1179,1.1439,1.1439,1.1541,1.1658,1.1658,1.1658,1.1658,1.1658,1.1549,1.1447,1.1488,1.1443,1.1423,1.1569,1.1732,1.1829,1.1736,1.1939,1.2101,1.1996,1.2093,1.2207,1.2239,1.2247,1.232,1.26,1.2628,1.2629,1.275,1.277,1.277,1.277,1.277,1.277,1.277,1.277,1.277,1.277,1.277,1.277,1.277,1.277,1.277,1.277,1.277,1.277,1.277,1.277,1.277,1.277,1.277,1.277,1.277,1.277,1.277,1.277,1.277,1.277,1.277,1.277,1.286,1.2913,1.3088,1.3068,1.2958,0.1716,0.1882,0.2052,0.2743,0.2915,0.2971,0.3085,0.3141,0.3197,0.3306,0.3362,0.3418,0.3587,0.3587,0.3587,0.3587,0.3561,0.3544,0.3544,0.3544,0.3832,0.4474,0.4511,0.5092,0.6334,0.5714,0.5691,0.62,0.62,0.6811,0.7974,0.7974,0.8585,0.975,0.975,1.0084,1.0692,1.0692,1.0692,1.0692,1.0692,1.0692,1.0692,1.0692,1.0639,1.0582,1.0664,1.0802,1.0948,1.0964,1.1265,1.163,1.163,1.1699,1.1776,1.1776,1.1776,1.1776,1.1776,1.1707,1.163,1.163,1.1691,1.1756,1.1772,1.1906,1.2028,1.2028,1.2105,1.2146,1.2048,1.2109,1.2203,1.2292,1.2377,1.2491,1.267,1.2694,1.2731,1.2762,1.277,1.277,1.277,1.277,1.277,1.277,1.277,1.277,1.277,1.277,1.277,1.277,1.277,1.277,1.277,1.2917,1.2958,1.2958,1.2877,1.2881,1.2958,1.2811,1.2881,1.2954,1.2807,1.277,1.277,1.277,1.277,1.277,1.277,1.2885,1.2982,1.3161,1.3169,1.3092,0.2916,0.2994,0.2907,0.3136,0.3194,0.3306,0.3531,0.3587,0.3587,0.3587,0.3587,0.3587,0.3587,0.3587,0.3587,0.3587,0.3771,0.3856,0.3856,0.4085,0.4725,0.5853,0.5934,0.6484,0.7664,0.7721,0.7601,0.7418,0.7395,0.8005,0.9199,0.9171,0.9724,1.0692,1.0692,1.0692,1.0692,1.0692,1.0676,1.0647,1.0647,1.0647,1.0647,1.0647,1.0578,1.0443,1.0639,1.0919,1.12,1.1062,1.1354,1.1776,1.1776,1.1776,1.1776,1.1776,1.1797,1.1821,1.1821,1.1841,1.187,1.187,1.1971,1.2048,1.1935,1.202,1.2154,1.228,1.2231,1.2158,1.2125,1.2146,1.2219,1.2373,1.2519,1.2661,1.275,1.277,1.277,1.277,1.277,1.277,1.277,1.277,1.277,1.277,1.277,1.277,1.277,1.277,1.277,1.277,1.2798,1.2881,1.2881,1.3051,1.3141,1.3137,1.2999,1.3003,1.3137,1.2994,1.3007,1.3133,1.299,1.2929,1.2925,1.2893,1.2897,1.2921,1.286,1.2942,1.3112,1.3267,1.3364,1.3413,0.3446,0.3429,0.3415,0.3522,0.3531,0.3531,0.3587,0.3587,0.3587,0.3587,0.3587,0.3587,0.3587,0.3587,0.3587,0.3587,0.4639,0.5293,0.5293,0.645,0.7198,0.7387,0.7404,0.7884,0.8911,0.8967,0.8838,0.8644,0.8516,0.9171,1.0468,1.0267,1.0387,1.0692,1.0692,1.0692,1.0692,1.0692,1.0607,1.0415,1.0415,1.0415,1.0415,1.0415,1.055,1.066,1.0684,1.0919,1.122,1.1196,1.1451,1.1776,1.1776,1.1776,1.1776,1.1776,1.1878,1.1996,1.1996,1.2113,1.2235,1.2235,1.2251,1.2304,1.243,1.2539,1.2458,1.2333,1.2532,1.2682,1.2519,1.2621,1.2669,1.2759,1.2783,1.2808,1.2832,1.277,1.277,1.277,1.277,1.277,1.277,1.277,1.277,1.277,1.277,1.277,1.277,1.277,1.277,1.277,1.2982,1.3059,1.3059,1.3242,1.3331,1.3331,1.3307,1.3311,1.3331,1.3307,1.3311,1.3331,1.3307,1.3299,1.3287,1.3124,1.3153,1.3267,1.2958,1.2942,1.3096,1.312,1.3331,1.3587,0.3486,0.3493,0.3515,0.3576,0.3587,0.3587,0.3587,0.3587,0.3587,0.3587,0.3587,0.3587,0.3587,0.3587,0.388,0.4648,0.525,0.5919,0.6722,0.7413,0.8037,0.8665,0.8809,0.932,1.0303,1.0451,1.0372,1.0062,0.9889,1.0116,1.0688,1.0615,1.0619,1.0692,1.0692,1.0692,1.0692,1.0692,1.0647,1.0578,1.0578,1.0578,1.0578,1.0578,1.0566,1.0562,1.066,1.0988,1.1378,1.1378,1.1553,1.1776,1.1776,1.1776,1.1776,1.1776,1.1898,1.2028,1.2028,1.2166,1.2308,1.2308,1.2381,1.2471,1.2612,1.2645,1.2694,1.2617,1.2645,1.2661,1.258,1.2629,1.2682,1.2682,1.2771,1.277,1.277,1.277,1.277,1.277,1.277,1.2811,1.297,1.2893,1.2877,1.2974,1.2889,1.277,1.277,1.2929,1.2982,1.2982,1.3157,1.325,1.325,1.3433,1.3522,1.3522,1.362,1.3616,1.3518,1.3417,1.3429,1.3518,1.3417,1.3372,1.3356,1.3169,1.3145,1.3193,1.2934,1.3007,1.3262,1.3364,1.3506,1.3578]},{"header":{"parameterUnit":"m.s-1","parameterCategory":1,"la1":30.6,"la2":28.766,"lo1":-90.7593,"lo2":-88.6598,"dy":0.0162,"dx":0.0183,"nx":116,"ny":114,"refTime":"2023-08-18T06:00:00:Z","depth":0,"parameterNumber":3,"parameterNumberName":"V-component_of_WINDS"},"data":[0.0,0.0,0.0,0.0,0.0,0.0,0.0,0.0,0.0,0.0,0.0,0.0,0.0,0.0,0.0,0.0,0.0,0.0,0.0,0.0,0.0,0.0,0.0,0.0,0.0,0.0,0.0,0.0,0.0,0.0,0.0,0.0,0.0,0.0,0.0,0.0,0.0,0.0,0.0,0.0,0.0,0.0,0.0,0.0,0.0,0.0,0.0,0.0,0.0,0.0,0.0,0.0,0.0,0.0,0.0,0.0,0.0,0.0,0.0,0.0,0.0,0.0,0.0,0.0,0.0,0.0,0.0,0.0,0.0,0.0,0.0,0.0,0.0,0.0,0.0,0.0,0.0,0.0,0.0,0.0,0.0,0.0,0.0,0.0,0.0,0.0,0.0,0.0,0.0,0.0,0.0,0.0,0.0,0.0,0.0,0.0,0.0,0.0,0.0,0.0,0.0,0.0,0.0,0.0,0.0,0.0,0.0,0.0,0.0,0.0,0.0,0.0,0.0,0.0,0.0,0.0,0.0,0.0,0.0,0.0,0.0,0.0,0.0,0.0,0.0,0.0,0.0,0.0,0.0,0.0,0.0,0.0,0.0,0.0,0.0,0.0,0.0,0.0,0.0,0.0,0.0,0.0,0.0,0.0,0.0,0.0,0.0,0.0,0.0,0.0,0.0,0.0,0.0,0.0,0.0,0.0,0.0,0.0,0.0,0.0,0.0,0.0,0.0,0.0,0.0,0.0,0.0,0.0,0.0,0.0,0.0,0.0,0.0,0.0,0.0,0.0,0.0,0.0,0.0,0.0,0.0,0.0,0.0,0.0,0.0,0.0,0.0,0.0,0.0,0.0,0.0,0.0,0.0,0.0,0.0,0.0,0.0,0.0,0.0,0.0,0.0,0.0,0.0,0.0,0.0,0.0,0.0,0.0,0.0,0.0,0.0,0.0,0.0,0.0,0.0,0.0,0.0,0.0,0.0,0.0,0.0,0.0,0.0,0.0,0.0,0.0,0.0,0.0,0.0,0.0,0.0,0.0,0.0,0.0,0.0,0.0,0.0,0.0,0.0,0.0,0.0,0.0,0.0,0.0,0.0,0.0,0.0,0.0,0.0,0.0,0.0,0.0,0.0,0.0,0.0,0.0,0.0,0.0,0.0,0.0,0.0,0.0,0.0,0.0,0.0,0.0,0.0,0.0,0.0,0.0,0.0,0.0,0.0,0.0,0.0,0.0,0.0,0.0,0.0,0.0,0.0,0.0,0.0,0.0,0.0,0.0,0.0,0.0,0.0,0.0,0.0,0.0,0.0,0.0,0.0,0.0,0.0,0.0,0.0,0.0,0.0,0.0,0.0,0.0,0.0,0.0,0.0,0.0,0.0,0.0,0.0,0.0,0.0,0.0,0.0,0.0,0.0,0.0,0.0,0.0,0.0,0.0,0.0,0.0,0.0,0.0,0.0,0.0,0.0,0.0,0.0,0.0,0.0,0.0,0.0,0.0,0.0,0.0,0.0,0.0,0.0,0.0,0.0,0.0,0.0,0.0,0.0,0.0,0.0,0.0,0.0,0.0,0.0,0.0,0.0,0.0,0.0,0.0,0.0,0.0,0.0,0.0,0.0,0.0,0.0,0.0,0.0,0.0,0.0,0.0,0.0,0.0,0.0,0.0,0.0,0.0,0.0,0.0,0.0,0.0,0.0,0.0,0.0,0.0,0.0,0.0,0.0,0.0,0.0,0.0,0.0,0.0,0.0,0.0,0.0,0.0,0.0,0.0,0.0,0.0,0.0,0.0,0.0,0.0,0.0,0.0,0.0,0.0,0.0,0.0,0.0,0.0,0.0,0.0,0.0,0.0,0.0,0.0,0.0,0.0,0.0,0.0,0.0,0.0,0.0,0.0,0.0,0.0,0.0,0.0,0.0,0.0,0.0,0.0,0.0,0.0,0.0,0.0,0.0,0.0,0.0,0.0,0.0,0.0,0.0,0.0,0.0,0.0,0.0,0.0,0.0,0.0,0.0,0.0,0.0,0.0,0.0,0.0,0.0,0.0,0.0,0.0,0.0,0.0,0.0,0.0,0.0,0.0,0.0,0.0,0.0,0.0,0.0,0.0,0.0,0.0,0.0,0.0,0.0,0.0,0.0,0.0,0.0,0.0,0.0,0.0,0.0,0.0,0.0,0.0,0.0,0.0,0.0,0.0,0.0,0.0,0.0,0.0,0.0,0.0,0.0,0.0,0.0,0.0,0.0,0.0,0.0,0.0,0.0,0.0,0.0,0.0,0.0,0.0,0.0,0.0,0.0,0.0,0.0,0.0,0.0,0.0,0.0,0.0,0.0,0.0,0.0,0.0,0.0,0.0,0.0,0.0,0.0,0.0,0.0,0.0,0.0,0.0,0.0,0.0,0.0,0.0,0.0,0.0,0.0,0.0,0.0,0.0,0.0,0.0,0.0,0.0,0.0,0.0,0.0,0.0,0.0,0.0,0.0,0.0,0.0,0.0,0.0,0.0,0.0,0.0,0.0,0.0,0.0,0.0,0.0,0.0,0.0,0.0,0.0,0.0,0.0,0.0,0.0,0.0,0.0,0.0,0.0,0.0,0.0,0.0,0.0,0.0,0.0,0.0,0.0,0.0,0.0,0.0,0.0,0.0,0.0,0.0,0.0,0.0,0.0,0.0,0.0,0.0,0.0,0.0,0.0,0.0,0.0,0.0,0.0,0.0,0.0,0.0,0.0,0.0,0.0,0.0,0.0,0.0,0.0,0.0,0.0,0.0,0.0,0.0,0.0,0.0,0.0,0.0,0.0,0.0,0.0,0.0,0.0,0.0,0.0,0.0,0.0,0.0,0.0,0.0,0.0,0.0,0.0,0.0,0.0,0.0,0.0,0.0,0.0,0.0,0.0,0.0,0.0,0.0,0.0,0.0,0.0,0.0,0.0,0.0,0.0,0.0,0.0,0.0,0.0,0.0,0.0,0.0,0.0,0.0,0.0,0.0,0.0,0.0,0.0,0.0,0.0,0.0,0.0,0.0,0.0,0.0,0.0,0.0,0.0,0.0,0.0,0.0,0.0,0.0,0.0,0.0,0.0,0.0,0.0,0.0,0.0,0.0,0.0,0.0,0.0,0.0,0.0,0.0,0.0,0.0,0.0,0.0,0.0,0.0,0.0,0.0,0.0,0.0,0.0,0.0,0.0,0.0,0.0,0.0,0.0,0.0,0.0,0.0,0.0,0.0,0.0,0.0,0.0,0.0,0.0,0.0,0.0,0.0,0.0,0.0,0.0,0.0,0.0,0.0,0.0,0.0,0.0,0.0,0.0,0.0,0.0,0.0,0.0,0.0,0.0,0.0,0.0,0.0,0.0,0.0,0.0,0.0,0.0,0.0,0.0,0.0,0.0,0.0,0.0,0.0,0.0,0.0,0.0,0.0,0.0,0.0,0.0,0.0,0.0,0.0,0.0,0.0,0.0,0.0,0.0,0.0,0.0,0.0,0.0,0.0,0.0,0.0,0.0,0.0,0.0,0.0,0.0,0.0,0.0,0.0,0.0,0.0,0.0,0.0,0.0,0.0,0.0,0.0,0.0,0.0,0.0,0.0,0.0,0.0,0.0,0.0,0.0,0.0,0.0,0.0,0.0,0.0,0.0,0.0,0.0,0.0,0.0,0.0,0.0,0.0,0.0,0.0,0.0,0.0,0.0,0.0,0.0,0.0,0.0,0.0,0.0,0.0,0.0,0.0,0.0,0.0,0.0,0.0,0.0,0.0,0.0,0.0,0.0,0.0,0.0,0.0,0.0,0.0,0.0,0.0,0.0,0.0,0.0,0.0,0.0,0.0,0.0,0.0,0.0,0.0,0.0,0.0,0.0,0.0,0.0,0.0,0.0,0.0,0.0,0.0,0.0,0.0,0.0,0.0,0.0,0.0,0.0,0.0,0.0,0.0,0.0,0.0,0.0,0.0,0.0,0.0,0.0,0.0,0.0,0.0,0.0,0.0,0.0,0.0,0.0,0.0,0.0,0.0,0.0,0.0,0.0,0.0,0.0,0.0,0.0,0.0,0.0,0.0,0.0,0.0,0.0,0.0,0.0,0.0,0.0,0.0,0.0,0.0,0.0,0.0,0.0,0.0,0.0,0.0,0.0,0.0,0.0,0.0,0.0,0.0,0.0,0.0,0.0,0.0,0.0,0.0,0.0,0.0,0.0,0.0,0.0,0.0,0.0,0.0,0.0,0.0,0.0,0.0,0.0,0.0,0.0,0.0,0.0,0.0,0.0,0.0,0.0,0.0,0.0,0.0,0.0,0.0,0.0,0.0,0.0,0.0,0.0,0.0,0.0,0.0,0.0,0.0,0.0,0.0,0.0,0.0,0.0,0.0,0.0,0.0,0.0,0.0,0.0,0.0,0.0,0.0,0.0,0.0,0.0,0.0,0.0,0.0,0.0,0.0,0.0,0.0,0.0,0.0,0.0,0.0,0.0,0.0,0.0,0.0,0.0,0.0,0.0,0.0,0.0,0.0,0.0,0.0,0.0,0.0,0.0,0.0,0.0,0.0,0.0,0.0,0.0,0.0,0.0,0.0,0.0,0.0,0.0,0.0,0.0,0.0,0.0,0.0,0.0,0.0,0.0,0.0,0.0,0.0,0.0,0.0,0.0,0.0,0.0,0.0,0.0,0.0,0.0,0.0,0.0,0.0,0.0,0.0,0.0,0.0,0.0,0.0,0.0,0.0,0.0,0.0,0.0,0.0,0.0,0.0,0.0,0.0,0.0,0.0,0.0,0.0,0.0,0.0,0.0,0.0,0.0,0.0,0.0,0.0,0.0,0.0,0.0,0.0,0.0,0.0,0.0,0.0,0.0,0.0,0.0,0.0,0.0,0.0,0.0,0.0,0.0,0.0,0.0,0.0,0.0,0.0,0.0,0.0,0.0,0.0,0.0,0.0,0.0,0.0,0.0,0.0,0.0,0.0,0.0,0.0,0.0,0.0,0.0,0.0,0.0,0.0,0.0,0.0,0.0,0.0,0.0,0.0,0.0,0.0,0.0,0.0,0.0,0.0,0.0,0.0,0.0,0.0,0.0,0.0,0.0,0.0,0.0,0.0,0.0,0.0,0.0,0.0,0.0,0.0,0.0,0.0,0.0,0.0,0.0,0.0,0.0,0.0,0.0,0.0,0.0,0.0,0.0,0.0,0.0,0.0,0.0,0.0,0.0,0.0,0.0,0.0,0.0,0.0,0.0,0.0,0.0,0.0,0.0,0.0,0.0,0.0,0.0,0.0,0.0,0.0,0.0,0.0,0.0,0.0,0.0,0.0,0.0,0.0,0.0,0.0,0.0,0.0,0.0,0.0,0.0,0.0,0.0,0.0,0.0,0.0,0.0,0.0,0.0,0.0,0.0,0.0,0.0,0.0,0.0,0.0,0.0,0.0,0.0,0.0,0.0,0.0,0.0,0.0,0.0,0.0,0.0,0.0,0.0,0.0,0.0,0.0,0.0,0.0,0.0,0.0,0.0,0.0,0.0,0.0,0.0,0.0,0.0,0.0,0.0,0.0,0.0,0.0,0.0,0.0,0.0,0.0,0.0,0.0,0.0,0.0,0.0,0.0,0.0,0.0,0.0,0.0,0.0,0.0,0.0,0.0,0.0,0.0,0.0,0.0,0.0,0.0,0.0,0.0,0.0,0.0,0.0,0.0,0.0,0.0,0.0,0.0,0.0,0.0,0.0,0.0,0.0,0.0,0.0,0.0,0.0,0.0,0.0,0.0,0.0,0.0,0.0,0.0,0.0,0.0,0.0,0.0,0.0,0.0,0.0,0.0,0.0,0.0,0.0,0.0,0.0,0.0,0.0,0.0,0.0,0.0,0.0,0.0,0.0,0.0,0.0,0.0,0.0,0.0,0.0,0.0,0.0,0.0,0.0,0.0,0.0,0.0,0.0,0.0,0.0,0.0,0.0,0.0,0.0,0.0,0.0,0.0,0.0,0.0,0.0,0.0,0.0,0.0,0.0,0.0,0.0,0.0,0.0,0.0,0.0,0.0,0.0,0.0,0.0,0.0,0.0,0.0,0.0,0.0,0.0,0.0,0.0,0.0,0.0,0.0,0.0,0.0,0.0,0.0,2.9452,0.0,0.0,0.0,0.0,0.0,0.0,0.0,0.0,0.0,0.0,0.0,0.0,0.0,0.0,0.0,0.0,0.0,0.0,0.0,0.0,0.0,0.0,0.0,0.0,0.0,0.0,0.0,0.0,0.0,0.0,0.0,0.0,0.0,0.0,0.0,0.0,0.0,0.0,0.0,0.0,0.0,0.0,0.0,0.0,0.0,0.0,0.0,0.0,0.0,0.0,0.0,0.0,0.0,0.0,0.0,0.0,0.0,0.0,0.0,0.0,0.0,0.0,0.0,0.0,0.0,0.0,0.0,0.0,0.0,0.0,0.0,0.0,0.0,0.0,0.0,0.0,0.0,0.0,0.0,0.0,0.0,0.0,0.0,0.0,0.0,0.0,0.0,0.0,0.0,0.0,0.0,0.0,0.0,0.0,0.0,0.0,0.0,0.0,0.0,0.0,0.0,0.0,0.0,0.0,0.0,0.0,0.0,0.0,0.0,0.0,0.0,0.0,0.0,0.0,0.0,0.0,3.116,0.0,0.0,0.0,0.0,0.0,0.0,0.0,0.0,0.0,0.0,0.0,0.0,0.0,0.0,0.0,0.0,0.0,0.0,0.0,0.0,0.0,0.0,0.0,0.0,0.0,0.0,0.0,0.0,0.0,0.0,0.0,0.0,0.0,0.0,0.0,0.0,0.0,0.0,0.0,0.0,0.0,0.0,0.0,0.0,0.0,0.0,0.0,0.0,0.0,0.0,0.0,0.0,0.0,0.0,0.0,0.0,0.0,0.0,0.0,0.0,0.0,0.0,0.0,0.0,0.0,0.0,0.0,0.0,0.0,0.0,0.0,0.0,0.0,0.0,0.0,0.0,0.0,0.0,0.0,0.0,0.0,0.0,0.0,0.0,0.0,0.0,0.0,0.0,0.0,0.0,0.0,0.0,0.0,0.0,0.0,0.0,0.0,0.0,0.0,0.0,0.0,0.0,0.0,0.0,0.0,0.0,0.0,0.0,3.957,3.9436,3.8043,3.9421,3.9635,3.8769,3.6476,3.5246,3.4735,3.3197,0.0,0.0,0.0,0.0,0.0,0.0,0.0,0.0,0.0,0.0,0.0,0.0,0.0,0.0,0.0,0.0,0.0,0.0,0.0,0.0,0.0,0.0,0.0,0.0,0.0,0.0,0.0,0.0,0.0,0.0,0.0,0.0,0.0,0.0,0.0,0.0,0.0,0.0,3.7744,3.8275,3.755,3.5756,0.0,0.0,0.0,0.0,0.0,0.0,0.0,0.0,0.0,0.0,0.0,0.0,0.0,0.0,0.0,0.0,0.0,0.0,0.0,0.0,0.0,0.0,0.0,0.0,0.0,0.0,0.0,0.0,0.0,0.0,0.0,0.0,0.0,0.0,0.0,0.0,0.0,0.0,0.0,0.0,0.0,0.0,0.0,0.0,3.6458,3.6994,0.0,0.0,0.0,0.0,0.0,0.0,0.0,0.0,0.0,0.0,0.0,0.0,0.0,3.6156,3.7331,3.941,4.0543,4.0655,4.283,4.3687,4.342,4.3264,4.3337,4.3614,4.3872,0.0,3.8048,3.6884,0.0,0.0,0.0,0.0,0.0,0.0,0.0,0.0,0.0,0.0,0.0,0.0,0.0,0.0,0.0,0.0,0.0,0.0,0.0,0.0,0.0,0.0,0.0,0.0,0.0,0.0,0.0,0.0,0.0,0.0,0.0,0.0,0.0,0.0,0.0,0.0,3.8682,4.0248,4.0776,4.0829,4.0261,3.9247,3.8765,3.7289,3.5068,3.3645,0.0,0.0,0.0,0.0,0.0,0.0,0.0,0.0,0.0,0.0,0.0,0.0,0.0,0.0,0.0,0.0,0.0,0.0,0.0,0.0,0.0,0.0,0.0,0.0,0.0,0.0,0.0,0.0,0.0,0.0,0.0,0.0,0.0,0.0,0.0,0.0,0.0,0.0,0.0,3.5987,3.7727,3.7126,3.7175,3.6471,0.0,0.0,0.0,0.0,0.0,0.0,0.0,0.0,0.0,3.8856,3.9789,4.0823,4.2137,4.3796,4.4743,4.513,4.6433,4.6853,4.6415,4.6698,4.6615,4.6439,4.6506,4.5444,4.3409,4.0939,3.8301,3.5653,0.0,0.0,0.0,0.0,3.3059,3.4066,0.0,0.0,0.0,0.0,0.0,0.0,0.0,0.0,0.0,0.0,0.0,0.0,0.0,0.0,0.0,3.7978,0.0,0.0,0.0,0.0,0.0,0.0,0.0,0.0,0.0,0.0,0.0,0.0,4.1891,4.2879,4.3046,4.2523,4.1886,4.1262,4.1411,3.9721,3.6655,3.5948,3.4059,0.0,0.0,0.0,0.0,0.0,0.0,0.0,0.0,0.0,0.0,0.0,0.0,0.0,0.0,0.0,0.0,0.0,0.0,0.0,0.0,0.0,0.0,0.0,0.0,0.0,0.0,0.0,0.0,0.0,0.0,0.0,0.0,0.0,0.0,0.0,0.0,0.0,0.0,3.7886,3.9585,3.7896,3.9216,3.9005,0.0,0.0,0.0,0.0,0.0,0.0,3.9878,3.9737,4.0719,4.3128,4.3917,4.4982,4.6277,4.7283,4.8002,4.842,4.9008,4.8998,4.8415,4.9032,4.8933,4.8161,4.7905,4.761,4.7064,4.4164,4.184,3.9823,3.7068,3.5526,3.4919,3.5705,3.6188,3.6841,0.0,0.0,0.0,0.0,0.0,0.0,0.0,0.0,0.0,0.0,0.0,0.0,0.0,0.0,3.7995,3.8695,4.0008,4.0214,0.0,0.0,0.0,0.0,0.0,0.0,0.0,0.0,0.0,4.2877,4.3006,4.3421,4.4008,0.0,0.0,0.0,0.0,0.0,0.0,0.0,0.0,0.0,0.0,0.0,0.0,0.0,0.0,0.0,0.0,0.0,0.0,0.0,0.0,0.0,0.0,0.0,0.0,0.0,0.0,0.0,0.0,0.0,0.0,0.0,0.0,0.0,0.0,0.0,0.0,0.0,0.0,0.0,0.0,0.0,0.0,0.0,0.0,0.0,0.0,0.0,0.0,4.0488,4.3221,0.0,0.0,0.0,0.0,4.0122,4.0686,4.2044,4.4328,4.4485,4.5226,4.6947,4.7051,4.7409,4.8041,4.8682,4.9008,4.9048,4.9584,4.9858,4.9824,4.9858,4.9584,4.9053,4.9035,4.8368,4.7187,4.5917,4.3743,4.1053,4.0345,3.9067,3.7604,3.7654,3.8377,3.9464,0.0,0.0,0.0,0.0,0.0,0.0,0.0,0.0,0.0,0.0,0.0,0.0,0.0,3.7627,3.902,3.8816,4.051,4.0948,0.0,0.0,0.0,0.0,0.0,0.0,0.0,0.0,4.2828,4.4269,4.3997,0.0,0.0,0.0,0.0,0.0,0.0,0.0,0.0,0.0,0.0,0.0,0.0,0.0,0.0,0.0,0.0,0.0,0.0,0.0,0.0,0.0,0.0,0.0,0.0,0.0,0.0,0.0,0.0,0.0,0.0,0.0,0.0,0.0,0.0,0.0,0.0,0.0,0.0,0.0,0.0,0.0,0.0,0.0,0.0,0.0,0.0,0.0,0.0,0.0,0.0,4.2597,4.5511,0.0,4.2462,4.2473,4.29,4.3453,4.3848,4.4931,4.6865,4.697,4.7427,4.8433,4.846,4.8368,4.8185,4.8394,4.8316,4.7963,4.8159,4.825,4.8237,4.7858,4.7909,4.82,4.7043,4.6642,4.6703,4.5526,4.4606,4.3955,4.3014,4.206,4.1093,4.0783,4.0919,4.1285,0.0,0.0,0.0,0.0,0.0,0.0,0.0,0.0,0.0,0.0,0.0,3.5409,3.628,3.8277,3.9475,3.925,0.0,0.0,0.0,0.0,0.0,0.0,0.0,0.0,0.0,4.2593,4.3628,0.0,0.0,0.0,0.0,0.0,0.0,0.0,0.0,0.0,0.0,0.0,0.0,0.0,0.0,0.0,3.2305,0.0,0.0,0.0,0.0,0.0,0.0,0.0,0.0,0.0,0.0,0.0,0.0,0.0,0.0,0.0,0.0,0.0,0.0,0.0,0.0,0.0,0.0,0.0,0.0,0.0,0.0,0.0,0.0,0.0,0.0,0.0,0.0,0.0,0.0,0.0,4.6282,4.4253,4.7568,4.8642,4.5207,4.5941,4.6734,4.7105,4.7363,4.8124,4.9449,4.9029,4.8852,4.9074,4.8891,4.8407,4.761,4.7806,4.761,4.7048,4.7092,4.7162,4.7136,4.6869,4.6866,4.6967,4.5777,4.5488,4.5781,4.4797,4.4745,4.5229,4.444,4.3796,4.3217,4.269,4.2216,4.1847,0.0,0.0,0.0,0.0,0.0,0.0,0.0,0.0,0.0,0.0,0.0,3.547,3.7982,3.8625,3.9212,0.0,0.0,0.0,0.0,0.0,0.0,0.0,0.0,0.0,4.0603,4.2715,0.0,0.0,0.0,0.0,0.0,0.0,0.0,0.0,0.0,0.0,0.0,0.0,0.0,0.0,0.0,0.0,3.5955,0.0,0.0,0.0,0.0,0.0,0.0,0.0,0.0,0.0,0.0,0.0,0.0,0.0,0.0,0.0,0.0,0.0,0.0,0.0,0.0,0.0,0.0,0.0,0.0,0.0,0.0,0.0,0.0,0.0,0.0,0.0,0.0,0.0,4.33,4.6114,4.7609,4.5654,4.9505,5.09,4.7159,4.9333,5.0943,5.0916,5.1135,5.1496,5.1989,5.0629,4.9657,4.9107,4.8518,4.7668,4.6542,4.7022,4.7022,4.6503,4.6757,4.6843,4.6829,4.7081,4.6608,4.5542,4.5529,4.5209,4.4663,4.3999,4.4157,4.4676,4.465,4.4291,4.3719,4.3184,4.2212,4.1093,0.0,0.0,0.0,0.0,0.0,0.0,0.0,0.0,0.0,0.0,3.6464,3.7005,3.7182,3.8312,0.0,0.0,0.0,0.0,0.0,0.0,0.0,0.0,0.0,0.0,0.0,0.0,0.0,0.0,0.0,0.0,0.0,0.0,0.0,0.0,0.0,0.0,0.0,0.0,0.0,0.0,0.0,0.0,3.8665,0.0,0.0,0.0,0.0,0.0,0.0,0.0,0.0,0.0,0.0,0.0,0.0,0.0,0.0,0.0,0.0,0.0,0.0,0.0,0.0,0.0,0.0,0.0,0.0,0.0,0.0,0.0,0.0,0.0,0.0,0.0,0.0,4.7106,4.7323,4.9301,5.0713,5.0634,5.2171,5.2848,5.1787,5.182,5.1755,5.1266,5.0689,5.0233,4.9921,4.9544,4.9036,4.8497,4.8311,4.7817,4.7076,4.7221,4.7023,4.6467,4.6138,4.5754,4.5276,4.4904,4.4688,4.4562,4.4184,4.4272,4.46,4.3561,4.348,4.4061,4.4033,4.3693,4.3158,4.2585,4.155,4.0494,0.0,0.0,0.0,0.0,0.0,0.0,0.0,0.0,0.0,0.0,3.683,3.7172,3.7598,3.8309,0.0,0.0,0.0,0.0,0.0,0.0,0.0,0.0,0.0,4.1582,0.0,0.0,0.0,0.0,0.0,0.0,0.0,0.0,0.0,0.0,0.0,0.0,0.0,0.0,0.0,0.0,0.0,0.0,4.1568,4.0622,3.9753,3.9057,3.9057,3.8701,3.8092,3.756,0.0,0.0,0.0,0.0,0.0,0.0,0.0,0.0,0.0,0.0,0.0,0.0,0.0,0.0,0.0,0.0,0.0,0.0,0.0,0.0,0.0,0.0,0.0,0.0,4.8537,5.0665,5.178,5.2679,5.3552,5.4464,5.4453,5.4332,5.4332,5.3228,5.2336,5.1998,5.1111,5.038,5.0046,4.9449,4.8832,4.8219,4.7966,4.7271,4.6207,4.6433,4.6208,4.5342,4.4887,4.4592,4.4447,4.4012,4.3896,4.402,4.3669,4.4058,4.4834,4.387,4.3889,0.0,0.0,0.0,0.0,0.0,4.1644,4.128,0.0,0.0,0.0,0.0,0.0,0.0,0.0,0.0,0.0,0.0,0.0,3.6856,3.8541,0.0,0.0,0.0,0.0,0.0,0.0,0.0,0.0,4.0076,4.0795,0.0,0.0,0.0,0.0,0.0,0.0,0.0,0.0,0.0,0.0,0.0,0.0,0.0,0.0,0.0,0.0,0.0,0.0,0.0,4.4172,4.3121,4.2269,4.1691,4.1769,4.0987,4.0006,4.0416,0.0,0.0,0.0,0.0,0.0,0.0,0.0,0.0,0.0,0.0,0.0,0.0,0.0,0.0,0.0,0.0,0.0,0.0,0.0,0.0,0.0,0.0,0.0,0.0,5.2603,5.4449,5.6058,5.59,5.5961,5.6839,5.6037,5.5361,5.5361,5.3924,5.2916,5.2684,5.1932,5.1359,5.1188,0.0,0.0,0.0,0.0,4.6355,4.4808,4.5221,4.4835,4.3808,4.3466,4.3561,4.4088,4.3862,4.3785,4.3785,4.3785,4.4242,4.5002,4.4452,4.4673,4.5248,4.3615,4.2637,4.206,4.1744,4.2095,4.2645,0.0,0.0,0.0,0.0,0.0,0.0,0.0,0.0,0.0,3.8034,3.8428,3.8574,3.826,0.0,0.0,0.0,0.0,0.0,0.0,0.0,3.9428,4.054,4.0653,0.0,0.0,0.0,0.0,0.0,0.0,0.0,0.0,0.0,0.0,0.0,0.0,0.0,0.0,0.0,0.0,0.0,0.0,0.0,4.4145,4.5012,4.5261,4.5211,4.5878,4.5941,4.5515,4.4414,4.4363,4.4536,4.3297,0.0,0.0,0.0,0.0,0.0,0.0,0.0,0.0,0.0,0.0,0.0,0.0,0.0,0.0,0.0,0.0,0.0,0.0,0.0,0.0,5.1549,5.379,5.5798,5.7748,5.7955,5.733,5.5779,5.5389,5.5224,5.5224,5.4902,5.4131,5.2715,5.2463,5.1735,5.0319,4.9069,4.8311,4.819,4.6744,4.577,4.5432,4.4567,4.4026,4.3783,0.0,0.0,4.35,4.3622,4.3726,4.3726,4.3726,4.3814,4.3977,4.3861,4.3935,4.4023,4.3672,4.3168,4.2639,4.2553,4.2376,4.2063,0.0,0.0,0.0,0.0,0.0,0.0,0.0,0.0,0.0,0.0,3.854,3.8652,0.0,0.0,0.0,0.0,0.0,0.0,0.0,3.9915,4.0399,4.1219,0.0,0.0,0.0,0.0,0.0,0.0,0.0,0.0,0.0,0.0,0.0,0.0,0.0,0.0,0.0,0.0,0.0,0.0,0.0,0.0,4.3675,4.563,4.6371,4.6452,4.7533,4.7704,4.7259,4.6422,4.6617,4.7008,4.624,4.6468,4.6432,0.0,0.0,0.0,0.0,0.0,0.0,0.0,0.0,0.0,0.0,0.0,0.0,0.0,0.0,4.5709,0.0,0.0,5.1125,5.397,5.5341,5.645,5.7807,5.7995,5.7806,5.7278,5.678,5.6397,5.6306,5.5571,5.4754,5.3845,5.3528,5.2905,5.1974,5.0515,4.9808,4.9977,4.7891,4.6778,4.6827,4.5394,4.4574,4.428,4.3454,4.3266,4.3655,4.3502,4.3628,4.4005,4.4005,4.4275,4.478,4.4907,4.4935,4.4905,4.4589,4.4131,4.3637,4.3419,4.3444,4.3509,0.0,0.0,0.0,0.0,0.0,0.0,0.0,0.0,0.0,0.0,0.0,3.8439,0.0,0.0,0.0,0.0,0.0,0.0,0.0,4.0643,4.1261,4.2067,0.0,0.0,0.0,0.0,0.0,0.0,0.0,0.0,0.0,0.0,0.0,0.0,0.0,0.0,0.0,0.0,0.0,0.0,0.0,0.0,4.3452,4.6067,4.6874,4.6792,4.8226,4.8366,4.7861,4.7882,4.8265,4.8746,4.9044,4.9227,4.8845,4.6432,4.6183,0.0,0.0,0.0,0.0,0.0,0.0,0.0,0.0,0.0,4.4549,4.7153,4.8137,4.9403,5.2309,5.2965,5.3868,5.6275,5.6761,5.7042,5.7606,5.7637,5.7902,5.8658,5.8109,5.7588,5.7415,5.626,5.5389,5.5167,5.4575,5.4067,5.37,5.1988,5.1209,5.1672,4.9165,4.7877,4.8041,4.6293,4.5155,4.4749,4.3566,4.3426,4.4139,4.3714,4.3923,4.4641,4.4522,4.4944,4.57,4.5897,4.5999,4.5953,4.546,4.501,4.4625,4.4288,4.4594,4.5058,0.0,0.0,0.0,0.0,0.0,0.0,0.0,0.0,0.0,0.0,0.0,0.0,0.0,0.0,0.0,0.0,0.0,0.0,0.0,4.2328,4.2347,4.3093,0.0,0.0,0.0,0.0,0.0,0.0,0.0,0.0,0.0,0.0,0.0,0.0,0.0,0.0,0.0,0.0,0.0,0.0,0.0,0.0,4.4448,4.7306,4.7789,4.7132,4.8685,4.9167,4.9197,4.9826,4.9901,4.9958,5.1342,5.2047,5.1662,4.8234,0.0,4.6564,4.2785,4.2439,4.3804,4.6677,4.6124,4.6146,0.0,0.0,5.009,5.2235,5.2734,5.318,5.4326,5.5077,5.5844,5.6937,5.7645,5.8133,5.8212,5.8212,5.79,5.7151,5.7339,5.7508,5.7508,5.7335,5.681,5.5819,5.51,5.425,5.3236,5.1395,5.0692,5.1243,4.8864,4.7774,4.8258,4.5844,4.4608,4.452,4.4013,4.414,4.4785,4.4934,4.5354,4.5928,4.5354,4.516,4.5273,4.5323,4.5329,4.5313,4.5436,4.5436,4.5372,4.5161,4.5129,4.4995,0.0,0.0,0.0,0.0,0.0,0.0,0.0,0.0,0.0,0.0,0.0,0.0,0.0,0.0,0.0,0.0,0.0,0.0,4.2887,4.4122,4.463,4.4355,0.0,0.0,0.0,0.0,0.0,0.0,0.0,0.0,0.0,0.0,0.0,0.0,0.0,0.0,0.0,0.0,0.0,0.0,0.0,0.0,4.693,4.8021,4.8511,4.8668,4.8878,4.8662,0.0,0.0,4.926,4.9773,5.1298,5.1608,5.0998,4.8998,4.8396,0.0,4.6424,4.6233,4.6845,0.0,4.9398,5.0631,5.2977,5.3101,5.3316,5.5416,5.5736,5.5918,5.6701,5.7079,5.7425,0.0,5.8085,5.8321,5.8321,5.7911,5.7502,5.7065,5.7194,5.7275,5.712,5.6852,5.6727,5.6606,5.6,5.5318,5.4724,5.3315,5.2563,5.2658,5.0498,4.9484,4.9702,4.7297,4.6285,4.6707,4.5718,4.5673,4.6454,4.6131,4.5959,4.5945,4.5678,4.5552,4.5552,4.5552,4.5552,4.5552,4.5625,4.5662,4.5662,4.5589,4.5285,4.4766,0.0,0.0,0.0,0.0,0.0,0.0,0.0,0.0,0.0,0.0,0.0,0.0,0.0,0.0,0.0,0.0,0.0,0.0,0.0,4.4891,4.5812,4.5538,0.0,0.0,0.0,0.0,0.0,0.0,0.0,0.0,0.0,0.0,0.0,0.0,0.0,0.0,0.0,0.0,0.0,0.0,0.0,0.0,4.9338,4.9509,4.9596,4.9555,4.8662,4.8165,0.0,0.0,4.8102,4.8858,4.9938,5.0049,4.9611,4.8729,4.832,4.8201,4.8573,0.0,0.0,5.0158,5.2029,5.3773,5.4409,5.4835,5.5541,5.7093,5.7517,5.7732,5.8108,5.824,5.8384,5.8527,5.8559,5.8559,5.8559,5.7958,5.7374,5.6979,5.6757,5.6541,5.6361,5.6402,5.6599,5.6915,5.6283,5.58,5.5621,5.4664,5.3922,5.3561,5.1926,5.0951,5.0803,4.8686,4.7825,4.8153,4.6933,4.6733,4.735,4.6815,4.635,4.5936,4.5936,4.6008,4.6116,4.6116,4.6116,4.6116,4.6116,4.6116,4.61,4.5857,4.5338,4.4606,0.0,0.0,0.0,0.0,0.0,0.0,0.0,0.0,0.0,0.0,0.0,0.0,0.0,0.0,0.0,0.0,0.0,0.0,0.0,4.4168,4.4963,4.6484,4.5783,0.0,0.0,0.0,0.0,0.0,0.0,0.0,0.0,0.0,0.0,0.0,0.0,0.0,0.0,0.0,0.0,0.0,0.0,0.0,5.1239,5.2325,5.1335,4.9146,4.7895,0.0,0.0,0.0,4.691,4.7273,4.723,4.7675,0.0,4.7195,4.6447,0.0,0.0,0.0,5.0072,5.2944,5.3771,5.4429,5.6445,5.6905,5.6982,5.7185,5.7976,5.8502,5.8021,5.8119,5.8496,5.9159,5.9286,5.9286,5.9286,5.8685,5.7737,5.6378,5.5604,5.5149,0.0,5.6365,5.6915,5.6268,5.5557,5.5118,5.5118,5.4482,5.3803,5.3155,5.2396,5.1654,5.099,4.9568,4.8541,4.7925,4.7129,4.6819,4.6834,4.6803,4.6627,4.6285,4.6285,4.6512,4.6892,4.6892,4.6892,4.6892,4.6892,4.6892,4.6761,4.6065,4.5346,4.4606,0.0,0.0,0.0,0.0,0.0,0.0,0.0,0.0,0.0,0.0,0.0,0.0,0.0,0.0,0.0,0.0,0.0,0.0,0.0,4.5609,4.6725,4.7751,4.7527,4.7349,0.0,0.0,0.0,0.0,0.0,0.0,0.0,0.0,0.0,0.0,0.0,0.0,0.0,0.0,0.0,0.0,0.0,0.0,5.2886,5.2038,5.1384,5.0626,0.0,0.0,0.0,0.0,4.571,4.5546,4.7079,0.0,0.0,4.5693,4.6046,4.6813,4.7822,0.0,5.0656,5.3168,5.4601,5.5816,5.7535,5.7872,5.7949,5.8525,5.7613,5.6833,5.7162,5.6988,5.7158,5.8383,5.9113,5.9916,6.0881,6.0399,5.9418,5.7988,5.802,0.0,0.0,0.0,0.0,5.5462,5.4846,5.4451,5.4451,5.4513,5.4013,5.2809,5.2805,5.2259,5.1087,5.0161,4.9582,4.9336,4.8613,4.8003,4.7517,4.7517,4.7239,4.6703,4.6703,4.6772,4.6876,4.6876,4.6876,4.6876,4.6876,4.6585,4.6131,4.5888,4.5041,4.3987,0.0,0.0,0.0,0.0,0.0,0.0,0.0,0.0,0.0,0.0,0.0,0.0,0.0,0.0,0.0,0.0,0.0,0.0,0.0,0.0,4.6895,4.7984,4.8338,4.8462,0.0,0.0,0.0,0.0,0.0,0.0,0.0,0.0,0.0,0.0,0.0,0.0,0.0,0.0,0.0,0.0,0.0,0.0,5.3377,5.2107,5.1424,0.0,0.0,0.0,0.0,0.0,4.5047,4.4986,4.5968,4.5834,4.5376,4.5587,4.6502,4.7686,4.8916,5.0379,5.1987,5.3934,5.5353,5.654,5.7534,5.7688,5.7705,5.805,5.6707,5.5648,5.6201,5.5866,5.5979,5.7446,5.847,5.9611,6.1141,6.0766,5.9979,5.9096,5.9209,5.8513,0.0,0.0,0.0,5.5208,5.5033,5.4868,5.4571,5.4848,5.4356,5.2885,5.3154,5.2462,5.0762,5.0309,4.9823,4.9321,4.8609,4.801,4.7521,4.7521,4.7383,4.7082,4.7082,4.7252,4.7538,4.7538,4.7474,4.739,4.739,4.6944,4.6235,4.5971,4.5278,4.4471,0.0,0.0,0.0,0.0,0.0,0.0,0.0,0.0,0.0,0.0,0.0,0.0,0.0,0.0,0.0,0.0,0.0,0.0,0.0,0.0,0.0,4.7315,4.8234,4.8721,4.876,0.0,0.0,0.0,0.0,0.0,0.0,0.0,0.0,0.0,0.0,0.0,0.0,0.0,0.0,0.0,0.0,0.0,5.2716,5.2539,0.0,0.0,0.0,0.0,0.0,0.0,0.0,0.0,4.4203,4.4735,4.6096,4.69,4.7722,4.8812,5.0781,5.2458,5.3916,5.5185,5.5994,5.6521,5.6556,5.6556,5.6422,5.5897,5.5312,5.4971,0.0,0.0,5.5162,5.6629,5.7597,5.875,6.0437,6.0116,5.9767,0.0,0.0,0.0,0.0,0.0,0.0,5.5669,0.0,5.6138,5.5458,5.5377,5.4753,5.336,5.3285,5.2264,5.0188,5.0107,4.9377,4.7999,4.7355,4.7014,4.7014,4.7014,4.7202,4.7505,4.7505,4.7934,4.8683,4.8683,4.8521,4.8258,4.8258,4.7768,4.6942,4.6254,4.5992,4.5801,0.0,0.0,0.0,0.0,0.0,0.0,0.0,0.0,0.0,0.0,0.0,0.0,0.0,0.0,0.0,0.0,0.0,0.0,0.0,0.0,0.0,0.0,0.0,0.0,0.0,0.0,0.0,0.0,0.0,0.0,0.0,0.0,0.0,0.0,0.0,0.0,0.0,0.0,0.0,0.0,0.0,0.0,5.1818,0.0,0.0,0.0,0.0,0.0,0.0,0.0,0.0,0.0,0.0,4.7257,4.774,4.8561,4.9758,5.093,5.1444,5.2719,5.4136,5.5051,5.5415,5.5644,5.5992,5.6087,5.5971,5.5669,5.4528,5.3671,0.0,0.0,0.0,5.7432,5.9916,0.0,6.4434,6.4089,0.0,6.3022,0.0,6.1919,6.0085,6.0182,0.0,0.0,5.6758,5.562,5.5426,5.5189,5.4685,5.377,5.3025,5.2102,5.0999,5.0256,4.9693,4.9309,4.8927,4.8776,4.8776,4.8776,4.8807,4.8886,4.8886,4.8687,4.8392,4.8392,4.8009,4.7414,4.7414,4.6937,4.6254,4.6049,4.5651,4.52,0.0,0.0,0.0,0.0,0.0,0.0,0.0,0.0,0.0,0.0,0.0,0.0,0.0,0.0,0.0,0.0,0.0,0.0,0.0,0.0,0.0,0.0,0.0,0.0,0.0,0.0,0.0,0.0,0.0,0.0,0.0,0.0,0.0,0.0,0.0,0.0,0.0,0.0,0.0,0.0,0.0,0.0,0.0,0.0,0.0,0.0,0.0,0.0,0.0,0.0,0.0,4.912,4.9619,4.992,5.025,5.1059,0.0,5.2628,5.287,5.3806,5.4774,5.5116,5.5464,5.5606,5.5166,5.5241,5.5066,5.3862,5.2853,0.0,5.2172,5.3539,0.0,0.0,0.0,0.0,6.4769,6.4782,6.4414,0.0,6.4332,0.0,6.1858,6.1411,6.0933,0.0,5.8278,5.7078,5.6746,5.6292,5.5669,5.4918,5.4028,5.2874,5.148,5.0225,4.9622,4.9622,4.9457,4.9402,4.9402,4.9402,4.9402,4.9402,0.0,4.9282,4.9045,4.8736,4.8264,4.7679,4.7351,4.6746,4.6099,4.6099,4.5901,4.57,0.0,0.0,0.0,0.0,0.0,0.0,0.0,0.0,0.0,0.0,0.0,0.0,0.0,0.0,0.0,0.0,0.0,0.0,0.0,0.0,0.0,0.0,0.0,0.0,0.0,0.0,0.0,0.0,0.0,0.0,0.0,0.0,0.0,0.0,0.0,0.0,0.0,0.0,0.0,0.0,0.0,0.0,0.0,0.0,0.0,0.0,0.0,0.0,0.0,0.0,5.2752,5.1334,5.2098,5.259,5.3025,5.371,5.4049,5.4243,5.46,5.5317,5.5877,5.5534,5.6,5.6081,5.4437,5.4412,5.4045,5.1555,0.0,5.0874,5.061,5.2014,5.3956,5.6227,0.0,6.0281,6.3603,6.3982,6.4008,6.4225,6.477,6.4599,6.3261,6.1824,6.0932,6.0932,6.0107,5.9178,5.8302,5.7568,5.6713,5.5791,5.5057,5.3674,5.1586,5.0283,4.9594,4.9492,4.9568,4.9598,4.9598,4.9598,4.9598,4.9598,4.9536,4.9717,5.0035,4.9239,4.8705,4.8395,4.7638,4.6917,4.6295,4.6295,4.6447,4.6661,0.0,0.0,0.0,0.0,0.0,0.0,0.0,0.0,0.0,0.0,3.9699,0.0,0.0,0.0,0.0,0.0,0.0,0.0,0.0,0.0,0.0,0.0,0.0,0.0,0.0,0.0,0.0,0.0,0.0,0.0,0.0,0.0,0.0,0.0,0.0,0.0,0.0,0.0,0.0,0.0,0.0,0.0,0.0,0.0,0.0,0.0,0.0,0.0,0.0,0.0,5.444,5.448,5.5018,5.5052,5.4907,5.5053,5.5806,5.6482,5.5889,5.6787,5.7745,5.7025,5.6971,5.6569,5.4737,5.441,0.0,0.0,5.0743,5.0691,4.9196,5.1259,5.3956,5.6227,5.8457,6.1233,6.4988,6.4971,6.4796,0.0,0.0,0.0,0.0,0.0,0.0,0.0,6.081,5.9262,5.7585,5.6782,5.5483,5.3466,5.3261,5.2423,5.0817,5.0905,5.0645,4.9988,5.0425,5.0637,5.0637,5.0637,5.0637,5.0602,5.018,0.0,4.9994,4.8781,4.8246,4.8164,4.7381,4.6989,4.6865,4.6865,4.6888,4.6934,0.0,0.0,0.0,0.0,0.0,0.0,0.0,0.0,0.0,4.0169,4.0713,4.114,0.0,0.0,0.0,0.0,0.0,0.0,0.0,0.0,0.0,0.0,0.0,0.0,0.0,0.0,0.0,0.0,0.0,0.0,0.0,0.0,0.0,0.0,0.0,0.0,0.0,0.0,0.0,0.0,0.0,0.0,0.0,0.0,0.0,0.0,0.0,0.0,0.0,0.0,5.5956,5.6817,5.679,5.7146,5.7481,5.7313,5.7691,5.8116,5.7909,5.8438,5.8927,5.8546,5.813,5.7163,5.4591,0.0,0.0,0.0,4.9359,4.9611,4.838,5.026,0.0,5.4507,5.6455,5.9053,6.2951,0.0,0.0,0.0,0.0,0.0,0.0,0.0,6.1827,6.1827,6.0143,5.8847,5.8224,5.67,5.514,5.3615,5.28,5.2245,5.1963,5.1507,5.1107,5.0739,5.1132,5.1324,5.1324,5.1324,5.1324,5.1271,5.0602,0.0,5.0197,4.871,4.8116,4.8068,4.7301,4.6998,4.6998,4.6998,4.707,4.7143,0.0,0.0,0.0,0.0,0.0,0.0,0.0,3.8406,3.9067,4.0927,4.1767,4.2408,4.2952,4.4797,4.5905,0.0,0.0,0.0,0.0,0.0,0.0,0.0,0.0,0.0,0.0,0.0,0.0,0.0,0.0,0.0,0.0,0.0,0.0,0.0,0.0,0.0,0.0,0.0,0.0,0.0,0.0,0.0,0.0,0.0,0.0,0.0,0.0,0.0,0.0,0.0,5.6892,5.7945,5.7398,5.8353,5.9553,5.909,5.9339,5.9767,5.9758,5.9903,6.0031,5.9705,5.8999,5.7569,5.4418,5.3406,0.0,0.0,4.8109,4.8571,4.7784,4.9041,5.0858,0.0,5.3991,5.6297,0.0,0.0,0.0,0.0,0.0,0.0,0.0,0.0,0.0,6.1231,5.9115,5.8066,5.8673,5.6617,5.5138,5.4514,5.313,5.2664,5.3105,5.2121,5.1544,5.1384,5.1589,5.169,5.169,5.169,5.169,5.1637,5.0722,0.0,0.0,4.8739,4.8136,4.8207,4.7442,4.7156,4.7156,4.7156,4.7249,4.7385,0.0,0.0,0.0,0.0,0.0,0.0,0.0,3.8406,3.93,4.1767,4.2155,4.3088,4.54,4.5866,4.6604,0.0,0.0,0.0,0.0,0.0,0.0,0.0,0.0,0.0,0.0,0.0,0.0,0.0,0.0,0.0,0.0,0.0,0.0,0.0,0.0,0.0,0.0,0.0,0.0,0.0,0.0,0.0,0.0,0.0,0.0,0.0,0.0,0.0,0.0,0.0,0.0,5.7071,5.6302,5.7885,5.9882,5.9041,0.0,0.0,6.053,6.0937,6.1417,5.9977,5.8999,5.7569,5.4418,0.0,0.0,4.8029,4.7954,4.824,4.7247,4.7636,4.9053,0.0,0.0,5.4437,0.0,0.0,0.0,0.0,0.0,0.0,0.0,0.0,0.0,6.1069,5.8196,5.6807,5.7608,5.6095,5.5196,5.5124,5.4287,5.3495,5.2836,5.2719,5.2335,5.1665,5.169,5.169,5.169,5.169,5.169,5.1626,5.0325,0.0,0.0,4.8594,4.8157,4.8735,4.7961,4.7654,4.7654,4.7654,4.7654,4.7657,0.0,0.0,0.0,0.0,0.0,0.0,0.0,3.8406,3.9494,4.2578,4.2986,4.3957,4.6502,4.724,4.7842,0.0,0.0,0.0,0.0,0.0,0.0,0.0,0.0,0.0,0.0,0.0,0.0,0.0,0.0,0.0,0.0,0.0,0.0,0.0,0.0,0.0,0.0,0.0,0.0,0.0,0.0,0.0,0.0,0.0,0.0,0.0,0.0,0.0,0.0,0.0,0.0,0.0,5.4082,5.57,0.0,0.0,6.0194,6.1782,6.1927,6.2696,6.3152,6.1997,5.9871,5.7449,5.5231,0.0,5.0393,4.8024,4.7677,4.7671,4.7241,4.727,4.7891,0.0,0.0,0.0,0.0,0.0,0.0,0.0,0.0,0.0,0.0,0.0,6.0345,5.7943,5.6591,5.5917,5.5947,5.4542,5.3752,5.3752,5.3028,5.2664,5.2806,5.2538,5.2218,5.1938,5.2084,5.2174,5.2174,5.2174,5.1904,5.1405,5.038,0.0,0.0,4.8493,4.8254,4.8688,4.8376,4.8248,4.8248,4.8248,4.8248,4.8248,0.0,0.0,0.0,0.0,0.0,3.6397,3.8134,3.862,4.0014,4.3433,4.3666,4.4573,4.7376,4.7997,4.8425,4.893,0.0,0.0,0.0,0.0,0.0,0.0,0.0,0.0,0.0,0.0,0.0,4.7369,0.0,0.0,0.0,0.0,0.0,0.0,0.0,0.0,0.0,0.0,0.0,0.0,0.0,0.0,0.0,0.0,0.0,0.0,0.0,0.0,0.0,0.0,0.0,0.0,0.0,0.0,0.0,0.0,5.9611,6.1701,6.2372,6.3437,6.4155,6.3305,6.0682,5.7813,0.0,0.0,5.0171,4.8229,4.7684,4.7518,4.7428,4.7249,4.7361,0.0,0.0,5.0381,0.0,0.0,0.0,0.0,0.0,6.2544,0.0,6.1711,5.9273,5.5962,5.5602,5.5256,5.4687,5.358,5.2996,5.306,5.2326,5.2182,5.2695,5.2474,5.2369,5.2369,5.2627,5.2761,5.2761,5.2524,5.2105,5.1504,5.0447,0.0,0.0,4.858,4.8383,4.8605,4.8605,4.8605,4.8605,4.8605,4.8605,4.8605,0.0,0.0,0.0,0.0,0.0,0.0,0.0,3.912,4.0907,4.4345,4.4035,4.4792,4.8211,4.7822,4.8017,4.9732,0.0,0.0,0.0,0.0,0.0,0.0,0.0,0.0,0.0,0.0,0.0,4.7298,4.6449,4.6941,0.0,0.0,0.0,0.0,0.0,0.0,0.0,0.0,0.0,0.0,0.0,0.0,0.0,0.0,0.0,0.0,0.0,0.0,0.0,0.0,0.0,0.0,0.0,0.0,0.0,0.0,5.8837,6.2225,6.1427,6.2728,6.4094,6.3287,6.1269,5.8851,0.0,5.3979,5.1407,4.8667,4.8076,4.7995,4.7741,4.749,4.7549,4.8371,0.0,0.0,5.3467,0.0,0.0,0.0,0.0,5.9963,6.0306,5.9917,5.8619,5.6174,5.5585,0.0,5.4166,5.3645,5.3482,5.3699,5.2915,5.2498,5.2498,5.2842,5.2999,5.298,5.3263,5.3387,5.335,5.2556,5.2205,5.2095,0.0,0.0,0.0,4.8938,4.8587,4.8605,4.8605,4.8605,4.8605,4.8605,4.8605,4.8605,0.0,0.0,0.0,0.0,0.0,0.0,0.0,3.8751,4.049,4.2728,4.3771,4.4949,4.6581,4.7565,4.8334,4.8903,0.0,0.0,0.0,0.0,0.0,0.0,0.0,0.0,0.0,0.0,4.674,4.703,4.7347,4.8097,4.9253,4.926,4.9093,0.0,0.0,0.0,0.0,0.0,0.0,0.0,0.0,0.0,0.0,0.0,0.0,0.0,0.0,0.0,0.0,0.0,0.0,0.0,0.0,0.0,0.0,0.0,0.0,0.0,5.9832,6.0821,6.1581,6.0721,5.8528,5.623,5.491,5.2937,5.0988,4.9545,4.9711,5.006,4.9981,4.9884,5.0285,5.1697,5.1559,0.0,0.0,0.0,0.0,5.8921,6.1375,6.2687,0.0,0.0,5.9341,5.6918,5.611,5.5104,5.3705,5.3476,5.3435,5.3503,5.3264,5.3136,5.3136,5.3222,5.3263,5.3263,5.2793,5.2594,5.2557,5.1762,5.1079,0.0,0.0,0.0,0.0,4.8983,4.901,4.9214,4.9214,4.9214,4.9214,4.9214,4.9214,4.9214,0.0,0.0,0.0,0.0,0.0,0.0,0.0,3.8826,4.0732,4.243,4.4112,4.56,4.6739,4.7752,4.8607,4.9238,0.0,0.0,0.0,0.0,0.0,0.0,0.0,0.0,0.0,4.653,4.6896,4.6904,4.7764,4.8786,4.9952,4.9635,4.9665,4.9907,4.9024,0.0,0.0,0.0,0.0,0.0,0.0,0.0,5.0031,0.0,0.0,0.0,0.0,0.0,0.0,0.0,0.0,0.0,0.0,0.0,0.0,0.0,5.4859,0.0,0.0,5.9234,5.9985,5.944,5.7566,0.0,0.0,5.3161,5.1564,5.062,5.0824,5.1139,5.1027,5.1008,5.1341,5.2393,5.2375,0.0,0.0,0.0,0.0,5.9686,0.0,0.0,0.0,6.0738,5.9021,5.7233,5.6173,5.5012,5.3659,5.3719,5.3776,5.3776,5.3526,5.3259,5.2964,5.3082,5.2973,5.2639,5.2252,5.2103,5.2066,5.1249,5.0617,0.0,0.0,0.0,0.0,4.9241,4.9358,4.9509,4.9551,4.9551,4.9509,4.9509,4.9509,4.9509,0.0,0.0,0.0,0.0,0.0,0.0,0.0,0.0,0.0,4.2954,4.4698,4.6397,4.8075,4.8156,4.8705,0.0,0.0,0.0,0.0,0.0,0.0,0.0,0.0,0.0,0.0,4.6546,4.6951,4.6959,4.7771,4.8994,5.0573,4.9812,4.99,5.0633,4.9711,0.0,0.0,0.0,0.0,0.0,4.9778,5.0043,0.0,0.0,0.0,0.0,0.0,0.0,0.0,0.0,0.0,0.0,0.0,0.0,0.0,0.0,0.0,0.0,0.0,0.0,0.0,0.0,0.0,0.0,0.0,5.4277,0.0,5.176,5.1614,5.1599,5.1306,5.1231,5.1268,5.1324,5.1915,5.2692,0.0,5.5819,0.0,0.0,6.1022,0.0,6.087,5.9346,5.803,5.7223,5.5912,5.4783,5.3981,5.4233,5.4371,5.4315,5.3702,5.3043,5.2284,5.2512,5.223,5.143,5.1703,5.1834,5.1797,5.1005,5.0645,0.0,0.0,0.0,0.0,4.9667,4.9638,4.9521,4.9648,4.9638,4.9521,4.9521,4.9521,4.9551,0.0,0.0,0.0,0.0,0.0,0.0,0.0,0.0,0.0,0.0,4.2986,4.4841,4.586,4.7058,4.7937,0.0,0.0,0.0,0.0,0.0,0.0,0.0,0.0,0.0,0.0,4.6997,4.7433,4.7444,4.7731,4.8435,4.9461,4.9288,4.9622,5.0358,4.9532,0.0,0.0,0.0,0.0,0.0,5.0123,5.0236,0.0,0.0,0.0,0.0,4.9758,5.0197,0.0,0.0,0.0,0.0,0.0,0.0,0.0,0.0,5.285,5.285,5.454,0.0,5.5554,5.5554,5.5272,5.4597,0.0,5.347,5.3679,5.213,0.0,0.0,5.3618,5.3599,5.3805,5.4423,5.4162,5.4386,5.5901,0.0,0.0,6.2358,6.3106,6.2975,6.1682,6.0653,5.9418,5.7959,5.6387,5.513,5.4324,5.4356,5.4108,5.3506,5.3433,5.3253,5.2964,5.2379,5.1982,5.1776,5.135,5.1126,5.1122,5.0406,5.0085,0.0,0.0,0.0,4.9648,4.9788,4.9759,4.9682,4.9802,4.983,4.9802,4.9802,4.9802,4.9802,0.0,0.0,0.0,0.0,0.0,0.0,0.0,0.0,0.0,0.0,0.0,0.0,0.0,0.0,0.0,0.0,0.0,0.0,0.0,0.0,0.0,0.0,0.0,0.0,4.6813,4.7624,4.7688,4.6921,4.7743,4.8407,4.8876,4.9276,4.9904,5.0634,4.9828,4.9398,4.9321,4.973,5.0117,5.0412,4.9972,0.0,0.0,0.0,0.0,0.0,4.9509,4.9771,0.0,4.9659,4.979,5.0147,0.0,0.0,0.0,0.0,5.2813,5.317,5.3695,5.4108,5.4409,5.4409,5.4108,5.3601,5.27,0.0,0.0,0.0,0.0,0.0,0.0,0.0,5.454,5.4991,5.4991,0.0,0.0,0.0,6.0773,6.2857,6.2801,6.2388,0.0,6.0041,5.8689,5.8127,5.6211,5.4743,5.3983,5.3943,5.3599,5.2865,5.2511,5.2273,5.2156,5.1744,5.1341,5.0964,5.06,5.0435,5.0435,5.0079,4.9912,0.0,0.0,0.0,4.9802,4.9939,4.9912,4.9821,4.9939,4.9946,4.9912,4.9912,4.9912,4.9912,0.0,0.0,0.0,0.0,0.0,0.0,0.0,0.0,0.0,0.0,0.0,0.0,0.0,0.0,0.0,0.0,0.0,0.0,0.0,0.0,0.0,0.0,0.0,4.747,4.7337,4.8278,4.802,4.6449,4.8028,4.8799,4.8799,4.9551,5.0272,5.0897,5.032,5.006,5.0041,4.99,4.9911,5.0021,4.9776,0.0,0.0,0.0,0.0,0.0,0.0,0.0,0.0,4.9509,4.9509,4.9509,4.9509,0.0,0.0,0.0,0.0,0.0,5.3318,5.3789,5.4371,5.424,5.3695,5.3205,0.0,0.0,0.0,0.0,0.0,0.0,0.0,5.4503,0.0,0.0,0.0,0.0,6.036,6.0154,6.0473,6.2632,6.1656,0.0,6.1412,5.8838,5.7354,5.7954,5.5697,5.4035,5.3462,5.3311,5.2919,5.2215,5.1504,5.1012,5.0789,5.087,5.058,4.9912,4.9925,4.9939,4.992,4.9946,4.9946,4.9946,0.0,0.0,4.9952,5.0082,5.0057,4.9952,5.0101,5.0089,4.998,5.0019,5.0031,5.0044,0.0,0.0,0.0,0.0,0.0,0.0,0.0,0.0,0.0,0.0,0.0,0.0,0.0,0.0,0.0,0.0,0.0,0.0,0.0,0.0,0.0,0.0,4.8476,4.7761,4.707,4.8683,4.9042,4.806,4.9162,4.9703,4.9703,4.9836,4.9969,5.0107,5.0553,5.0759,5.0688,4.9909,5.0341,5.1437,5.0065,0.0,0.0,0.0,0.0,0.0,0.0,0.0,0.0,4.9509,4.9509,4.9509,4.9509,0.0,0.0,0.0,0.0,0.0,5.2848,5.3789,5.424,5.3562,5.3299,5.3205,5.3205,0.0,0.0,0.0,0.0,0.0,0.0,5.4972,5.5424,0.0,0.0,5.9403,0.0,0.0,6.1562,6.1937,0.0,6.1168,6.0035,5.8809,5.7935,5.7535,5.5166,5.3671,5.3568,5.2925,5.2167,5.1324,5.1277,5.0931,5.0221,5.0142,5.0025,4.9893,5.0018,5.007,5.007,5.0194,5.0243,5.0243,0.0,5.0163,5.0082,5.0219,5.0194,5.0089,5.0336,5.0423,5.0415,5.0538,5.0587,5.0567,0.0,0.0,0.0,0.0,0.0,0.0,0.0,0.0,0.0,0.0,0.0,0.0,0.0,0.0,0.0,0.0,0.0,0.0,0.0,0.0,0.0,4.9509,4.8664,4.8025,4.765,4.8043,4.8035,4.764,4.8122,4.8546,4.8999,4.9904,5.0809,5.1677,5.1509,5.1441,5.1369,5.0516,5.0579,5.118,0.0,0.0,0.0,0.0,0.0,0.0,0.0,0.0,0.0,0.0,4.8795,4.8795,4.8795,0.0,0.0,0.0,0.0,0.0,5.1759,5.2437,5.3076,5.3167,5.3846,5.4371,5.3939,0.0,0.0,0.0,0.0,0.0,0.0,0.0,5.6737,5.807,0.0,5.9722,6.098,6.0379,5.9966,0.0,0.0,5.9722,5.9456,5.8339,5.7567,5.7358,0.0,0.0,5.3294,5.2511,5.1713,5.0913,5.093,5.079,5.0436,5.0363,5.026,5.0133,5.0182,5.0248,5.0321,5.0377,5.0453,5.0527,0.0,5.0477,5.0436,5.0488,5.0477,5.0446,5.0567,5.0615,5.0625,5.0678,5.0426,5.0117,0.0,0.0,0.0,0.0,0.0,0.0,0.0,0.0,0.0,0.0,0.0,0.0,0.0,0.0,0.0,0.0,0.0,0.0,0.0,0.0,4.9283,4.949,4.8476,4.7913,4.7913,4.7331,4.6899,4.6711,4.6899,4.7406,4.8232,5.0109,5.1461,5.2322,5.2024,5.1799,5.1574,5.0748,5.0522,5.0707,0.0,0.0,0.0,0.0,0.0,0.0,0.0,0.0,0.0,0.0,0.0,0.0,0.0,0.0,0.0,5.041,5.071,5.0973,5.0748,5.1206,5.1873,5.2532,0.0,5.4598,5.5141,0.0,0.0,0.0,0.0,0.0,0.0,5.6505,0.0,6.0127,6.0109,6.0107,6.0957,5.9807,5.9127,5.9746,5.8918,5.8593,5.9248,5.7924,5.7074,0.0,0.0,0.0,5.3088,5.2107,5.1279,5.0715,5.0705,5.0705,5.0705,5.0705,5.0606,5.0388,5.0388,5.0464,5.0557,5.0557,5.0606,5.0705,5.0705,5.0705,5.0705,5.0705,5.0705,5.0705,5.0758,5.0784,5.0816,5.0816,5.0422,4.9996,0.0,0.0,0.0,0.0,0.0,0.0,0.0,0.0,0.0,0.0,0.0,0.0,0.0,0.0,0.0,0.0,0.0,0.0,0.0,0.0,4.8645,4.9471,4.795,4.7087,4.7087,4.703,4.6599,4.5791,4.6599,4.7406,4.8251,5.0673,5.1086,4.9828,5.1255,5.148,5.0729,4.9922,5.0016,5.0707,5.0707,0.0,0.0,0.0,0.0,0.0,0.0,0.0,0.0,0.0,0.0,0.0,0.0,0.0,4.9584,4.9584,4.9039,4.8776,5.0294,5.0907,5.115,5.1159,5.1119,0.0,5.6812,5.6331,0.0,0.0,0.0,0.0,0.0,5.7107,5.8205,5.9946,6.0842,6.162,6.2444,0.0,6.1287,6.132,5.992,5.905,5.9355,5.7831,5.689,0.0,0.0,0.0,5.3272,5.169,5.0754,5.0696,5.0705,5.0705,5.0705,5.0705,5.0687,5.067,5.067,5.0678,5.0687,5.0687,5.0687,5.0705,5.0705,5.0705,5.0705,5.0705,5.0705,5.0713,5.0914,5.1055,5.1159,5.1159,5.112,5.1081,0.0,0.0,0.0,0.0,0.0,0.0,0.0,0.0,0.0,0.0,0.0,0.0,0.0,0.0,0.0,0.0,0.0,0.0,0.0,0.0,4.7594,4.7932,4.6824,4.6186,4.6186,4.5697,4.5528,4.5697,4.658,4.795,4.9787,5.071,5.1386,5.1834,5.2437,5.2231,5.1424,5.1123,5.118,5.1442,5.1442,5.0954,0.0,0.0,0.0,0.0,0.0,0.0,0.0,0.0,4.7011,4.6981,0.0,4.7935,4.8371,4.8371,4.8143,4.8042,4.8656,5.005,5.132,5.1268,0.0,0.0,0.0,0.0,0.0,0.0,0.0,0.0,0.0,0.0,6.0265,6.0843,6.1707,6.2228,6.1979,6.1734,6.1182,6.0136,5.9447,5.8879,5.8443,5.6933,5.6081,0.0,0.0,0.0,5.2746,5.1649,5.1009,5.1009,5.1009,5.1009,5.1009,5.1009,5.1009,5.1009,5.08,5.0767,5.0879,5.0879,5.0925,5.1009,5.1009,5.1009,5.1009,5.1009,5.1009,5.1009,5.1089,5.1166,5.1202,5.1202,5.0853,5.0464,0.0,0.0,0.0,0.0,0.0,0.0,0.0,0.0,0.0,0.0,0.0,0.0,0.0,0.0,0.0,0.0,0.0,0.0,0.0,4.6113,4.6593,4.687,4.6123,4.5829,4.6092,4.5045,4.4763,4.5322,4.6167,4.7594,4.9546,5.0332,5.1308,5.2416,5.2679,5.2306,5.1499,5.1255,5.1142,5.1198,5.1705,5.1299,0.0,0.0,0.0,0.0,0.0,0.0,0.0,0.0,4.631,0.0,0.0,0.0,0.0,0.0,4.7701,4.7758,4.8006,4.9422,5.0848,0.0,0.0,0.0,0.0,0.0,0.0,0.0,0.0,0.0,0.0,0.0,0.0,0.0,6.1549,6.2021,6.1149,6.1069,6.0585,5.9164,5.8759,5.8374,5.7788,5.628,0.0,0.0,0.0,0.0,0.0,5.1649,5.1202,5.1202,5.1202,5.1202,5.1202,5.1202,5.1202,5.1196,5.0981,5.0925,5.1062,5.1062,5.1121,5.1202,5.1202,5.1202,5.1202,5.1202,5.1047,5.0794,5.0794,5.0619,5.0406,5.0697,5.0406,5.0023,0.0,0.0,0.0,0.0,0.0,0.0,0.0,0.0,0.0,0.0,0.0,0.0,0.0,0.0,0.0,0.0,0.0,0.0,4.4927,4.5178,4.5674,4.6528,4.6012,4.6092,4.6974,4.5345,4.4501,4.4501,4.5303,4.6148,4.7049,4.9527,5.0688,5.0726,5.1536,5.1442,5.0613,4.9828,4.9509,4.964,5.1236,5.1047,4.9993,0.0,0.0,0.0,0.0,0.0,0.0,0.0,4.6402,4.6555,0.0,0.0,0.0,0.0,4.7693,4.7868,4.8667,4.9081,4.9528,0.0,0.0,0.0,0.0,0.0,0.0,0.0,0.0,0.0,0.0,0.0,0.0,5.8693,6.0148,6.0968,6.0115,5.9998,5.9685,5.8869,5.8023,5.7513,5.7573,5.6,0.0,0.0,0.0,0.0,0.0,5.163,5.1202,5.1202,5.1202,5.1202,5.1202,5.1183,5.1183,5.1183,5.1183,5.1183,5.1183,5.1183,5.1183,5.1183,5.1183,5.1183,5.1202,5.1183,5.0678,4.9887,4.9887,4.9363,4.8716,4.9576,4.9906,5.0023,0.0,0.0,0.0,0.0,0.0,0.0,0.0,0.0,0.0,0.0,0.0,0.0,0.0,0.0,0.0,0.0,0.0,0.0,0.0,4.3719,4.3984,4.4545,4.4413,4.4617,4.5157,4.5275,4.5078,4.4501,4.4726,4.5589,4.7049,4.8964,4.9527,4.9036,5.1011,5.0485,4.8157,4.9096,4.9509,4.9584,5.0635,5.093,5.0784,0.0,0.0,0.0,0.0,0.0,0.0,0.0,0.0,0.0,0.0,0.0,0.0,4.6728,4.6813,4.7199,4.6824,4.8525,0.0,5.0748,0.0,0.0,0.0,0.0,0.0,0.0,0.0,0.0,0.0,0.0,0.0,5.7978,5.8773,5.9444,5.9184,5.9156,5.8867,5.8046,5.7191,5.6414,5.5825,0.0,0.0,0.0,0.0,0.0,0.0,5.1338,5.1202,5.1202,5.1202,5.1202,5.1202,5.0581,5.0289,5.027,4.9668,4.9687,5.0289,5.0289,5.0289,5.025,4.9648,5.0076,5.1144,5.0542,4.9765,4.8988,4.8988,4.8832,4.8716,4.9576,4.9906,5.0023,0.0,0.0,0.0,0.0,0.0,0.0,0.0,0.0,0.0,0.0,0.0,0.0,0.0,0.0,0.0,0.0,0.0,0.0,0.0,0.0,4.3051,4.3301,4.3904,4.4581,4.5312,4.6162,4.6214,4.5371,4.54,4.594,4.7005,4.8624,4.8927,4.8197,5.0014,4.9546,4.7447,4.8103,4.8587,4.903,5.0209,5.0692,5.083,0.0,0.0,0.0,0.0,0.0,0.0,0.0,0.0,0.0,0.0,0.0,0.0,4.6941,4.696,4.7134,4.7289,4.9088,0.0,5.18,5.4025,0.0,0.0,0.0,0.0,0.0,0.0,0.0,0.0,5.8963,0.0,5.7618,5.8198,5.8685,5.8374,5.8317,5.8001,5.7191,5.6311,5.5573,5.5048,0.0,0.0,0.0,0.0,0.0,0.0,5.1202,5.1202,5.1202,5.1202,5.1202,5.1202,5.0328,4.9906,4.9887,4.9027,4.8696,4.8871,4.9221,4.9382,4.9343,4.8832,4.9202,5.0134,4.959,4.8871,4.8075,4.8075,4.7888,4.7753,4.8959,4.9415,4.9597,0.0,0.0,0.0,0.0,0.0,0.0,0.0,0.0,0.0,0.0,0.0,0.0,0.0,0.0,0.0,0.0,0.0,0.0,0.0,0.0,4.2652,4.2761,4.418,4.556,4.6791,4.7575,4.7647,4.6937,4.6831,4.6783,4.6802,4.8368,4.8578,4.77,4.8653,4.856,4.7626,4.6897,4.7074,4.7997,4.9621,5.0156,5.0137,5.1761,0.0,0.0,0.0,0.0,0.0,0.0,0.0,0.0,4.7695,4.7173,4.6329,4.7761,4.7722,4.7567,4.9153,0.0,0.0,5.3271,5.4983,0.0,0.0,0.0,0.0,0.0,0.0,0.0,5.742,5.7458,5.7455,5.7293,5.8,5.8253,5.7366,5.7386,5.7133,5.6175,5.5359,5.4854,5.4776,0.0,0.0,0.0,0.0,0.0,0.0,5.1125,5.1086,5.1086,5.1008,5.0975,5.0961,5.0112,4.9671,4.9662,4.8787,4.7971,4.7227,4.8086,4.843,4.8383,4.8538,4.8524,4.8399,4.8457,4.799,4.7208,4.7208,4.6798,4.6424,4.808,4.8742,4.9052,0.0,0.0,0.0,0.0,0.0,0.0,0.0,0.0,0.0,0.0,0.0,0.0,0.0,0.0,0.0,0.0,0.0,0.0,0.0,0.0,4.2264,4.3206,4.4801,4.6328,4.7687,4.7909,4.8226,4.8656,4.7364,4.6411,4.5847,4.7476,4.7121,4.5197,0.0,4.7084,4.5122,4.557,4.5869,4.6177,4.7356,4.7983,4.8289,4.9496,4.8884,0.0,0.0,0.0,0.0,0.0,0.0,0.0,4.6464,4.7038,4.7664,4.6712,4.724,4.8213,4.8644,5.0342,0.0,0.0,5.5874,0.0,0.0,0.0,0.0,0.0,0.0,5.8299,5.7601,5.754,5.7139,5.5754,5.6265,5.6291,5.4763,5.5715,5.6,5.4433,5.4083,5.3708,0.0,0.0,0.0,0.0,0.0,0.0,5.1202,5.0542,5.0178,5.0178,4.9512,4.9186,4.9238,4.8366,4.793,0.0,4.7108,4.6621,4.6462,4.7237,4.7247,4.6715,4.8074,4.7933,4.6777,4.7398,4.7187,4.6445,4.6445,4.6726,4.7244,4.8318,4.9124,4.9874,0.0,0.0,0.0,0.0,0.0,0.0,0.0,0.0,0.0,0.0,0.0,0.0,0.0,0.0,0.0,0.0,0.0,0.0,0.0,0.0,0.0,4.4225,4.5484,4.6673,4.7818,4.8226,4.8449,4.8485,4.7984,0.0,0.0,0.0,0.0,4.541,0.0,4.6342,4.4777,4.4795,4.5258,4.6069,4.663,4.7402,4.8235,4.8807,4.8221,4.7096,4.7096,0.0,0.0,0.0,0.0,0.0,0.0,0.0,4.7142,4.7106,4.7157,4.7486,4.8761,0.0,0.0,5.5504,0.0,0.0,0.0,0.0,0.0,0.0,5.758,5.7469,5.7022,5.6608,5.6058,5.5145,5.5029,5.4744,5.3831,5.4491,5.4724,5.3811,5.3326,5.2892,0.0,0.0,0.0,0.0,0.0,5.1078,5.065,5.0182,4.9753,4.934,4.8873,4.8658,4.8691,4.7839,4.7406,4.7391,4.6573,4.6202,4.62,4.6593,4.6541,4.6206,4.712,4.7018,4.6222,4.6651,4.6573,4.6202,4.6202,4.6467,4.6926,4.7804,4.8688,4.9551,0.0,0.0,0.0,0.0,0.0,0.0,0.0,0.0,0.0,0.0,0.0,0.0,0.0,0.0,0.0,0.0,0.0,0.0,0.0,0.0,0.0,0.0,4.6061,4.687,4.7684,4.8351,4.837,0.0,0.0,0.0,0.0,0.0,0.0,4.6494,0.0,4.5992,4.5454,4.4581,4.5148,4.6571,4.6467,4.7208,4.8341,4.8235,4.7655,4.6883,4.6883,4.6406,4.5904,4.6631,0.0,0.0,0.0,0.0,4.6092,4.7558,4.7101,4.6648,4.8974,0.0,5.3591,5.6938,0.0,0.0,0.0,0.0,0.0,5.6316,5.6315,5.6296,5.6319,5.56,5.4978,5.4836,5.42,5.3616,5.3325,5.3538,5.3616,5.3325,5.278,5.2372,0.0,0.0,0.0,0.0,0.0,5.0926,5.0046,4.985,4.938,4.85,4.8344,4.8269,4.8275,4.7556,4.7207,4.7193,4.6531,4.6218,4.6218,4.6218,4.6216,4.6192,4.6192,4.6215,4.6218,4.6218,4.6218,4.6218,4.6218,4.6384,4.6737,4.7459,4.8368,4.9343,0.0,0.0,0.0,0.0,0.0,0.0,0.0,0.0,0.0,0.0,0.0,0.0,0.0,0.0,0.0,0.0,0.0,0.0,4.1464,0.0,0.0,4.524,4.6335,4.7151,4.7684,4.7813,4.7813,0.0,0.0,0.0,0.0,0.0,0.0,4.6475,0.0,0.0,4.629,4.5472,4.5674,4.6469,4.5948,4.6065,4.6484,4.598,4.5853,4.5981,4.5981,4.5904,4.5826,4.5923,4.5904,0.0,0.0,0.0,4.5938,4.6164,4.6655,4.7378,0.0,0.0,5.5388,0.0,0.0,0.0,0.0,0.0,5.6391,0.0,5.6331,5.6316,5.638,5.5667,5.4864,5.4164,5.3905,5.3281,5.1823,5.2871,5.3242,5.1784,5.2174,0.0,0.0,0.0,0.0,0.0,5.1293,5.0926,5.0046,4.9286,4.8466,4.7606,4.6903,4.6527,4.6523,4.6425,4.6386,4.645,4.6333,4.6294,4.6294,4.6294,4.6245,4.6191,4.6191,4.6229,4.6294,4.6294,4.6294,4.6294,4.6294,4.717,4.8472,4.858,4.9666,5.1067,0.0,0.0,0.0,0.0,0.0,0.0,0.0,0.0,0.0,0.0,0.0,0.0,0.0,0.0,0.0,4.0828,4.0464,4.0241,4.0301,4.1237,4.2427,4.388,4.5269,4.6103,4.6347,4.6791,4.681,0.0,0.0,0.0,0.0,4.85,4.8686,0.0,0.0,0.0,0.0,0.0,4.6587,4.6452,4.5847,4.5833,4.613,4.5522,4.5505,4.5807,4.5807,4.5807,4.5807,4.5807,4.5807,4.5807,4.5807,0.0,0.0,0.0,4.6262,0.0,5.0104,5.2255,5.4554,0.0,0.0,0.0,0.0,0.0,5.7005,5.6553,5.6429,5.6261,5.5767,5.5357,5.4674,5.3383,5.3149,5.2702,5.1472,5.1939,5.2134,5.1394,5.1648,0.0,0.0,0.0,0.0,0.0,5.1367,5.0761,4.9394,4.8964,4.8143,4.6836,4.6404,4.6225,4.6261,4.6257,4.6272,4.63,4.6294,4.6292,4.6292,4.6267,4.6241,4.6261,4.6261,4.6272,4.6292,4.6292,4.6288,4.6243,4.6243,4.6691,4.7394,4.7894,4.8867,5.0018,0.0,0.0,0.0,0.0,0.0,0.0,0.0,0.0,0.0,0.0,0.0,0.0,0.0,0.0,0.0,0.0,3.953,3.9118,3.9242,4.0217,4.1433,4.2848,4.4398,4.526,4.5305,4.5881,0.0,0.0,0.0,0.0,4.8017,4.8407,4.9596,0.0,5.0283,0.0,0.0,0.0,0.0,0.0,0.0,4.6172,4.6442,4.5847,4.5697,4.5826,4.6058,4.6,4.5807,4.5807,4.5807,4.5814,4.5841,4.5919,0.0,0.0,0.0,0.0,0.0,0.0,5.3174,5.6826,5.7569,0.0,0.0,0.0,5.7555,0.0,5.6834,5.6484,5.5347,5.515,5.4661,5.3195,5.2766,5.2317,5.1457,5.132,5.132,5.132,5.132,0.0,0.0,0.0,0.0,0.0,5.1409,5.0633,4.8896,4.8792,4.8029,4.6358,4.6243,4.624,4.6296,4.6286,4.6264,4.6273,4.6264,4.626,4.626,4.6211,4.6238,4.6273,4.6273,4.6269,4.626,4.626,4.6255,4.6206,4.6206,4.646,4.6947,4.7585,4.8502,4.9533,0.0,0.0,0.0,0.0,0.0,0.0,0.0,0.0,0.0,0.0,0.0,0.0,0.0,3.9456,3.9299,4.0048,3.9421,3.905,3.9118,4.069,4.2013,4.2848,4.4443,0.0,4.5287,4.5342,0.0,0.0,0.0,0.0,4.8816,4.8091,4.9057,5.1323,4.9689,4.8946,4.8853,0.0,0.0,0.0,0.0,0.0,0.0,0.0,4.6226,4.5904,4.6728,4.6503,4.5807,4.5807,4.5807,4.5815,4.5952,4.5993,4.6017,0.0,0.0,0.0,0.0,5.0191,0.0,5.3782,0.0,0.0,0.0,0.0,0.0,5.7742,5.7723,5.7213,5.5506,5.5259,5.4994,5.4074,5.3237,5.2397,5.1517,5.138,5.138,5.138,5.138,0.0,0.0,0.0,0.0,0.0,5.1396,5.0633,4.8896,4.8798,4.8037,4.6358,4.631,4.6303,4.6306,4.6236,4.6209,4.6209,4.6209,4.6209,4.6209,4.6209,4.6209,4.6209,4.6209,4.6209,4.6209,4.6209,4.6209,4.6206,4.6206,4.7201,4.868,4.8724,4.9773,5.1174,0.0,0.0,0.0,0.0,0.0,0.0,0.0,0.0,0.0,0.0,0.0,0.0,0.0,3.849,3.8166,3.8473,3.7895,3.7983,3.9031,3.9933,4.0938,4.2086,4.3389,4.4188,4.4469,0.0,0.0,0.0,0.0,4.4896,4.6587,4.6828,4.7125,4.7553,4.902,4.9986,5.0413,4.9057,0.0,0.0,0.0,0.0,0.0,0.0,0.0,0.0,0.0,0.0,4.6631,4.6631,4.6655,4.6704,4.6756,4.6461,4.6142,4.6211,0.0,0.0,0.0,0.0,0.0,5.3288,5.4888,5.5823,5.6089,5.7004,5.747,5.6369,5.6581,5.6773,5.6143,5.6057,5.5594,5.4159,5.3674,5.3167,5.2286,5.172,5.1391,5.1391,5.1391,0.0,0.0,0.0,0.0,0.0,0.0,5.064,4.8891,4.8796,4.8016,4.6299,4.624,4.6231,4.624,4.6206,4.6206,4.6206,4.6198,4.6192,4.6192,4.6203,4.6196,4.6196,4.6196,4.6203,4.6192,4.6192,4.6206,4.6196,4.6196,4.6586,4.7268,4.8392,4.9188,4.985,0.0,0.0,0.0,0.0,0.0,0.0,0.0,0.0,0.0,0.0,0.0,0.0,0.0,0.0,3.8,3.8291,3.7983,3.8351,3.9717,4.0367,4.1096,4.2031,4.3318,4.4169,4.4432,0.0,0.0,0.0,0.0,0.0,0.0,4.5844,4.5955,4.5769,4.7664,4.8964,0.0,0.0,0.0,4.8403,0.0,0.0,4.7033,0.0,0.0,0.0,0.0,0.0,0.0,4.696,4.6894,4.7142,4.6901,4.6555,0.0,0.0,0.0,0.0,4.7666,0.0,0.0,0.0,0.0,5.3847,5.495,0.0,5.6676,5.5805,5.6329,5.6852,5.6553,5.6504,5.5922,5.4183,5.3891,5.3501,5.2369,5.1745,5.1394,5.1394,5.1394,0.0,0.0,0.0,0.0,0.0,0.0,0.0,4.8895,4.88,4.8,4.6259,4.62,4.619,4.6196,4.6206,4.6192,4.6192,4.6203,4.6196,4.6196,4.6203,4.6199,4.6199,4.6199,4.6206,4.6196,4.6196,4.6209,4.6199,4.6199,4.6569,4.7209,4.8378,4.9157,4.98,0.0,0.0,0.0,0.0,0.0,0.0,0.0,0.0,0.0,0.0,0.0,0.0,0.0,0.0,0.0,3.9698,3.9859,4.0325,4.1203,4.2098,4.2678,4.2846,4.4404,4.5268,4.5287,0.0,0.0,0.0,0.0,0.0,0.0,0.0,4.5677,4.6382,4.5639,4.5714,4.6475,0.0,4.7683,4.7675,0.0,4.7106,4.8796,0.0,0.0,0.0,4.9919,4.9668,0.0,4.6767,0.0,0.0,0.0,0.0,0.0,0.0,0.0,0.0,0.0,0.0,0.0,0.0,0.0,0.0,5.4284,0.0,5.5337,5.6215,5.707,5.7434,5.6613,5.6473,5.5934,5.4219,5.3949,5.3364,5.1742,5.1489,5.1469,5.1469,5.145,0.0,0.0,0.0,0.0,0.0,5.1375,5.0611,4.8895,4.8758,4.7953,4.6242,4.6203,4.6196,4.6199,4.6199,4.6199,4.6199,4.6199,4.6199,4.6199,4.6199,4.6199,4.6199,4.6199,4.6199,4.6199,4.6199,4.6199,4.6199,4.6238,4.7267,4.8768,4.8826,4.9859,5.1261,0.0,0.0,0.0,0.0,0.0,0.0,0.0,0.0,0.0,0.0,0.0,0.0,0.0,3.9767,3.9922,4.1233,4.0918,4.1254,4.2769,4.2658,4.2871,4.3622,4.4113,4.4655,4.5287,0.0,0.0,0.0,0.0,0.0,0.0,0.0,0.0,0.0,4.5119,4.5064,4.4748,4.5602,0.0,4.958,4.7035,4.7584,0.0,0.0,0.0,0.0,0.0,4.8624,4.9591,0.0,4.8812,4.8821,0.0,0.0,0.0,0.0,0.0,0.0,4.63,0.0,0.0,0.0,0.0,0.0,0.0,0.0,5.2623,5.3506,5.4379,5.5096,5.5498,5.6063,5.6145,5.5019,5.4843,5.4687,5.4219,5.3615,5.3206,5.3206,5.2641,0.0,0.0,0.0,0.0,0.0,5.0784,4.9965,4.8863,4.7596,4.6697,4.6225,4.6206,4.6203,4.6199,4.6199,4.6199,4.6199,4.6199,4.6199,4.6199,4.6199,4.6199,4.6199,4.6199,4.6199,4.6199,4.6199,4.6199,4.6258,4.6901,4.7443,4.8008,4.9216,4.9956,5.0443,0.0,0.0,0.0,0.0,0.0,0.0,0.0,0.0,0.0,0.0,0.0,0.0,0.0,0.0,4.244,4.3337,4.2733,4.3006,4.4633,4.3914,4.381,4.4725,4.4621,4.4934,4.5769,0.0,0.0,0.0,0.0,0.0,0.0,0.0,0.0,0.0,0.0,0.0,0.0,0.0,0.0,0.0,4.6208,0.0,0.0,4.7972,4.8667,0.0,0.0,0.0,5.0964,4.8798,4.8384,0.0,0.0,0.0,0.0,0.0,0.0,0.0,0.0,0.0,0.0,0.0,0.0,0.0,4.9739,5.0189,5.0497,0.0,5.2508,5.3522,5.4024,5.4827,5.5372,5.5212,5.5193,5.5076,5.4706,5.3907,5.3483,5.3849,0.0,0.0,0.0,5.2138,5.169,5.1339,5.086,5.0065,4.8865,4.715,4.6199,4.6199,4.6199,4.6199,4.6199,4.6199,4.6199,4.6199,4.6199,4.6199,4.6199,4.6199,4.6199,4.6199,4.6199,4.6199,4.6199,4.6199,4.6199,4.6258,4.6764,4.7404,4.8164,4.9138,4.9937,5.0618,0.0,0.0,0.0,0.0,0.0,0.0,0.0,0.0,0.0,0.0,0.0,0.0,0.0,0.0,0.0,0.0,4.4975,4.5126,4.6542,4.5574,4.5262,4.5902,4.5608,4.5807,4.6624,0.0,0.0,0.0,0.0,0.0,0.0,0.0,0.0,0.0,0.0,0.0,0.0,0.0,0.0,4.4533,4.4825,4.6669,0.0,0.0,5.0739,5.2627,5.0268,5.0925,5.2221,4.7644,4.6625,0.0,0.0,0.0,0.0,0.0,4.63,0.0,0.0,0.0,0.0,0.0,0.0,0.0,4.9288,4.9205,4.8884,0.0,5.1074,5.2161,5.225,5.3044,5.3959,5.4738,5.4942,5.4853,5.4394,5.358,5.3346,5.4223,5.4164,0.0,5.284,5.2664,5.2236,5.1378,5.1125,5.0326,4.8748,4.7092,4.6199,4.6199,4.6199,4.6199,4.6199,4.6199,4.6199,4.6199,4.6199,4.6199,4.6199,4.6189,4.6185,4.6185,4.6158,4.6135,4.6135,4.6135,4.6162,4.6219,4.6414,4.7443,4.8826,4.9001,5.0007,5.1284,4.0068,0.0,0.0,0.0,0.0,0.0,0.0,0.0,0.0,0.0,0.0,0.0,0.0,0.0,0.0,0.0,4.6596,4.6491,4.7349,4.6913,4.6672,4.6763,4.644,4.6643,4.746,0.0,0.0,0.0,0.0,0.0,0.0,0.0,0.0,0.0,0.0,0.0,0.0,0.0,0.0,4.5129,4.5201,0.0,4.9225,4.7283,4.7724,4.9243,4.8043,4.8372,4.925,4.8292,4.766,4.7276,0.0,0.0,0.0,4.6358,0.0,0.0,0.0,0.0,0.0,0.0,0.0,0.0,4.7888,4.7889,4.7954,0.0,4.907,4.9471,5.008,5.143,5.2516,5.269,5.3385,5.4624,5.6669,5.6249,5.6039,5.6853,5.5762,0.0,5.3732,5.3015,5.2236,5.1378,5.0053,4.8845,4.7813,4.6764,4.6199,4.6199,4.6199,4.6199,4.6199,4.6199,4.6199,4.6199,4.6199,4.6199,4.6196,4.6089,4.6032,4.6027,4.5877,4.5809,4.5809,4.5809,4.5963,4.6336,4.7735,4.8495,4.8962,5.0307,5.0942,5.1236,4.0421,0.0,0.0,0.0,0.0,0.0,0.0,0.0,0.0,0.0,0.0,0.0,0.0,0.0,0.0,0.0,0.0,0.0,0.0,0.0,4.764,4.7941,4.7024,4.6884,4.7683,4.7293,0.0,0.0,0.0,0.0,0.0,0.0,0.0,0.0,0.0,0.0,0.0,0.0,4.5381,4.5493,4.5352,0.0,4.8163,4.6916,4.7255,4.8295,4.7405,4.7096,4.7238,4.8143,4.7946,0.0,0.0,4.6834,4.6866,0.0,4.63,4.63,0.0,0.0,0.0,4.6793,0.0,0.0,0.0,4.7116,4.6843,4.7178,4.7511,4.7857,4.8234,4.935,5.0627,5.1896,5.2158,5.3281,5.6375,5.6246,5.6152,5.6994,5.6366,0.0,5.4628,5.3751,5.2703,5.1398,4.9742,4.8612,4.8164,4.6917,4.6162,4.6098,4.6098,4.6056,4.5944,4.5944,4.5944,4.5944,4.5944,4.5944,4.5958,4.5883,4.5853,4.5847,4.5737,4.5703,4.5722,4.6167,4.6442,4.669,4.757,4.84,4.9254,5.0089,5.0901,5.1656,4.0485,0.0,0.0,0.0,0.0,0.0,0.0,0.0,0.0,0.0,0.0,0.0,0.0,0.0,0.0,0.0,0.0,0.0,0.0,0.0,0.0,4.9115,4.7887,4.7423,4.7924,4.7924,4.7924,0.0,0.0,0.0,0.0,0.0,0.0,0.0,0.0,0.0,0.0,0.0,0.0,4.5939,0.0,4.5975,4.6851,4.6849,4.7289,4.7811,4.7096,4.6406,4.602,4.7432,4.7538,4.695,4.6309,4.6677,0.0,0.0,0.0,0.0,0.0,0.0,0.0,0.0,0.0,4.6808,0.0,0.0,0.0,4.5994,4.6371,0.0,0.0,0.0,0.0,0.0,0.0,0.0,0.0,5.4854,0.0,5.6256,5.6101,0.0,5.5137,5.4164,5.2899,5.1327,4.9653,4.8699,4.8699,4.7045,4.6056,4.595,4.5944,4.5859,4.571,4.5703,4.5703,4.5703,4.5703,4.5703,4.5703,4.5675,4.566,4.566,4.563,4.5712,4.5905,4.6611,4.7105,4.7422,4.7465,4.8319,4.951,4.9691,5.072,5.2067,4.17,4.2536,0.0,0.0,0.0,0.0,0.0,0.0,0.0,0.0,0.0,0.0,0.0,0.0,0.0,0.0,0.0,0.0,5.2386,0.0,0.0,0.0,4.9819,4.941,4.8779,4.876,4.876,0.0,0.0,0.0,0.0,0.0,0.0,0.0,4.5607,0.0,0.0,0.0,4.6225,0.0,4.6067,4.5823,0.0,4.5947,4.602,4.6078,4.5981,4.5884,4.5845,0.0,4.6212,4.6228,0.0,4.6268,4.6573,4.7256,0.0,0.0,0.0,0.0,0.0,0.0,4.8008,0.0,0.0,0.0,4.7036,4.5958,0.0,0.0,0.0,0.0,0.0,0.0,0.0,0.0,5.1144,5.2594,5.4196,5.5785,5.4661,5.3995,0.0,5.3236,5.1908,5.0928,4.9294,4.8365,4.8365,4.6706,4.5751,4.5731,4.5731,4.5724,4.5703,4.5703,4.5703,4.5703,4.5703,4.5703,4.5703,4.5579,4.5524,4.5516,4.54,4.5751,4.6421,4.6517,4.7474,4.8894,4.9125,4.9336,4.9595,5.0364,5.1147,5.1934,4.3141,4.3603,0.0,0.0,0.0,0.0,0.0,0.0,0.0,0.0,0.0,0.0,0.0,0.0,0.0,0.0,0.0,5.179,0.0,0.0,0.0,0.0,0.0,0.0,4.9615,4.915,4.8734,4.8429,4.693,0.0,0.0,0.0,0.0,0.0,4.5947,0.0,4.7035,0.0,4.601,0.0,0.0,0.0,0.0,4.58,4.5807,4.5807,4.5807,4.5807,4.5814,0.0,4.5983,0.0,0.0,0.0,0.0,0.0,0.0,0.0,0.0,0.0,0.0,0.0,0.0,0.0,4.7008,0.0,4.645,0.0,0.0,0.0,0.0,0.0,0.0,0.0,4.7801,0.0,0.0,0.0,5.1212,0.0,0.0,0.0,0.0,0.0,0.0,0.0,4.8972,4.8082,4.7567,4.6368,4.5667,4.5587,4.5587,4.5558,4.5464,4.5464,4.5464,4.5464,4.5464,4.5464,4.5464,4.54,4.5381,4.5371,4.5319,4.5755,4.6538,4.7043,4.7971,4.9159,4.9745,4.996,4.9998,5.0384,5.1301,5.2422,4.4699,0.0,0.0,0.0,0.0,0.0,4.8165,4.9286,5.0011,0.0,0.0,0.0,5.2354,5.2159,0.0,0.0,5.4002,5.3753,0.0,0.0,5.2878,0.0,0.0,0.0,0.0,4.954,4.8986,0.0,0.0,0.0,0.0,0.0,0.0,0.0,0.0,4.6523,4.7057,0.0,4.6155,4.6136,4.5904,4.5807,4.5807,4.5807,4.5807,4.5807,4.5807,4.5671,4.5478,4.5544,4.5638,0.0,4.5755,0.0,0.0,0.0,0.0,0.0,4.8681,0.0,0.0,0.0,0.0,0.0,0.0,0.0,0.0,0.0,0.0,0.0,0.0,0.0,0.0,0.0,0.0,4.7207,0.0,4.8048,0.0,0.0,0.0,0.0,0.0,0.0,0.0,4.9916,4.8769,4.7775,4.6915,4.6039,4.5558,4.5456,4.5456,4.54,4.5307,4.5307,4.5307,4.5307,4.5307,4.5307,4.5307,4.5307,4.5307,4.5307,4.5526,4.6099,4.692,4.7799,4.8659,4.948,5.0073,5.0302,5.034,5.0569,5.1563,5.2824,4.6345,4.532,0.0,0.0,0.0,0.0,4.9597,4.9976,5.0011,0.0,0.0,0.0,0.0,0.0,0.0,0.0,0.0,5.6418,5.7195,0.0,5.416,0.0,0.0,5.1825,0.0,0.0,0.0,0.0,0.0,0.0,0.0,0.0,0.0,0.0,0.0,4.7076,4.7096,4.7076,4.7057,4.698,4.6136,4.5807,4.5807,0.0,4.5807,4.5807,4.5807,0.0,0.0,4.4718,4.4729,0.0,0.0,0.0,0.0,0.0,0.0,0.0,0.0,0.0,0.0,4.7625,0.0,0.0,0.0,0.0,4.7407,0.0,0.0,0.0,0.0,0.0,0.0,0.0,0.0,0.0,0.0,0.0,0.0,0.0,0.0,0.0,0.0,5.2772,5.2084,5.0402,4.8747,4.7439,4.656,4.5738,4.5298,4.5317,4.5317,4.5288,4.5307,4.5307,4.5307,4.5307,4.5307,4.5307,4.5307,4.5307,4.5307,4.5345,4.6118,4.6959,4.7826,4.8697,4.9519,5.0264,5.0283,5.0302,5.0397,5.1257,5.2098,5.2919,0.0,0.0,0.0,0.0,0.0,4.8654,5.0459,5.0735,5.1429,0.0,5.3865,0.0,0.0,5.7138,5.745,0.0,0.0,5.6703,5.58,5.5221,0.0,0.0,0.0,5.2902,0.0,0.0,0.0,0.0,0.0,0.0,0.0,0.0,0.0,0.0,0.0,4.6561,0.0,0.0,0.0,0.0,0.0,4.5807,4.5807,0.0,0.0,4.5807,4.5807,4.5278,0.0,4.4679,4.436,4.4024,4.4684,4.5091,4.5643,4.7167,4.7391,0.0,0.0,0.0,4.7723,4.8252,0.0,0.0,0.0,0.0,0.0,0.0,0.0,0.0,0.0,0.0,0.0,0.0,0.0,0.0,0.0,0.0,0.0,0.0,0.0,0.0,0.0,0.0,0.0,4.8774,4.7589,4.6577,4.5755,4.5449,4.5307,4.5307,4.5307,4.5307,4.5307,4.5307,4.5307,4.5307,4.5307,4.5307,4.5307,4.5307,4.5307,4.5345,4.6156,4.6997,4.7865,4.8735,4.9576,5.0302,5.0302,5.0302,5.034,5.0627,5.1601,5.3015,4.7276,0.0,0.0,0.0,0.0,0.0,5.0925,5.1824,0.0,0.0,5.6053,0.0,5.8556,0.0,5.8652,0.0,5.8192,5.7563,5.5858,5.5512,0.0,5.3849,5.3813,0.0,0.0,0.0,0.0,0.0,0.0,4.8491,0.0,0.0,0.0,0.0,0.0,4.6406,4.6619,0.0,4.6078,0.0,0.0,4.5807,0.0,0.0,4.5807,4.5768,0.0,4.484,4.4105,4.3871,4.3447,4.3151,4.3786,4.4192,4.4667,4.586,4.6202,4.6397,4.7217,4.7061,0.0,4.7705,4.71,0.0,4.7344,0.0,0.0,0.0,0.0,0.0,0.0,0.0,0.0,0.0,0.0,0.0,0.0,4.5984,0.0,0.0,0.0,0.0,0.0,0.0,4.9595,4.7922,4.6997,4.6156,0.0,0.0,4.543,4.5717,4.5736,4.5736,4.5736,4.5736,4.5583,4.5307,4.5307,4.5307,4.5307,4.5307,4.5307,4.5364,4.6481,4.7272,4.7884,4.9041,4.9824,5.0302,5.0302,5.0493,5.0799,5.1085,5.227,5.3894,0.0,0.0,0.0,0.0,4.9528,0.0,0.0,0.0,5.4927,0.0,5.7236,5.8373,5.8896,5.8945,5.9119,5.9516,5.9612,5.8974,5.7362,5.6613,0.0,0.0,5.3813,5.3441,5.2698,0.0,0.0,0.0,0.0,0.0,0.0,0.0,0.0,0.0,4.7038,0.0,4.5845,4.667,4.6561,4.5807,4.5807,4.5807,4.5807,4.5821,4.5782,4.5646,4.4878,4.404,4.3169,4.2371,4.2121,4.2169,4.2268,4.2845,4.3515,4.3656,4.3666,4.3821,4.4699,4.4971,4.5207,4.6085,0.0,0.0,0.0,0.0,4.8742,0.0,0.0,0.0,0.0,0.0,0.0,0.0,0.0,0.0,0.0,0.0,0.0,0.0,0.0,0.0,0.0,5.0741,4.9538,4.7865,4.6978,0.0,0.0,0.0,4.5755,4.6481,4.6538,4.6557,4.6557,4.6557,4.6175,4.5411,4.5411,4.5411,4.5411,4.5411,4.5411,4.5507,4.715,4.7865,4.7979,4.9633,5.0302,5.0302,5.0359,5.0932,5.183,5.2575,5.3913,5.5345,4.8792,4.9907,5.0782,0.0,5.0305,5.0801,0.0,0.0,0.0,0.0,6.0103,6.0589,6.1114,6.1273,6.0628,5.8927,5.889,0.0,0.0,0.0,0.0,5.385,5.3813,5.3814,5.386,5.3601,0.0,5.2348,0.0,0.0,4.8601,0.0,0.0,0.0,0.0,0.0,4.5807,4.6039,4.6,4.5807,4.5854,4.5867,0.0,0.0,4.5546,4.4957,4.4698,4.406,4.3255,4.2446,4.1758,4.1364,4.2137,4.2089,4.1992,4.3304,4.3235,4.2923,4.3801,4.4504,4.5207,4.6085,4.63,4.6534,0.0,0.0,0.0,0.0,0.0,0.0,0.0,0.0,0.0,0.0,0.0,0.0,0.0,0.0,0.0,4.8582,0.0,0.0,4.9652,4.9538,4.8697,4.6959,4.6634,0.0,0.0,0.0,0.0,4.6519,4.712,4.7463,4.7463,4.7463,4.7349,4.7169,4.7169,4.7169,4.7169,4.7169,4.7169,4.7226,4.8296,4.8774,4.885,4.9882,5.0302,5.0359,5.1009,5.2174,5.3473,5.3683,5.4046,5.4524,4.9723,0.0,0.0,5.259,0.0,0.0,5.479,5.558,0.0,6.0266,6.097,0.0,6.1092,6.1163,6.0354,5.8241,5.8136,0.0,5.5837,0.0,0.0,5.385,5.3944,5.4106,5.4347,5.4339,0.0,5.2843,0.0,0.0,4.8323,0.0,0.0,0.0,0.0,4.5807,4.5807,4.5821,4.5847,4.586,4.591,0.0,0.0,4.6017,4.5507,4.4681,4.428,4.3605,4.2786,4.1965,4.1362,4.1083,4.1658,4.1483,4.1283,4.2285,4.222,4.2025,4.2884,4.3489,4.4153,4.5421,4.5734,4.6066,4.7313,4.7559,4.7509,0.0,0.0,0.0,0.0,0.0,0.0,0.0,0.0,0.0,0.0,0.0,0.0,0.0,4.8659,0.0,4.9052,4.8411,4.7704,4.7111,4.6729,0.0,0.0,0.0,0.0,4.7092,4.8258,4.8716,4.8372,4.8716,4.8533,4.7788,4.7788,4.7788,4.7788,4.7788,4.7788,4.7845,4.8716,4.911,4.9186,5.0378,5.0875,5.099,5.2231,5.3263,5.4142,5.4524,5.4677,5.4734,5.1173,0.0,0.0,0.0,0.0,0.0,0.0,5.7286,0.0,5.99,0.0,6.0871,6.0017,5.9698,5.9032,5.7621,0.0,5.6562,5.5113,5.4909,5.452,5.374,5.3991,5.4209,5.4368,5.4775,5.4323,0.0,0.0,0.0,0.0,0.0,0.0,0.0,0.0,0.0,0.0,4.5887,4.5906,4.5925,4.5993,4.6002,4.601,4.6084,4.5503,4.4534,4.3782,4.2994,4.2165,4.1294,4.1046,4.1094,4.1093,4.1106,4.1109,4.1109,4.1109,4.1265,4.2025,4.2318,4.2786,4.4426,4.4836,4.5285,4.702,4.7307,4.7199,4.7323,4.7933,4.7953,0.0,0.0,0.0,0.0,0.0,0.0,0.0,0.0,0.0,0.0,0.0,0.0,4.8926,4.7665,4.7111,4.775,0.0,0.0,0.0,0.0,0.0,4.7788,4.9328,4.9901,4.9423,0.0,4.9633,4.8304,4.817,4.8132,4.8132,4.8132,4.8132,4.817,4.8926,4.932,4.9538,5.1009,5.1723,5.2079,5.3531,5.418,5.4352,5.5116,5.5403,5.5403,0.0,0.0,0.0,0.0,0.0,5.8385,5.8513,5.9243,5.9798,5.9911,6.0676,6.0871,6.0017,5.8735,5.7806,5.7528,5.6246,0.0,0.0,0.0,0.0,5.3249,5.3341,5.3629,5.4135,5.3621,5.3317,0.0,0.0,0.0,0.0,0.0,0.0,0.0,0.0,0.0,4.59,4.595,0.0,4.5998,4.6063,4.6072,4.6099,4.6163,4.5193,4.3807,4.3707,4.3085,4.218,4.1362,4.1093,4.1093,4.1103,4.1094,4.1109,4.1109,4.1109,4.1129,4.1285,4.1849,4.265,4.3665,4.3938,4.4387,4.6124,4.5966,4.565,4.6362,4.6584,4.6511,4.6075,0.0,0.0,0.0,0.0,0.0,0.0,0.0,0.0,0.0,0.0,4.8812,0.0,4.8391,4.8411,0.0,0.0,0.0,0.0,0.0,0.0,0.0,4.8774,0.0,0.0,0.0,5.0512,5.092,5.0206,4.9862,4.9862,4.9862,4.9862,4.9862,5.0015,5.0493,5.1181,5.1486,5.2422,5.3683,5.3989,5.4543,5.5193,5.5345,5.5403,5.5403,0.0,0.0,0.0,0.0,0.0,0.0,0.0,5.8556,5.8921,5.9232,5.8921,5.8512,5.8085,5.7364,5.6772,5.6344,5.5602,5.4839,5.4104,5.3762,5.333,5.2771,5.2935,5.3379,5.4139,5.3944,5.3706,5.3445,0.0,0.0,0.0,0.0,0.0,0.0,0.0,4.5893,0.0,0.0,0.0,4.6063,4.6128,4.6142,4.6164,4.6229,4.5169,4.3664,4.369,4.2824,4.1621,4.1227,4.1107,4.1105,4.1094,4.1109,4.1109,4.1109,4.1109,4.1109,4.1109,4.14,4.1927,4.2806,4.3372,4.4036,4.5324,4.5656,4.5672,4.5623,4.5967,4.6329,4.6581,4.6422,0.0,0.0,0.0,0.0,0.0,0.0,0.0,0.0,0.0,0.0,0.0,0.0,0.0,0.0,0.0,0.0,0.0,0.0,0.0,0.0,0.0,0.0,0.0,0.0,0.0,5.0932,5.0971,5.0971,5.099,5.141,5.1601,5.1601,5.1601,5.183,5.227,5.2709,5.3645,5.4772,5.4772,5.504,5.546,5.5861,5.6014,5.6014,0.0,5.6317,0.0,0.0,5.791,0.0,5.7381,5.7438,5.7719,5.8143,5.7102,5.6323,5.6361,5.6254,5.592,5.5286,5.4987,5.4395,5.3286,5.3115,5.2802,5.2272,5.2709,5.3289,5.4049,5.4313,5.4044,0.0,0.0,0.0,0.0,0.0,0.0,0.0,0.0,0.0,0.0,0.0,4.6128,4.6129,4.6191,4.6229,4.6228,4.6272,4.5226,4.3705,4.3705,4.2573,4.1109,4.1109,4.1109,4.1109,4.1109,4.1109,4.1109,4.1109,4.1109,4.1109,4.1109,4.1109,4.1304,4.2181,4.2786,4.3411,4.4484,4.5109,4.5322,4.4825,4.5406,4.6195,4.6834,4.6842,0.0,0.0,0.0,0.0,0.0,0.0,0.0,0.0,0.0,0.0,4.8288,0.0,0.0,0.0,0.0,0.0,4.6825,0.0,0.0,0.0,0.0,5.0302,5.0837,0.0,5.1429,5.1104,5.162,5.1868,5.1888,5.2499,5.2805,5.2805,5.2805,5.29,5.3129,5.4027,5.4791,5.5403,5.5403,5.5498,5.5728,5.6358,5.6721,5.6893,0.0,0.0,0.0,0.0,0.0,0.0,5.6626,5.7226,5.7488,5.672,5.6477,5.6441,5.6556,5.5865,5.5361,5.5286,5.4127,5.3346,5.3208,5.2802,5.2329,5.1796,5.2621,5.3234,5.3561,5.3597,5.3188,0.0,0.0,5.0488,0.0,0.0,0.0,0.0,0.0,0.0,0.0,4.6167,4.6189,4.6191,4.6258,4.6285,4.6285,4.6302,4.5226,4.3705,4.3705,4.2573,4.1109,4.1109,4.1109,4.1109,4.1109,4.1109,4.1109,4.1109,4.1109,4.1109,4.1109,4.1109,4.1304,4.2181,4.1869,4.1773,4.343,4.3274,4.2962,4.3684,4.4467,4.5247,4.5983,4.5999,4.6121,0.0,0.0,0.0,0.0,0.0,4.8334,4.692,0.0,0.0,0.0,4.7035,0.0,0.0,4.8086,0.0,0.0,0.0,0.0,4.7788,0.0,5.0294,5.2537,5.1926,5.2327,5.3741,5.3034,5.269,5.269,5.2766,5.2805,5.2805,5.2805,5.3244,5.4046,5.4925,5.5326,5.5403,5.5403,5.5842,5.6492,5.6568,5.7103,5.7886,0.0,0.0,0.0,0.0,0.0,0.0,0.0,5.566,5.5527,5.5399,5.5601,5.5772,5.5809,5.5275,5.4731,5.4209,5.3819,5.3253,5.2431,5.2169,5.1811,5.1229,5.1573,5.232,5.3478,5.2995,5.2801,0.0,0.0,0.0,0.0,0.0,0.0,0.0,0.0,4.6094,4.6152,4.6189,4.623,4.6258,4.6287,4.63,4.63,4.63,4.5226,4.3705,4.3705,4.2573,4.1109,4.1109,4.1109,4.1109,4.1109,4.1109,4.1109,4.1109,4.1109,4.1109,4.1109,4.1109,4.1187,4.1537,4.1752,4.2201,4.3411,4.343,4.343,4.4309,4.4747,4.5214,4.6024,4.5974,4.6048,0.0,0.0,0.0,0.0,0.0,0.0,0.0,0.0,4.7131,0.0,0.0,0.0,0.0,0.0,0.0,0.0,0.0,0.0,4.8563,0.0,5.0054,5.2059,5.2251,5.2652,5.332,5.3492,5.3569,5.3588,5.4123,5.4352,5.4352,5.4352,5.4562,5.4906,5.5269,5.5403,5.546,5.5938,5.632,5.6721,5.7734,5.8326,5.8746,5.518,0.0,5.6014,0.0,5.5379,5.5023,5.511,5.4658,5.4432,5.4802,5.4871,5.498,5.5241,5.4799,5.4225,5.3608,5.3372,5.2863,5.1873,5.1636,5.1353,5.0909,5.1149,0.0,5.3459,5.2663,5.2535,5.3146,5.2291,0.0,0.0,0.0,0.0,0.0,4.6113,4.6163,4.6191,4.6229,4.6261,4.63,4.63,4.63,4.63,4.63,4.5226,4.3705,4.3705,4.2573,4.1109,4.1109,4.1109,4.1109,4.1109,4.1109,4.1109,4.1109,4.1109,4.1109,4.1109,4.1109,4.1109,4.1109,4.1752,4.2552,4.3177,4.3526,4.3954,4.4811,4.4979,4.5245,4.6147,4.6258,4.6461,4.7261,0.0,0.0,0.0,0.0,0.0,0.0,4.7417,4.6787,4.6519,4.7292,0.0,0.0,0.0,0.0,0.0,0.0,0.0,0.0,0.0,0.0,0.0,5.29,5.3301,5.3569,5.4199,5.4486,5.4505,5.5116,5.5536,5.5747,5.5747,5.5899,5.6148,5.6148,5.6148,5.6186,5.6759,5.7122,5.7485,5.867,5.9262,5.9568,5.4168,5.4764,5.5062,5.4259,5.4219,5.4392,5.4676,5.4765,5.489,5.5154,5.4441,5.4238,5.5103,5.4422,5.3913,5.3894,5.2628,5.1826,5.1807,5.1234,5.0917,0.0,0.0,5.2597,5.3478,5.2705,5.2302,5.2322,0.0,0.0,4.7204,0.0,4.6128,4.6091,4.6168,4.6191,4.6191,4.6276,4.6302,4.63,4.63,4.63,4.63,4.63,4.5226,4.3705,4.3705,4.2573,4.1109,4.1109,4.1109,4.1109,4.1109,4.1109,4.1109,4.1109,4.1109,4.1109,4.1109,4.1109,4.1109,4.1109,4.1752,4.2396,4.2415,4.3072,4.3942,4.482,4.4946,4.5194,4.6126,4.6787,4.743,4.8157,0.0,0.0,0.0,0.0,0.0,4.9071,4.8315,4.7444,4.6577,4.7292,0.0,0.0,0.0,0.0,0.0,0.0,0.0,4.911,5.0703,0.0,5.4046,5.4085,5.4524,5.5365,5.5384,5.5384,5.5384,5.5403,5.5823,5.6587,5.6587,5.7065,5.7867,5.7867,5.7867,5.7867,5.7886,5.8364,5.9057,5.9076,5.9644,6.0403,5.3247,5.3563,5.391,5.4474,5.461,5.4527,5.4191,5.4164,5.4091,5.3801,5.3528,5.3524,5.3995,5.3624,5.3114,0.0,5.2223,5.182,0.0,5.1001,5.0914,5.0963,5.1242,5.1799,5.2654,5.1886,5.1758,5.2308,0.0,0.0,0.0,4.8029,4.7313,4.6168,4.6247,4.6276,4.6276,4.6285,4.63,4.63,4.63,4.63,4.63,4.63,4.5597,4.4582,4.4582,4.3469,4.1986,4.1986,4.1596,4.1109,4.1109,4.1109,4.1109,4.1109,4.1109,4.1109,4.1109,4.1109,4.1109,4.1109,4.1766,4.2561,4.3146,4.4387,4.5338,4.5052,4.546,4.595,4.6236,4.6793,4.7441,4.8179,4.8848,0.0,0.0,0.0,0.0,0.0,4.6959,4.5984,4.5698,4.6978,0.0,0.0,0.0,0.0,0.0,0.0,0.0,0.0,5.1544,0.0,5.4085,5.4696,5.5135,5.5403,5.5403,5.5689,5.6243,5.6836,5.7237,5.7485,5.7485,5.7638,5.7905,5.7905,5.7905,5.7944,5.8498,5.888,5.9185,5.9778,6.016,6.0403,5.2019,5.2454,5.2969,5.3724,5.3931,5.3908,5.3635,5.3598,5.3528,5.3273,5.2992,5.2861,5.3035,5.2636,0.0,5.2,5.186,5.1552,5.1002,5.0983,5.0998,5.1046,5.1046,5.1428,5.2283,5.1535,0.0,5.2342,5.0903,4.9692,4.8712,4.8103,4.7265,4.6246,4.627,4.63,4.63,4.63,4.63,4.63,4.63,4.63,4.63,4.63,4.5753,4.499,4.499,4.4094,4.2884,4.2898,4.2527,4.2079,4.2075,4.2073,4.1958,4.1282,4.1106,4.1104,4.1108,4.1104,4.1177,4.1513,4.2247,4.3192,4.4378,4.5448,4.6053,4.5553,4.5891,4.6379,4.6665,4.7239,4.7894,4.8621,4.9332,4.9792,4.9843,0.0,0.0,0.0,0.0,0.0,0.0,4.7474,4.8506,0.0,0.0,0.0,0.0,0.0,0.0,5.0799,5.2403,0.0,5.4581,5.5135,5.5556,5.5842,5.6186,5.6606,5.7103,5.7638,5.8058,5.8345,5.8345,5.8536,5.8842,5.8842,5.8842,5.888,5.9396,5.9587,5.9644,6.0198,6.0403,6.0403,5.072,5.1529,5.2257,0.0,5.2564,0.0,5.3,5.3032,5.3107,5.3306,5.2688,5.2225,5.2225,5.1546,5.1397,5.2155,0.0,0.0,0.0,5.1101,5.1101,5.1101,5.1095,5.147,5.2214,5.1565,5.1553,5.2239,4.9925,4.8778,4.8672,4.7051,4.6304,4.63,4.63,4.63,4.63,4.63,4.63,4.63,4.63,4.63,4.63,4.63,4.5792,4.5088,4.5088,4.4522,4.378,4.3788,4.3747,4.3706,4.3692,4.3709,4.3383,4.1765,4.1277,4.1269,4.128,4.1287,4.1486,4.2297,4.3131,4.4211,4.5835,4.6195,4.6203,4.6206,4.6289,4.6577,4.7267,4.7985,4.8683,4.9373,5.0105,5.0244,4.9237,0.0,0.0,0.0,0.0,0.0,0.0,4.8582,4.9129,0.0,0.0,0.0,0.0,0.0,5.1811,5.1697,5.332,5.4619,5.5479,5.5479,5.588,5.6702,5.7562,5.7982,5.7982,5.8039,5.8479,5.9205,5.9205,5.9644,6.0403,6.0403,6.0403,6.0403,6.0403,6.0403,6.0403,6.0403,6.0403,6.0403,0.0,0.0,5.1902,5.2765,5.2957,5.2887,5.2531,5.25,5.2283,5.1739,5.1501,5.1391,5.1391,5.1205,5.1179,5.136,5.1204,5.1101,5.1101,5.1101,5.1095,5.1102,5.1159,5.1274,5.1463,5.134,5.1078,5.0635,5.0055,4.9121,4.7874,4.7463,4.6913,4.63,4.63,4.63,4.63,4.63,4.63,4.63,4.63,4.63,4.63,4.63,4.6163,4.5987,4.6,4.543,4.4686,4.4634,4.42,4.3695,4.369,4.3709,4.3612,4.321,4.3073,4.3071,4.3073,4.309,4.3124,4.3341,4.4014,4.4896,4.5953,4.6206,4.6193,4.6209,4.6613,4.7051,4.7285,4.8328,4.9197,4.9341,5.0009,5.0191,4.9239,4.8958,0.0,0.0,4.7799,4.7829,4.7788,4.8582,4.9358,0.0,0.0,0.0,0.0,5.3664,5.3894,5.2556,5.4199,5.5498,5.6301,5.632,5.674,5.76,5.8421,5.8822,5.8842,5.9491,5.9911,6.0083,6.0083,6.0198,6.0403,6.0403,6.0403,6.0403,6.0403,6.0403,6.0403,6.0403,6.0403,6.0403,5.0647,5.0914,5.1276,5.1895,5.2103,5.2089,5.1804,5.1754,5.1593,5.1166,5.114,5.1147,5.1147,5.1146,5.1159,5.1159,5.116,5.1147,5.1147,5.1144,5.1145,5.1141,5.1219,5.1245,5.1252,5.1304,5.1131,5.0696,4.9896,4.9031,4.8135,4.7354,4.6749,4.63,4.63,4.63,4.63,4.63,4.63,4.63,4.6296,4.6294,4.6292,4.6269,4.6247,4.6247,4.626,4.5943,4.5531,4.5518,4.5201,4.485,4.4841,4.4841,4.4841,4.4841,4.4278,4.366,4.3687,4.368,4.3649,4.3649,4.4286,4.502,4.5498,4.5554,4.5729,4.6497,4.6892,4.735,4.8115,4.8868,4.945,4.9788,5.0187,5.0013,4.8734,4.8881,0.0,4.7914,4.8498,4.9121,4.95,5.0302,5.0971,5.141,5.2251,0.0,5.3359,5.5021,5.5345,5.4027,5.5651,5.674,5.7179,5.7562,5.7982,5.8459,5.93,5.9682,5.9701,6.0179,6.0403,6.0403,6.0403,6.0403,6.0403,6.0403,6.0403,6.0403,6.0403,6.0403,6.0403,6.0403,6.0403,6.0403,5.0355,5.0577,5.0767,5.0748,5.0944,5.1107,5.1114,5.1121,5.1121,5.1121,5.1165,5.1202,5.1202,5.12,5.1206,5.1206,5.1203,5.1208,5.1192,5.1213,5.1222,5.1222,5.1282,5.1325,5.1325,5.1249,5.1146,5.1004,4.9403,4.8545,4.8388,4.6963,4.63,4.63,4.63,4.63,4.63,4.6298,4.6298,4.6298,4.6286,4.6282,4.6282,4.6211,4.6206,4.6206,4.6206,4.6203,4.6201,4.6206,4.62,4.62,4.6203,4.6199,4.6199,4.6199,4.5251,4.4172,4.4109,4.4033,4.401,4.4166,4.4627,4.5129,4.5398,4.5248,4.5497,4.704,4.7372,4.7753,4.9136,4.9422,4.9682,5.0366,5.0416,4.9854,4.8296,0.0,4.9228,4.8277,4.9706,5.1017,5.1716,5.2403,5.2843,5.2977,5.3683,5.4218,5.4467,5.5938,5.653,5.5976,5.7218,5.7963,5.8077,5.8899,5.93,5.9319,6.0045,6.0403,6.0403,6.0403,6.0403,6.0403,6.0403,6.0403,6.0403,6.0403,6.0403,6.0403,6.0403,6.0403,6.0403,6.0403,6.0403,6.0403,5.0642,5.0855,5.1034,5.103,5.1076,5.1114,5.1184,5.1171,5.1177,5.1177,5.1196,5.1202,5.1202,5.1211,5.1202,5.1202,5.1242,5.1252,5.1206,5.1255,5.1286,5.1286,5.1359,5.1386,5.1386,5.0676,4.9936,4.9208,4.8252,4.7412,4.6671,4.6417,4.63,4.63,4.63,4.63,4.63,4.6292,4.6308,4.6306,4.6236,4.6211,4.6211,4.6209,4.6206,4.6206,4.6192,4.6209,4.6206,4.6209,4.6203,4.6203,4.6199,4.6199,4.6199,4.6199,4.653,4.6748,4.6011,4.5793,4.5962,4.6702,4.6359,4.6197,4.7625,4.7261,4.6931,4.793,4.856,4.9027,4.9269,4.9773,5.0187,5.0317,5.0325,4.9989,4.9045,0.0,5.0887,5.0015,5.1403,5.2473,5.2594,5.2728,5.311,5.3836,5.4027,5.4715,5.6129,5.716,5.7944,5.8517,5.8116,5.823,5.8918,5.9778,6.0198,6.0198,6.0346,6.0403,6.0403,6.0403,6.0403,6.0403,6.0403,6.0403,6.0403,6.0403,6.0403,6.0403,6.0403,6.0403,6.0403,6.0403,6.0403,6.0403,5.0913,5.1042,5.114,5.1159,5.1139,5.1165,5.1196,5.1202,5.1202,5.1202,5.1202,5.1206,5.1211,5.1198,5.1218,5.1258,5.1325,5.1337,5.1302,5.1335,5.1341,5.1341,5.1386,5.1397,5.1397,5.0544,4.9909,4.9501,4.8211,4.7391,4.6983,4.6515,4.6298,4.6292,4.6292,4.6288,4.6245,4.6258,4.6255,4.6236,4.6201,4.6195,4.6195,4.6206,4.6203,4.6203,4.6193,4.619,4.6183,4.6111,4.6381,4.6732,4.6657,4.6946,4.7328,4.7328,4.7339,4.7349,4.7427,4.7397,4.7309,4.7251,4.6874,4.6733,4.752,4.7252,4.7221,4.8559,4.9029,4.9329,4.9769,5.0084,5.0302,5.0302,5.0302,0.0,0.0,5.0818,5.162,5.1639,5.2747,5.3683,5.4142,5.4199,5.4371,5.4772,5.4811,5.5326,5.653,5.7428,5.8268,5.9057,5.9205,5.9415,5.9797,6.0198,6.0403,6.0403,6.0403,6.0403,6.0403,6.0403,6.0403,6.0403,6.0403,6.0403,6.0403,6.0403,6.0403,6.0403,6.0403,6.0403,6.0403,6.0403,6.0403,6.0403,5.1127,5.1165,5.1202,5.1202,5.1202,5.1202,5.1202,5.1202,5.1202,5.1202,5.1206,5.1196,5.1195,5.1236,5.1272,5.1327,5.1366,5.1405,5.1405,5.1405,5.1405,5.1405,5.1409,5.1394,5.1394,5.0553,5.0104,5.0104,4.8404,4.7582,4.7563,4.6685,4.6288,4.6282,4.6282,4.6255,4.6206,4.6203,4.6203,4.6201,4.6206,4.62,4.6196,4.6165,4.615,4.615,4.6111,4.6214,4.6376,4.6277,4.6781,4.7436,4.733,4.777,4.8303,4.8303,4.8021,4.7799,4.8321,4.8378,4.8187,4.7697,4.7268,4.7063,4.7449,4.7237,4.7386,4.8941,4.9316,4.9633,5.0455,5.0436,5.0378,5.0569,0.0,0.0,0.0,5.1505,5.2403,5.3034,5.3874,5.4734,5.5594,5.5517,5.5479,5.567,5.5689,5.6033,5.6855,5.7714,5.8555,5.9376,6.0045,6.0403,6.0403,6.0403,6.0403,6.0403,6.0403,6.0403,6.0403,6.0403,6.0403,6.0403,6.0403,6.0403,6.0403,6.0403,6.0403,6.0403,6.0403,6.0403,6.0403,6.0403,6.0403,6.0441,5.1196,5.1196,5.1202,5.1202,5.1202,5.1202,5.1202,5.1202,5.1202,5.1202,5.1196,5.1195,5.1199,5.1302,5.1386,5.1386,5.1397,5.1398,5.1398,5.1398,5.1398,5.1398,5.1396,5.1394,5.1394,5.0553,5.0104,5.0104,4.8357,4.7513,4.7494,4.6626,4.6209,4.6209,4.6209,4.6209,4.6206,4.6192,4.6206,4.6206,4.6206,4.6199,4.6192,4.6071,4.6012,4.5997,4.5803,4.6253,4.6943,4.6929,4.7502,4.8222,4.8214,4.8245,4.8303,4.8303,4.8709,4.9016,4.8473,4.8311,4.8458,4.9142,4.8064,4.721,4.8778,4.8401,4.7993,4.8922,4.9702,5.0474,5.1353,5.0837,5.0569,5.136,0.0,0.0,5.1493,5.29,5.3932,5.4008,5.4772,5.5613,5.6434,5.5842,5.5708,5.6454,5.6511,5.6893,5.7753,5.8574,5.9415,6.0274,6.0384,6.0403,6.0403,6.0403,6.0403,6.0403,6.0403,6.0403,6.0403,6.0403,6.0403,6.0403,6.0403,6.0403,6.0403,6.0403,6.0403,6.0403,6.0403,6.0403,6.0403,6.0403,6.0403,6.0504,5.1202,5.1202,5.1202,5.1202,5.1202,5.1202,5.1202,5.1205,5.1205,5.1205,5.1245,5.1282,5.1327,5.1364,5.1405,5.1395,5.0914,5.0828,5.1355,5.0887,5.0848,5.1375,5.1394,5.1394,5.1394,5.0547,5.0096,5.0096,4.8345,4.7774,4.8298,4.7418,4.7,4.7031,4.7577,4.72,4.6235,4.6775,4.6693,4.6183,4.6106,4.6367,4.6815,4.666,4.6952,4.7423,4.7335,4.7518,4.7793,4.7651,4.8195,4.8901,4.8827,4.9143,4.9546,4.9546,4.9724,4.9854,4.9602,4.9546,4.9488,4.9287,4.8738,4.8388,4.902,4.8879,4.8831,4.9671,5.0531,5.1219,5.1532,5.1322,5.1391,5.2212,0.0,5.1964,5.2996,5.3702,5.4486,5.5536,5.5938,5.6473,5.7313,5.7122,5.7084,5.7371,5.7409,5.7772,5.8612,5.9453,6.0064,6.0403,6.0403,6.0403,6.0403,6.0403,6.0403,6.0403,6.0403,6.0403,6.0403,6.0403,6.0403,6.0403,6.0403,6.0403,6.0403,6.0403,6.0403,6.0403,6.0403,6.0403,6.0403,6.0403,6.0403,6.0441,5.1202,5.1202,5.1194,5.1194,5.12,5.121,5.1225,5.1222,5.1239,5.1239,5.1291,5.1359,5.1386,5.1405,5.1396,5.1392,5.0608,5.0354,5.0959,5.0432,5.049,5.1351,5.141,5.1408,5.1403,5.0808,5.0511,5.0511,4.9034,4.8616,4.9181,4.8317,4.7902,4.7931,4.8532,4.7949,4.6571,4.7443,4.7289,4.6474,4.6649,4.7054,4.7534,4.7376,4.7692,4.8205,4.8165,4.8321,4.8535,4.8385,4.8911,4.9601,4.9518,4.9862,5.0302,5.0302,5.0302,5.0302,5.0302,5.0302,5.0168,4.9614,4.9289,4.911,4.911,4.911,4.9328,5.013,5.099,5.1773,5.2289,5.2174,5.2251,5.3072,5.2747,5.2881,5.4314,5.4734,5.5403,5.6836,5.7008,5.7332,5.8192,5.8058,5.8001,5.8268,5.8288,5.8651,5.9453,6.0083,6.0403,6.0403,6.0403,6.0403,6.0403,6.0403,6.0403,6.0403,6.0403,6.0403,6.0403,6.0403,6.0403,6.0403,6.0403,6.0403,6.0403,6.0403,6.0403,6.0403,6.0403,6.0403,6.0441,6.0676,6.0771,6.0848,5.1202,5.1183,5.1184,5.1206,5.1203,5.1229,5.1291,5.1297,5.1297,5.1297,5.1362,5.1406,5.1406,5.1408,5.1399,5.1399,5.0596,5.0108,5.0108,5.0108,5.0499,5.136,5.1399,5.1391,5.1394,5.1394,5.1394,5.1394,5.0537,5.0098,5.0098,4.9223,4.8806,4.8806,4.8806,4.8217,4.7264,4.8147,4.7934,4.7081,4.7955,4.8303,4.8288,4.8093,4.8001,4.8001,4.7865,4.8372,4.911,4.911,4.9633,5.0302,5.0302,5.0302,5.0321,5.0321,5.0321,5.0321,5.0321,5.0321,5.0302,5.0302,4.9691,4.911,4.9129,4.9129,4.9358,5.0149,5.1009,5.2136,5.3798,5.3397,5.3091,5.397,5.4104,5.4409,5.5288,5.6091,5.6931,5.781,5.7905,5.823,5.9033,5.8383,5.8249,5.9038,5.9095,5.9491,6.0365,6.0403,6.0403,6.0403,6.0403,6.0403,6.0403,6.0403,6.0403,6.0403,6.0403,6.0403,6.0403,6.0403,6.0403,6.0403,6.0403,6.0403,6.0403,6.0403,6.0403,6.0403,6.0403,6.0403,6.0499,6.1306,6.1593,6.1841,5.1069,5.0718,5.0494,5.1169,5.1274,5.1279,5.1295,5.1337,5.1346,5.1308,5.136,5.14,5.1392,5.1394,5.1403,5.1403,5.0603,5.0096,5.0096,5.0678,5.1105,5.133,5.1378,5.14,5.1394,5.1346,5.134,5.134,5.0462,5.0334,5.0918,5.0057,4.9593,4.9522,5.0144,4.9495,4.8035,4.8849,4.8704,4.7909,4.8047,4.8458,4.8979,4.8842,4.9122,4.9609,4.958,4.9729,4.9939,4.9939,5.0092,5.0417,5.1028,5.1601,5.204,5.204,5.204,5.204,5.204,5.1639,5.1066,5.0455,5.0111,5.0092,5.0703,5.0856,5.1085,5.1888,5.2747,5.3511,5.4008,5.3894,5.4008,5.4868,5.4505,5.46,5.6033,5.6454,5.7122,5.8574,5.8746,5.909,5.9931,5.9797,5.9739,5.9988,6.0007,6.0122,6.0403,6.0403,6.0403,6.0403,6.0403,6.0403,6.0403,6.0403,6.0403,6.0403,6.0403,6.0403,6.0403,6.0403,6.0403,6.0403,6.0403,6.0403,6.0403,6.0403,6.0403,6.0403,6.0403,6.0403,6.0499,6.1306,6.123,6.0905,5.1125,5.0826,5.0628,5.1199,5.1301,5.1303,5.1347,5.1363,5.1394,5.1349,5.1369,5.1405,5.1394,5.1388,5.1366,5.1366,5.0274,4.9591,4.9591,4.9767,5.015,5.0754,5.0823,5.1005,5.1356,5.1326,5.13,5.13,5.0762,5.0754,5.1205,5.068,5.0348,5.0229,5.0752,5.0126,4.8756,4.9566,4.9416,4.8633,4.8816,4.9236,4.9686,4.9614,4.9882,5.0302,5.0302,5.0092,4.992,5.0588,5.1028,5.1372,5.1907,5.2403,5.2805,5.2805,5.2805,5.2805,5.2805,5.2442,5.204,5.1849,5.1295,5.0951,5.1486,5.1849,5.2308,5.3129,5.3722,5.4218,5.4543,5.4619,5.4887,5.5747,5.5422,5.567,5.7351,5.7581,5.8096,5.9453,5.9606,5.9816,6.0365,6.0403,6.0403,6.0403,6.0403,6.0403,6.0403,6.0403,6.0403,6.0403,6.0403,6.0403,6.0403,6.0403,6.0403,6.0403,6.0403,6.0403,6.0403,6.0403,6.0403,6.0403,6.0403,6.0403,6.0403,6.0403,6.0403,6.0403,6.0403,6.058,6.0981,6.1803,6.1803,6.1516,5.127,5.1232,5.1219,5.1287,5.1304,5.1337,5.1386,5.1394,5.1394,5.1391,5.1391,5.1391,5.1391,5.134,5.1291,5.1291,4.9903,4.9026,4.9026,4.8285,4.8513,5.0053,5.0112,5.0478,5.1269,5.1296,5.1296,5.1288,5.1288,5.122,5.1068,5.1068,5.0978,5.0774,5.0774,5.027,4.9442,5.023,5.0042,4.9282,5.0015,5.0302,5.0302,5.0302,5.0302,5.0302,5.0302,4.9824,4.9442,5.1066,5.2193,5.2919,5.2919,5.2957,5.3034,5.3034,5.3034,5.3034,5.3034,5.2977,5.311,5.3894,5.2957,5.1837,5.1914,5.2556,5.3339,5.4065,5.4333,5.4658,5.5384,5.5575,5.5861,5.6587,5.6721,5.7275,5.8866,5.9095,5.9415,6.0307,6.0403,6.0403,6.0403,6.0403,6.0403,6.0403,6.0403,6.0403,6.0403,6.0403,6.0403,6.0403,6.0403,6.0403,6.0403,6.0403,6.0403,6.0403,6.0403,6.0403,6.0403,6.0403,6.0403,6.0403,6.0403,6.0403,6.0403,6.0403,6.0403,6.0403,6.0403,6.0848,6.1593,6.2471,6.2739,6.2796,5.1152,5.0741,5.0502,5.1249,5.1379,5.1374,5.1397,5.1394,5.1372,5.134,5.1317,5.131,5.1316,5.1308,5.1308,5.1308,5.0977,5.0759,5.0759,5.0583,5.0642,5.1008,5.1028,5.1053,5.1145,5.1243,5.1243,5.1139,5.1139,5.1042,5.0862,5.0862,5.0797,5.0634,5.0634,5.0422,5.0095,5.0286,5.0233,5.0054,5.0225,5.0302,5.0302,5.0302,5.0302,5.0302,5.0302,5.0187,5.0206,5.1257,5.2594,5.3817,5.3817,5.4295,5.4849,5.4849,5.4849,5.4849,5.4849,5.4333,5.3855,5.4046,5.3836,5.3741,5.4428,5.5193,5.5651,5.5212,5.6167,5.6931,5.6434,5.6893,5.7428,5.7581,5.7619,5.7963,5.8962,5.9095,5.9415,6.0307,6.0403,6.0403,6.0403,6.0403,6.0403,6.0403,6.0403,6.0403,6.0403,6.0403,6.0403,6.0403,6.0403,6.0403,6.0403,6.0403,6.0403,6.0403,6.0403,6.0403,6.0403,6.0403,6.0403,6.0403,6.0403,6.0403,6.0403,6.0403,6.0403,6.0403,6.0403,6.0504,6.0752,6.1573,6.1478,6.0962,5.0713,5.0707,5.0818,5.1274,5.1343,5.134,5.1353,5.1349,5.1346,5.13,5.1296,5.1292,5.13,5.13,5.13,5.13,5.093,5.0677,5.0677,5.0677,5.0813,5.1133,5.1561,5.1703,5.1585,5.1657,5.1444,5.0952,5.0952,5.0874,5.0705,5.0705,5.0625,5.0453,5.0453,5.0407,5.0302,5.0302,5.0302,5.0302,5.0302,5.0302,5.0302,5.0302,5.0054,4.9786,5.0168,5.0818,5.1505,5.1582,5.2996,5.4715,5.4715,5.504,5.5403,5.5403,5.5403,5.5403,5.5403,5.5078,5.4715,5.4715,5.5002,5.5307,5.5384,5.6014,5.6587,5.6587,5.695,5.7141,5.6683,5.6969,5.7409,5.7829,5.823,5.8765,5.9606,5.972,5.9892,6.0365,6.0403,6.0403,6.0403,6.0403,6.0403,6.0403,6.0403,6.0403,6.0403,6.0403,6.0403,6.0403,6.0403,6.0403,6.0403,6.0771,6.0962,6.0962,6.058,6.0599,6.0962,6.0594,6.0599,6.0943,6.0575,6.0403,6.0403,6.0403,6.0403,6.0403,6.0403,6.0618,6.1077,6.1917,6.1956,6.1593,5.0384,5.0771,5.1187,5.1271,5.1307,5.13,5.1304,5.13,5.13,5.13,5.13,5.13,5.13,5.13,5.13,5.13,5.0739,5.0399,5.0399,5.0499,5.0816,5.1367,5.2085,5.2334,5.2056,5.2048,5.1631,5.0769,5.0615,5.0542,5.0557,5.0403,5.0319,5.0302,5.0302,5.0302,5.0302,5.0302,5.0225,5.0092,5.0092,5.0092,5.0092,5.0092,4.9767,4.9396,5.0054,5.1372,5.269,5.204,5.3416,5.5403,5.5403,5.5403,5.5403,5.5403,5.5498,5.5613,5.5613,5.5708,5.5842,5.5842,5.632,5.6683,5.6148,5.6549,5.7179,5.7772,5.7542,5.7199,5.7046,5.7141,5.7485,5.8211,5.8899,5.9568,6.0307,6.0403,6.0403,6.0403,6.0403,6.0403,6.0403,6.0403,6.0403,6.0403,6.0403,6.0403,6.0403,6.0403,6.0403,6.0403,6.0537,6.0599,6.0599,6.1402,6.1822,6.1803,6.1153,6.1172,6.1803,6.1134,6.1191,6.1784,6.1115,6.0828,6.0809,6.0656,6.0676,6.079,6.0504,6.0886,6.1688,6.2414,6.2873,6.3102,5.0879,5.0626,5.0412,5.1168,5.1304,5.1304,5.13,5.13,5.13,5.13,5.13,5.13,5.13,5.13,5.13,5.13,5.1726,5.1997,5.1997,5.2535,5.2891,5.2983,5.31,5.2754,5.1857,5.1847,5.1434,5.0635,4.9884,4.9787,5.0329,4.9633,4.9667,5.0302,5.0302,5.0302,5.0302,5.0302,4.9901,4.9263,4.9263,4.9263,4.9263,4.9263,4.9633,5.0149,5.0264,5.1372,5.2785,5.2671,5.3874,5.5403,5.5403,5.5403,5.5403,5.5403,5.588,5.6434,5.6434,5.6988,5.7562,5.7562,5.7638,5.7886,5.8479,5.8675,5.8612,5.802,5.8956,5.9663,5.8899,5.9376,5.9925,6.0026,6.0141,6.0255,6.037,6.0403,6.0403,6.0403,6.0403,6.0403,6.0403,6.0403,6.0403,6.0403,6.0403,6.0403,6.0403,6.0403,6.0403,6.0403,6.1077,6.144,6.144,6.2299,6.272,6.272,6.2605,6.2624,6.272,6.2605,6.2624,6.272,6.2605,6.2567,6.251,6.1745,6.1879,6.2414,6.0962,6.0886,6.1612,6.1726,6.272,6.3923,4.9859,4.9956,5.0268,5.1145,5.13,5.13,5.13,5.13,5.13,5.13,5.13,5.13,5.13,5.13,5.1455,5.1823,5.2139,5.246,5.2836,5.3591,5.3778,5.3205,5.4092,5.3887,5.2395,5.2843,5.2441,5.1168,5.0287,5.0002,5.0283,4.9939,4.9958,5.0302,5.0302,5.0302,5.0302,5.0302,5.0092,4.9767,4.9767,4.9767,4.9767,4.9767,4.971,4.9691,5.0149,5.1697,5.3531,5.3531,5.4352,5.5403,5.5403,5.5403,5.5403,5.5403,5.5976,5.6587,5.6587,5.7237,5.7905,5.7905,5.8249,5.867,5.9019,5.9491,5.972,5.9357,5.9491,5.9568,5.9185,5.9415,5.9663,5.9663,6.0083,6.0403,6.0403,6.0403,6.0403,6.0403,6.0403,6.0594,6.1019,6.0656,6.058,6.1039,6.0637,6.0403,6.0403,6.0828,6.1077,6.1077,6.1898,6.2338,6.2338,6.3197,6.3618,6.3618,6.4076,6.4057,6.3599,6.3121,6.3178,6.3599,6.3121,6.2911,6.2834,6.1956,6.1841,6.207,6.0848,6.1191,6.2395,6.2873,6.3541,6.4225]}]]